GFSCGP_850_thetae_000.txt.gz
Theta_e
323 321 320 320 320 320 323 322 321 322 322 322 321 320 323 321 320 322 320 320 319 319 319 319 318 318 320 322 323 325 326 327 328 329 329 328 325 324 323 321 320 321 321 322
323 321 319 320 322 324 322 322 322 324 323 323 321 323 321 320 319 319 319 320 321 320 319 319 319 318 318 318 319 322 323 325 326 327 327 328 328 326 326 324 323 323 324 324
321 319 320 324 324 324 322 322 323 324 323 322 323 323 320 320 321 320 320 321 321 320 320 320 319 317 317 318 318 318 320 322 325 327 327 327 328 330 330 329 331 331 331 330
319 320 322 323 323 322 323 322 323 323 323 325 322 324 321 320 321 319 321 322 321 320 319 319 319 318 317 317 318 318 318 319 323 325 327 328 329 329 329 330 330 330 330 328
319 320 322 323 323 322 324 322 322 321 320 321 323 322 319 319 321 320 320 322 321 320 319 319 319 319 318 317 317 317 318 318 319 322 323 325 327 328 328 329 330 330 329 329
318 319 320 321 320 321 320 320 320 320 319 323 321 322 320 320 320 320 321 322 321 320 319 318 318 319 319 319 319 318 318 317 317 317 319 320 321 323 324 324 327 327 327 328
318 317 314 316 318 317 318 320 325 325 325 325 320 321 319 320 320 320 320 321 321 320 319 318 318 318 319 319 318 318 318 317 317 317 317 316 317 320 323 325 327 328 328 329
322 322 317 316 319 320 318 322 326 332 329 324 319 323 323 317 320 320 321 321 321 319 318 318 318 318 318 318 318 317 317 317 316 316 317 316 316 315 315 315 316 319 323 325
325 323 316 316 316 315 322 324 320 324 324 324 324 325 321 317 316 317 320 321 320 319 318 317 318 317 318 317 317 317 316 316 316 316 315 315 315 315 315 315 315 315 314 314
325 323 319 316 315 315 315 315 320 321 325 326 324 324 321 317 316 316 318 321 320 319 318 317 317 317 317 317 316 316 316 316 316 315 314 315 315 315 315 315 315 315 314 314
323 326 323 319 319 320 316 318 317 317 319 322 323 322 319 319 317 316 318 321 320 318 317 317 317 317 316 316 316 316 315 315 314 314 314 313 314 315 315 315 315 315 314 314
323 326 325 324 318 318 318 319 318 320 322 319 316 317 317 316 317 320 321 321 318 317 317 317 317 316 316 316 316 315 314 314 313 312 311 311 311 312 312 311 310 308 307 307
323 326 327 325 322 320 323 322 319 319 320 323 319 318 317 317 318 321 321 320 318 317 317 317 316 315 314 314 314 315 314 311 311 310 312 312 312 312 311 310 308 307 307 306
321 323 323 323 321 321 323 322 322 321 320 321 320 319 319 318 318 319 318 319 317 316 316 315 314 313 313 312 312 313 312 311 312 312 310 308 308 308 307 306 306 305 305 305
321 322 320 320 319 318 318 319 318 320 320 320 319 319 318 316 317 318 319 317 316 316 315 313 312 312 311 312 312 312 311 311 310 308 308 307 308 307 306 305 304 304 304 304
317 319 318 317 315 314 314 314 314 316 317 318 318 318 317 318 318 319 319 318 317 316 313 311 310 310 311 312 312 309 309 309 308 306 305 305 305 304 303 302 302 302 303 303
317 316 315 315 315 315 316 316 315 315 315 315 316 316 316 317 318 319 319 318 317 314 311 309 310 310 310 308 307 307 308 307 304 303 302 302 301 299 298 299 299 300 300 300
316 316 315 315 316 317 317 317 316 317 317 315 316 316 317 318 318 318 316 316 316 313 310 309 308 306 305 305 306 305 304 301 299 298 298 298 297 297 297 297 297 297 297 298
311 314 315 317 318 318 318 318 318 318 317 316 316 315 317 316 314 314 315 314 311 310 308 306 306 304 304 301 301 299 298 296 295 294 294 292 292 292 292 293 293 293 294 296
314 311 314 311 317 321 320 315 315 315 316 317 316 316 317 314 313 311 311 310 310 308 306 305 304 302 300 299 297 295 293 291 291 290 289 289 289 289 289 290 290 291 292 292
315 314 314 315 316 318 317 314 315 318 318 318 317 317 318 313 312 311 310 309 308 306 305 304 302 298 297 294 292 290 289 288 288 288 288 288 288 288 288 288 289 290 289 291
317 316 316 316 318 316 318 316 317 316 317 317 317 316 313 312 310 310 308 307 305 304 303 302 298 295 292 290 289 288 288 288 287 287 287 287 287 287 287 287 288 288 288 289
313 315 317 317 317 317 318 316 315 313 314 314 313 313 311 310 309 309 307 305 305 304 302 299 295 291 289 288 288 288 287 287 286 286 286 286 286 286 287 287 286 287 288 288
314 315 314 314 315 314 315 315 312 311 311 310 310 310 310 309 309 309 307 305 304 301 298 294 290 289 289 288 287 286 286 286 286 286 286 286 286 286 286 286 286 286 287 288
314 313 314 314 314 314 315 313 311 310 310 309 308 307 306 306 306 305 306 303 299 296 292 289 288 288 287 286 286 286 286 286 286 286 286 286 285 286 286 285 285 286 287 287
313 312 313 314 312 312 312 312 312 311 309 307 306 305 304 303 305 304 301 296 293 290 288 288 287 287 286 286 286 286 286 286 285 285 285 285 285 285 285 285 285 285 286 286

GFSCGP_850_thetae_003.txt.gz
Theta_e
326 325 326 321 316 318 318 319 318 319 321 321 320 318 317 319 318 317 318 320 320 320 319 319 318 318 318 319 322 324 327 330 330 329 329 328 327 326 326 325 324 325 327 328
325 326 319 317 318 318 317 319 318 320 321 319 319 320 319 317 316 319 321 321 321 320 319 318 318 318 318 319 319 319 321 324 327 331 330 329 328 328 329 329 329 330 330 330
327 324 319 320 320 321 320 321 322 322 320 320 321 320 318 316 318 320 321 321 321 320 320 320 318 318 318 318 318 320 319 320 323 326 329 330 330 330 328 327 328 329 330 331
323 318 320 320 321 319 320 320 322 322 319 321 319 321 317 317 318 317 320 320 320 320 319 319 319 319 318 317 317 318 318 319 321 324 326 328 329 329 329 329 329 329 330 331
320 319 318 321 321 319 323 321 321 320 319 318 320 320 317 317 318 317 318 320 319 319 319 319 319 318 318 318 318 318 318 318 318 319 321 323 324 325 325 326 327 327 328 328
316 319 318 319 319 319 319 319 319 318 317 321 318 319 318 319 318 317 317 320 319 319 318 318 318 318 318 318 317 317 317 317 317 317 317 316 316 317 317 318 321 324 326 327
315 315 314 317 317 315 317 317 322 323 321 322 318 318 317 317 318 318 317 320 320 319 318 317 317 318 318 317 317 317 316 316 315 316 316 315 315 315 315 315 315 314 314 314
318 319 315 315 317 317 315 317 323 330 326 324 318 319 319 316 319 321 321 320 319 318 318 317 317 317 317 317 316 316 316 316 315 315 315 315 315 315 315 316 316 316 315 315
320 320 315 315 314 316 319 321 318 321 321 321 321 321 318 314 315 318 319 320 319 319 318 317 317 317 317 316 316 315 315 315 315 314 314 314 314 313 314 315 315 316 315 314
321 320 317 315 315 314 315 315 320 318 323 324 321 322 319 315 314 314 317 318 319 318 318 317 317 316 316 316 316 315 314 314 314 312 311 311 311 311 312 313 313 312 310 308
323 322 321 318 318 318 317 316 315 315 316 320 320 319 315 316 313 314 316 319 319 318 318 317 317 316 316 316 315 315 314 314 310 308 308 310 310 311 311 311 311 310 308 307
323 320 322 323 317 317 317 318 316 317 321 316 314 317 315 316 313 317 319 320 318 318 317 317 316 316 315 315 315 314 314 312 307 308 310 310 310 309 309 309 308 307 306 306
322 322 324 322 320 318 321 321 318 317 316 320 318 317 315 315 317 319 319 319 318 317 317 316 315 313 312 312 312 312 311 308 307 309 310 310 309 309 308 308 307 306 304 304
319 320 320 321 319 318 322 321 321 318 318 317 318 319 316 317 318 319 319 319 317 317 317 314 312 311 311 311 311 311 308 305 308 309 308 309 309 307 306 305 304 302 301 301
318 318 317 317 317 316 317 317 317 319 318 319 317 317 316 314 313 315 319 317 316 315 313 311 311 310 310 310 310 307 305 306 307 307 307 306 305 303 301 300 298 298 298 298
314 317 315 314 314 313 313 312 312 314 315 316 316 317 315 317 316 318 317 317 315 312 311 310 309 309 309 308 305 305 305 305 305 304 302 300 299 297 295 293 292 293 294 295
315 312 312 313 313 314 317 315 313 313 313 313 314 314 313 316 317 318 318 316 314 310 309 309 308 307 305 305 305 304 304 302 300 298 297 295 292 290 290 289 289 289 290 290
314 313 312 313 314 317 316 314 315 314 315 313 313 313 314 316 316 315 317 316 312 309 309 308 305 306 305 305 304 302 301 298 295 292 290 289 289 289 288 288 288 288 288 289
309 311 312 314 315 315 317 314 316 317 316 314 315 314 315 315 314 310 313 314 312 310 308 307 307 306 305 303 302 300 297 292 290 289 289 288 287 287 287 287 287 287 288 288
311 308 311 305 312 318 316 314 315 313 315 316 316 316 316 316 314 310 310 311 311 309 308 306 306 307 306 303 298 294 290 289 288 288 287 287 287 287 287 287 287 287 287 287
312 311 312 312 313 313 313 314 315 317 314 316 317 317 317 313 313 311 310 310 309 308 307 307 307 306 301 296 291 289 288 288 287 287 287 287 287 287 287 287 287 286 286 287
314 311 313 312 313 314 314 315 317 312 313 312 312 313 313 311 310 309 309 309 308 307 307 306 304 299 293 289 288 288 287 286 286 286 287 287 287 286 286 286 286 286 286 286
313 312 315 313 312 313 313 313 311 312 311 310 310 310 311 310 310 309 309 310 309 308 305 304 299 293 289 288 288 287 287 286 286 286 286 286 286 286 286 285 285 285 285 286
312 313 312 313 313 313 313 310 311 311 311 311 310 309 309 309 309 308 307 307 306 305 303 298 294 288 288 288 287 287 286 286 286 286 286 286 285 285 285 285 285 285 285 286
311 312 311 311 311 312 312 312 311 311 311 310 309 308 308 307 306 306 305 305 304 301 299 294 288 288 288 287 287 287 286 286 286 285 285 285 285 285 285 285 285 285 285 286
311 310 310 310 311 310 310 311 310 310 310 310 309 308 307 306 305 304 304 302 298 295 291 288 288 288 287 287 286 286 286 285 285 285 285 285 284 284 284 284 284 285 285 285

GFSCGP_850_thetae_006.txt.gz
Theta_e
328 329 329 326 320 318 318 318 317 315 316 318 318 318 318 317 315 314 317 319 319 319 318 317 317 318 318 318 319 321 323 326 329 329 329 329 328 328 327 327 327 328 330 331
328 331 326 323 319 317 317 317 316 316 319 320 319 318 317 314 314 317 318 319 320 319 318 317 317 318 318 319 319 319 319 321 322 326 329 329 328 328 328 329 330 331 330 330
329 328 325 322 318 320 318 316 317 320 319 318 320 319 317 316 317 318 319 320 320 320 319 318 317 317 317 317 317 318 319 319 320 323 326 328 329 329 329 331 331 330 330 330
326 321 323 323 319 316 318 316 319 321 319 320 318 321 316 315 317 316 317 319 319 319 319 318 318 318 317 317 317 317 317 319 320 322 323 325 328 328 327 326 325 326 326 326
326 321 322 321 319 316 319 319 320 319 317 317 318 319 316 315 317 316 315 318 318 319 318 318 318 317 317 317 317 317 317 317 317 317 317 318 318 317 317 317 318 321 323 325
319 319 317 317 318 317 318 318 315 314 315 319 317 319 318 316 317 316 315 318 318 318 318 318 318 317 317 317 316 316 315 315 315 315 315 315 315 315 315 315 315 315 315 314
319 315 313 316 316 315 315 316 320 321 320 321 316 317 318 315 315 317 315 317 318 317 317 317 317 317 317 316 316 315 315 315 315 314 314 314 314 314 315 315 315 315 315 315
320 319 313 313 316 316 315 316 320 326 323 323 317 318 317 313 316 318 319 318 318 318 317 317 317 317 317 316 316 315 315 315 314 313 313 312 312 312 313 314 315 314 313 312
317 318 314 315 314 315 316 319 317 320 318 320 320 318 316 314 315 316 317 318 318 318 318 317 317 316 316 316 315 315 315 314 314 311 308 308 309 309 310 310 311 311 310 309
318 318 316 314 314 313 316 314 319 317 324 323 319 319 319 317 316 315 315 316 318 318 317 317 316 316 316 315 315 314 314 314 312 307 307 308 309 309 309 309 308 308 308 307
317 317 319 316 316 317 315 315 314 315 316 320 320 318 313 313 314 316 315 318 319 318 317 317 316 316 315 315 314 314 314 313 310 306 307 308 308 309 309 308 308 308 307 306
322 317 319 320 316 315 315 316 314 316 318 314 313 317 312 313 311 314 317 319 318 318 317 316 316 315 315 315 314 313 312 310 306 306 307 307 306 306 307 307 306 305 303 302
321 321 321 323 319 318 319 317 315 314 314 318 318 318 312 314 311 315 316 318 318 317 316 316 315 314 313 312 312 311 310 307 306 306 306 306 306 305 304 303 301 299 297 296
318 317 320 324 321 318 321 321 317 316 316 316 316 318 316 316 316 317 318 319 318 316 316 315 313 312 312 311 311 309 306 306 306 306 305 304 303 300 298 296 293 292 292 291
316 318 317 317 316 316 318 318 318 318 316 317 316 316 316 313 312 314 315 315 315 316 314 313 312 311 311 310 308 305 306 306 305 303 301 299 297 294 292 291 291 291 290 290
314 316 314 313 312 313 313 313 312 314 316 316 316 316 313 314 314 315 317 315 315 315 312 311 311 310 309 307 306 307 306 305 302 299 296 293 291 291 291 290 290 290 289 289
314 312 312 313 312 314 316 314 312 310 310 311 312 311 312 313 314 315 316 315 315 312 311 311 310 308 306 307 307 306 304 301 297 293 290 290 290 290 289 289 289 289 288 288
312 311 311 313 314 318 316 312 313 312 313 312 312 312 313 314 314 315 316 316 314 312 310 309 308 306 306 306 305 303 299 295 291 290 290 290 289 289 288 288 288 288 288 287
308 309 312 314 314 314 316 315 316 317 315 313 314 314 315 314 313 313 314 315 314 310 309 307 306 306 306 304 304 300 294 291 290 290 289 289 288 288 288 288 287 287 287 286
308 307 311 306 313 318 315 314 314 312 312 314 315 314 315 314 312 310 312 312 311 309 307 307 306 306 305 303 300 294 290 289 289 289 288 288 287 287 287 287 286 286 286 286
309 309 311 312 312 312 310 312 314 316 311 312 312 312 312 312 312 313 312 310 309 308 308 307 306 306 305 302 295 290 289 288 288 287 287 287 287 286 286 286 286 285 285 285
312 310 310 310 312 312 312 314 316 311 311 311 311 311 310 311 311 311 311 310 310 308 306 306 305 305 303 295 290 288 288 287 287 287 287 287 286 286 285 285 285 285 285 285
314 312 313 311 310 310 313 312 312 312 312 311 311 311 310 310 310 310 309 308 307 306 305 304 304 302 296 289 288 287 287 287 287 287 286 286 286 285 285 284 284 284 284 284
311 310 312 312 311 309 311 311 311 311 311 311 311 310 309 309 308 308 308 307 305 304 302 301 300 294 288 288 287 287 287 286 286 286 286 285 285 285 284 284 284 284 284 284
309 311 310 310 310 310 310 310 310 310 310 310 309 308 309 308 307 306 306 305 304 302 300 298 292 288 288 287 287 287 286 286 286 285 285 285 284 284 284 284 283 284 284 284
308 309 310 310 309 310 310 309 309 309 309 308 308 308 307 306 305 304 303 303 301 299 295 292 288 288 287 287 287 286 286 285 285 285 285 284 284 284 283 283 283 283 284 284

GFSCGP_850_thetae_009.txt.gz
Theta_e
328 328 329 324 322 322 319 317 317 315 314 315 315 316 316 316 317 313 316 318 319 317 317 317 318 318 318 318 318 319 320 321 322 325 328 328 328 328 328 328 328 329 329 331
329 329 327 324 320 318 318 318 318 316 316 316 317 316 315 314 313 313 316 318 319 317 317 317 318 317 317 318 318 319 319 319 320 322 326 327 328 328 328 329 330 331 331 332
328 328 326 326 326 322 319 318 317 317 317 316 317 318 317 315 316 316 317 318 319 318 317 317 317 317 317 317 317 317 318 319 320 322 325 327 328 329 330 329 327 327 326 326
327 325 327 325 322 325 328 316 317 317 318 320 316 320 316 314 316 315 316 318 319 318 318 317 317 317 317 317 316 316 317 317 317 317 319 320 321 321 319 318 318 319 321 322
325 326 328 329 324 317 320 316 316 317 317 316 317 318 317 314 316 315 313 316 318 318 318 317 317 317 317 316 316 315 315 315 315 315 315 315 315 315 315 315 315 315 315 314
321 322 325 326 320 315 317 316 314 313 314 318 316 317 318 315 316 315 314 315 318 318 317 317 317 317 316 316 315 315 315 315 315 314 314 314 314 314 314 313 313 313 313 313
318 319 316 316 316 315 315 316 320 321 320 320 314 316 319 315 313 315 314 315 318 318 317 317 317 317 316 316 315 315 315 315 314 313 312 312 311 311 310 310 310 309 309 309
322 324 314 312 315 315 314 317 319 323 321 319 313 316 317 313 312 317 318 317 317 317 317 317 317 316 316 316 315 315 315 314 314 311 308 308 308 308 309 309 308 308 308 308
320 320 313 313 313 315 315 317 315 320 317 319 318 316 315 314 313 314 315 316 317 317 317 316 316 316 316 315 315 315 315 314 313 310 307 307 308 308 308 308 308 308 307 307
316 316 315 313 313 312 315 313 318 315 324 323 318 317 319 318 316 314 313 315 317 317 317 317 316 316 315 315 315 314 314 314 312 308 306 307 307 307 307 307 307 306 306 304
314 315 317 314 315 314 313 313 312 314 315 319 319 318 313 315 314 315 314 317 318 316 317 316 316 316 315 315 314 314 314 312 310 306 306 307 307 306 306 305 304 302 300 298
319 314 317 317 315 313 314 314 312 315 317 312 312 316 311 312 311 315 316 317 317 317 317 316 316 315 315 314 314 313 311 310 307 306 306 306 306 305 303 301 298 295 293 292
319 318 321 322 318 317 318 315 313 312 313 315 316 316 311 309 310 314 316 317 318 317 316 316 315 315 315 314 312 311 310 307 306 307 307 306 304 301 298 294 293 292 292 292
318 317 318 320 320 317 319 318 314 315 316 315 315 317 316 314 315 316 316 318 318 316 316 316 314 314 313 312 311 309 306 306 307 307 306 302 298 294 292 291 291 291 291 291
314 318 316 315 315 317 318 319 315 315 314 316 316 315 315 314 313 314 315 314 315 315 315 314 313 312 312 310 308 306 307 306 306 305 300 296 292 291 291 291 291 291 290 290
312 315 314 312 312 312 313 314 316 317 317 315 316 315 312 313 314 315 316 315 314 315 314 312 312 311 310 307 306 306 306 305 303 299 294 291 290 290 290 290 290 290 290 289
312 311 311 313 313 314 314 312 310 310 310 312 312 311 311 313 313 315 316 316 315 315 314 312 311 309 306 306 306 306 305 304 298 292 290 290 289 290 289 289 289 289 288 288
311 311 310 312 313 316 313 312 312 312 312 311 313 313 313 314 314 314 315 316 316 315 313 311 309 306 305 306 306 305 303 298 292 290 289 289 289 289 288 288 288 288 287 287
309 311 313 316 314 314 315 314 312 315 316 313 314 314 313 313 313 313 314 314 314 313 311 310 307 306 306 307 305 303 299 291 289 289 289 289 288 288 288 288 287 287 286 286
308 308 313 309 315 320 315 314 313 311 316 312 314 313 313 312 311 309 312 313 312 311 309 307 307 306 306 304 302 296 293 290 289 289 288 288 287 287 287 286 286 286 285 285
310 310 313 314 314 313 311 312 313 316 311 311 311 311 310 309 311 311 311 312 310 309 308 308 306 305 302 301 298 293 292 289 288 288 288 287 287 286 286 286 285 285 285 284
310 309 311 311 313 316 311 313 314 310 310 310 310 310 310 310 310 310 310 310 309 308 306 304 304 303 302 299 296 293 289 288 287 287 287 287 286 286 285 285 285 284 284 284
314 311 312 310 311 309 311 311 312 311 311 311 311 310 310 309 309 309 309 309 307 306 305 304 303 301 298 295 292 289 288 287 287 287 287 286 286 285 285 285 284 284 283 283
310 308 311 311 309 310 311 311 311 311 311 311 310 310 309 309 308 307 307 307 306 305 304 303 301 300 295 290 288 287 286 286 286 286 286 285 285 285 285 284 283 283 283 283
308 309 309 310 309 309 309 310 310 310 310 310 309 309 308 308 307 306 306 305 304 303 302 300 297 292 288 288 287 286 286 286 286 286 286 285 285 284 284 283 283 282 282 283
307 309 310 310 309 308 308 309 309 308 308 308 308 308 307 307 306 305 304 303 302 301 299 295 290 288 288 287 287 286 286 285 285 285 285 284 284 283 283 283 282 282 282 283

GFSCGP_850_thetae_012.txt.gz
Theta_e
325 328 328 325 325 322 319 318 320 316 314 315 314 313 314 315 316 315 314 316 317 317 317 318 318 318 318 318 318 318 318 319 319 321 324 326 327 328 328 329 329 329 330 330
329 328 325 322 321 322 319 319 318 317 315 314 315 315 314 313 314 315 314 316 317 316 317 317 317 317 317 317 317 317 318 318 319 321 324 326 327 328 328 329 328 328 327 326
328 327 324 324 321 323 320 320 321 321 315 315 314 316 315 314 314 314 315 317 317 316 316 316 316 316 317 317 317 316 316 316 316 317 320 324 327 326 324 320 319 318 319 320
326 325 326 326 326 324 326 318 318 318 317 319 315 319 315 313 314 313 315 317 317 317 316 316 316 316 316 316 315 315 315 315 315 315 315 315 316 315 315 315 315 315 314 314
326 327 328 328 327 324 327 318 318 318 316 315 316 317 315 313 315 314 312 316 318 317 317 317 316 316 315 315 315 315 315 315 314 314 314 314 314 314 314 313 313 311 310 310
322 323 325 327 323 320 318 316 315 312 313 318 316 317 316 314 313 314 313 315 317 317 317 316 316 316 315 315 315 315 315 314 314 313 312 311 310 310 309 309 308 308 308 308
320 323 320 319 321 315 317 318 321 321 320 320 314 315 316 314 312 313 313 315 317 317 317 316 316 316 315 315 315 315 315 314 313 311 309 308 308 308 308 308 308 308 308 308
323 325 318 314 322 320 318 315 318 323 320 318 312 316 315 314 312 313 316 317 317 317 316 316 316 316 315 315 315 315 315 314 313 312 309 307 307 307 307 307 307 307 306 306
322 323 313 315 314 320 314 318 315 317 315 318 318 314 314 314 312 312 313 315 316 316 316 316 316 316 315 315 315 315 314 314 313 311 307 307 307 307 307 307 307 306 304 302
316 316 314 312 312 311 313 313 318 315 324 323 318 315 318 315 316 313 311 313 316 316 316 316 316 315 315 315 314 314 314 313 311 308 307 307 307 308 308 307 304 301 298 295
312 313 316 313 313 313 313 314 312 314 315 319 319 317 311 312 312 313 311 314 315 316 316 316 316 315 315 314 314 313 313 311 308 306 307 308 308 307 303 300 297 294 293 292
315 312 314 315 314 311 311 312 312 317 316 311 312 315 311 309 309 312 313 314 315 316 316 316 315 315 314 314 313 312 310 308 306 307 307 307 305 303 299 295 293 292 292 292
316 316 319 321 318 316 316 313 311 311 311 312 315 316 311 308 311 314 314 315 316 316 316 315 314 314 314 313 312 310 309 306 307 307 307 306 302 297 294 292 292 292 291 291
318 316 316 321 319 316 318 315 312 314 314 314 313 316 315 313 314 314 316 317 317 316 315 315 314 313 313 311 311 309 306 306 307 307 305 300 296 293 291 291 291 291 291 290
314 318 316 313 316 316 317 317 313 314 314 317 317 314 314 314 314 314 313 314 315 315 314 314 313 313 312 310 308 306 306 307 307 304 298 295 292 291 290 290 290 290 290 290
312 315 313 312 312 313 316 317 313 313 313 314 314 314 311 312 313 315 315 316 314 314 314 313 313 312 311 309 306 306 307 305 304 301 297 293 291 290 289 290 290 290 290 289
311 311 312 315 313 313 313 311 314 314 313 314 316 313 311 314 313 314 315 315 316 316 315 313 312 311 309 306 306 306 305 303 301 300 296 291 289 289 289 289 289 289 289 289
311 310 310 310 313 312 312 311 309 310 311 310 312 312 312 313 313 313 314 314 314 314 314 311 310 309 306 305 306 305 302 301 299 295 293 289 289 289 289 288 288 289 288 287
308 310 312 314 312 312 315 311 312 314 315 313 313 312 312 312 313 312 314 313 313 313 312 310 309 306 305 306 304 302 301 296 294 292 289 289 288 288 288 288 288 287 286 286
308 309 312 310 316 317 314 313 312 312 317 312 312 312 312 312 311 309 312 312 312 311 309 309 307 305 305 304 303 301 297 295 290 289 288 288 287 287 288 287 287 286 285 285
310 309 312 314 315 313 311 312 312 316 314 312 312 312 312 309 310 310 310 310 309 308 308 306 305 304 304 303 302 300 292 289 289 288 288 288 287 287 287 286 285 285 284 284
310 310 311 311 314 316 310 312 314 310 310 311 311 310 310 309 309 309 309 309 308 308 306 305 304 304 303 301 297 290 288 288 288 288 287 287 287 287 286 285 285 284 284 284
313 310 311 311 312 309 310 311 312 311 311 310 310 310 310 309 309 308 308 308 307 307 305 304 303 302 300 296 293 288 288 287 287 288 287 287 286 286 285 285 284 284 284 283
309 307 311 310 309 309 310 310 311 311 311 310 310 310 309 308 308 307 306 306 306 305 304 302 301 299 296 292 288 287 287 287 287 287 286 286 286 286 285 285 284 283 282 282
307 307 308 309 308 309 309 310 311 310 310 309 309 309 308 308 307 306 306 305 304 303 302 301 300 296 293 289 288 287 287 287 286 286 286 286 286 285 285 284 283 282 282 282
306 308 310 310 309 308 308 310 309 309 308 308 308 307 307 306 306 305 304 303 302 301 300 299 296 294 289 288 287 287 286 286 285 285 286 285 285 284 283 283 282 282 282 282

GFSCGP_850_thetae_015.txt.gz
Theta_e
318 327 328 325 324 323 317 320 324 320 315 315 316 315 317 316 315 314 313 315 316 317 317 317 318 318 318 318 318 318 318 319 321 321 324 325 326 327 328 328 329 328 328 327
322 327 325 322 322 321 319 321 319 318 315 315 317 318 317 315 315 315 314 315 316 316 316 316 316 316 317 316 316 316 316 316 317 318 322 325 327 327 325 323 322 320 319 318
323 324 324 324 324 325 320 320 319 323 317 315 315 318 316 314 313 312 313 316 316 316 316 315 316 316 316 315 315 315 315 315 315 315 317 320 320 318 315 314 314 314 314 314
321 325 325 325 324 324 326 319 320 320 323 325 315 323 317 316 314 313 313 315 316 316 316 316 316 315 315 315 315 315 315 315 314 314 314 314 314 314 314 314 313 311 309 308
323 327 326 326 325 322 325 321 322 321 320 315 316 319 319 312 315 315 313 315 316 316 316 316 315 315 315 315 315 315 315 314 313 313 312 312 311 310 309 308 308 308 308 308
322 324 325 326 323 323 314 316 316 314 316 320 317 319 320 317 315 313 312 315 316 316 316 316 315 315 315 315 315 314 314 313 312 311 310 309 308 308 308 308 309 309 309 310
320 326 323 324 321 317 318 324 326 323 322 323 313 316 319 314 313 314 314 314 316 316 316 315 315 315 315 315 314 314 314 313 312 312 310 308 308 308 308 308 309 309 310 309
322 325 321 319 324 323 323 323 323 325 323 320 312 319 318 312 313 313 314 316 316 316 316 315 315 315 315 314 314 314 314 313 313 311 309 307 307 308 308 309 309 307 305 302
320 322 316 315 316 322 319 323 316 317 314 319 319 317 316 314 313 311 312 314 316 316 316 315 315 315 314 314 314 313 313 313 312 310 308 307 308 309 309 308 306 303 299 297
317 317 314 312 313 312 318 316 323 316 324 324 320 316 321 316 313 313 311 312 315 316 316 315 315 314 314 314 313 312 312 312 310 308 307 308 309 308 307 305 302 299 296 293
311 314 314 312 315 314 315 317 314 316 316 322 320 319 312 313 311 312 312 313 316 315 315 315 314 314 313 313 312 312 311 309 308 307 307 308 307 306 304 301 298 294 292 291
312 312 318 314 313 312 313 315 314 319 317 311 314 319 310 309 308 309 312 314 315 315 315 315 314 314 313 312 312 311 310 307 306 307 308 307 305 303 299 296 293 292 291 290
314 315 319 320 318 315 314 310 311 311 311 313 318 318 311 310 312 313 312 314 315 315 315 314 313 313 313 312 311 310 307 306 307 308 307 305 303 300 296 293 291 290 290 290
316 314 317 322 319 315 317 313 310 315 315 314 313 315 315 314 314 313 313 314 315 315 314 314 313 313 312 311 310 308 306 307 307 306 305 303 301 296 292 290 290 290 290 290
316 319 315 313 316 316 315 315 311 314 316 319 317 314 314 313 313 313 314 315 315 315 313 313 313 312 312 311 308 305 306 307 306 305 302 300 296 292 290 290 289 289 290 290
312 317 312 313 313 315 317 315 314 313 312 313 313 314 310 311 312 313 314 314 313 313 313 313 312 312 311 309 306 305 307 306 305 301 298 294 295 290 289 289 289 289 289 290
314 311 314 316 312 312 316 312 314 314 311 314 316 316 310 312 312 313 313 313 314 314 313 313 312 311 309 307 305 306 306 304 301 297 293 291 291 289 289 289 289 289 289 290
314 311 311 311 311 314 314 310 312 314 310 310 310 309 311 312 312 312 313 313 313 313 313 312 311 310 307 304 305 305 304 302 298 295 292 289 289 289 289 289 289 289 289 288
308 311 312 314 311 312 314 311 310 313 313 308 312 311 311 312 312 311 313 313 312 312 312 311 309 308 305 304 304 304 302 300 297 292 289 288 288 288 288 289 289 288 287 287
309 311 313 311 316 315 313 312 311 312 316 312 312 311 310 311 312 310 311 311 311 311 310 310 308 305 304 304 304 301 300 298 293 289 288 288 287 288 288 288 288 287 286 286
311 310 311 314 314 313 311 311 311 316 315 311 313 312 311 309 309 310 309 309 309 309 309 307 305 303 303 303 301 300 297 294 289 288 288 287 287 287 288 287 287 286 285 285
312 313 312 311 314 315 310 312 314 310 311 312 311 311 310 309 309 309 308 308 308 308 307 305 303 303 303 301 300 297 293 290 288 287 287 287 287 287 287 287 286 285 284 284
312 310 312 311 312 308 309 310 310 312 310 310 310 309 309 309 308 308 307 307 307 306 304 303 302 302 302 300 295 293 289 288 287 287 287 287 287 288 287 286 285 284 283 282
308 307 310 309 309 308 309 310 311 311 311 310 310 309 309 308 308 307 306 305 305 305 303 302 301 301 298 297 293 288 287 287 287 287 287 287 288 287 286 285 284 283 282 282
307 307 308 308 307 308 309 310 310 310 310 310 309 309 308 308 307 307 306 305 304 304 302 302 301 298 295 291 287 287 287 287 287 287 288 288 287 286 284 283 282 281 282 282
305 307 309 310 308 309 309 309 310 309 309 308 308 307 307 306 306 305 305 304 303 303 302 299 298 295 291 288 287 287 287 287 287 288 288 286 285 284 283 282 282 282 282 282

GFSCGP_850_thetae_018.txt.gz
Theta_e
316 318 323 326 326 325 325 325 326 326 325 322 325 326 324 323 323 321 320 319 319 319 317 318 318 319 319 318 318 319 320 322 323 326 327 327 327 327 327 326 325 323 321 319
317 320 322 324 325 324 325 325 326 325 321 321 325 326 326 325 323 321 321 319 319 318 317 317 317 317 316 316 315 316 316 316 319 322 325 326 325 324 321 318 315 314 314 313
317 318 320 325 324 325 326 325 325 326 322 324 323 327 326 321 318 316 316 319 319 318 317 316 316 315 315 315 315 315 315 315 315 317 318 318 317 315 314 314 313 311 309 308
316 318 322 326 325 324 328 324 325 326 329 331 323 330 327 324 322 318 317 318 318 318 317 316 316 315 315 315 315 315 315 314 314 314 314 314 314 312 310 309 308 308 309 310
316 321 324 326 326 325 324 325 325 327 328 325 328 327 327 320 322 320 319 319 318 317 317 316 316 315 315 315 315 314 314 314 313 312 311 310 309 308 308 308 309 309 310 310
316 319 323 325 324 324 323 324 322 320 321 330 327 325 327 323 321 319 318 319 318 317 316 316 315 315 315 314 314 314 314 313 311 311 310 309 308 308 308 309 310 310 308 306
314 315 325 324 325 321 324 326 331 331 330 329 319 322 326 321 319 319 319 319 317 317 316 315 315 315 314 314 314 314 313 313 312 312 310 309 309 309 310 310 309 308 307 305
319 326 326 325 325 323 324 327 329 330 330 328 317 325 323 318 317 316 318 319 318 317 317 316 315 315 314 314 314 313 313 313 311 311 310 309 309 310 309 309 308 306 304 301
318 321 320 322 321 323 324 327 321 322 320 324 324 323 321 318 318 316 316 318 318 317 317 316 315 314 314 314 313 313 313 312 310 309 308 308 309 309 309 307 305 303 301 296
317 322 319 316 321 317 324 323 326 323 327 327 325 324 325 321 319 317 317 318 318 317 316 315 314 314 313 313 313 312 311 310 308 307 308 308 309 308 306 304 302 299 295 293
318 321 317 314 323 325 322 323 322 321 323 327 326 325 320 319 318 317 318 318 318 317 316 315 313 313 313 313 312 311 310 308 307 307 308 308 307 305 303 301 298 294 293 291
319 319 322 323 315 319 323 324 326 327 324 321 322 324 316 317 315 315 317 317 317 317 316 314 313 313 313 312 311 310 308 307 306 308 307 306 305 303 301 297 295 292 291 290
318 320 323 322 320 316 321 324 325 324 319 323 326 324 316 318 319 316 317 316 317 316 315 313 313 312 311 311 310 309 307 306 307 307 306 303 302 300 298 294 291 290 290 290
317 320 321 324 322 321 322 323 321 324 325 324 322 323 319 320 320 318 317 316 316 315 314 313 312 311 309 310 309 308 306 306 307 305 303 301 299 297 294 290 290 289 289 290
319 322 320 320 319 320 320 321 320 322 324 324 324 322 321 320 320 319 317 316 315 315 314 313 312 310 309 309 308 306 305 306 305 303 300 298 297 295 291 289 289 289 290 290
319 322 318 318 317 319 320 320 321 322 324 323 322 322 319 317 316 316 317 316 316 315 313 313 312 310 307 307 307 305 305 305 304 301 299 297 295 292 289 289 289 289 290 289
321 321 320 323 316 318 321 321 319 319 319 320 321 322 317 316 316 316 316 315 315 314 313 312 311 309 308 308 306 305 305 304 302 300 298 295 292 289 288 288 289 289 289 289
321 319 318 321 316 325 321 314 319 320 319 318 319 317 317 317 316 314 314 314 313 313 313 312 311 310 309 307 305 305 304 303 301 299 296 292 289 288 288 288 289 289 289 288
316 316 321 319 319 319 315 314 315 319 320 316 317 315 315 313 313 312 311 312 312 312 312 311 311 310 308 305 304 303 303 300 299 298 292 289 288 288 288 289 289 289 288 286
312 319 322 319 319 322 317 314 312 315 319 314 315 315 314 313 318 315 310 311 311 311 311 310 309 308 305 303 303 303 300 298 298 293 289 288 288 288 288 288 288 287 286 285
316 319 324 322 322 317 314 313 313 318 320 314 314 314 313 315 314 310 309 309 309 309 309 309 307 305 303 303 302 300 298 298 294 290 288 288 288 287 287 287 287 286 285 284
319 321 321 320 320 321 312 312 317 315 313 314 313 313 311 310 309 308 308 308 308 308 307 306 304 303 302 302 301 298 296 294 290 288 288 288 287 288 287 286 286 285 284 284
319 319 317 317 318 312 310 312 311 313 312 311 311 310 310 309 308 308 308 307 307 307 306 305 303 303 302 301 297 294 294 290 288 288 288 287 288 288 286 285 284 284 283 283
311 310 315 313 311 310 309 309 310 311 311 311 310 309 309 308 308 307 306 306 305 306 305 304 303 302 301 298 294 293 291 288 288 288 287 288 288 286 285 284 284 283 283 283
313 311 313 312 310 309 309 310 310 310 310 309 309 309 308 308 307 307 306 305 305 305 304 303 301 300 297 293 292 290 288 288 287 287 288 287 286 285 284 284 283 282 282 282
310 313 316 318 313 314 312 309 309 310 309 309 309 308 307 307 306 306 305 305 304 303 302 301 299 296 295 292 289 288 287 287 287 288 287 286 285 284 284 283 283 283 283 283

GFSCGP_850_thetae_021.txt.gz
Theta_e
314 318 319 319 323 324 326 327 327 328 326 327 327 326 325 324 324 325 324 323 322 322 320 320 320 321 321 324 327 329 330 331 331 332 332 328 324 322 324 324 321 317 314 313
316 317 317 316 319 325 325 327 328 326 326 326 326 325 326 326 325 326 325 323 322 321 320 319 319 319 319 319 320 323 327 330 331 327 325 322 320 319 317 315 314 312 309 309
315 315 316 316 321 325 326 328 326 326 326 324 325 327 327 326 326 326 323 323 322 321 320 319 319 319 319 317 316 316 316 317 318 319 318 317 316 315 313 311 309 309 309 310
314 314 312 318 320 325 329 325 325 325 328 329 327 329 328 327 325 322 321 322 322 321 319 319 319 319 318 316 315 315 315 315 316 317 317 317 314 311 309 309 309 310 311 310
312 315 314 319 319 324 326 325 324 326 327 329 329 330 328 327 325 324 322 321 321 320 319 319 319 318 317 315 315 314 314 313 313 312 311 311 310 309 309 309 310 309 308 308
312 314 318 319 319 323 324 324 325 325 327 330 328 329 328 327 325 324 322 321 321 319 319 319 318 317 316 314 314 313 313 312 312 311 311 310 309 309 310 310 309 308 307 307
314 312 316 318 323 324 325 327 331 330 330 329 326 329 328 322 321 322 321 321 320 319 319 318 317 317 316 315 313 312 312 312 312 311 311 310 310 310 310 310 310 309 307 306
319 319 316 316 326 327 327 326 326 330 328 327 322 325 326 321 320 320 321 321 320 319 318 317 317 317 317 315 313 312 312 312 311 310 310 309 310 310 310 310 309 307 306 303
320 319 313 321 324 324 326 327 324 326 325 329 326 325 321 321 320 319 320 321 320 319 318 318 318 317 316 314 313 312 313 312 311 310 309 309 309 309 309 308 307 305 302 300
317 320 312 321 321 321 325 324 328 325 328 328 327 326 326 322 322 320 319 321 320 319 319 318 317 317 315 313 312 312 311 311 310 308 308 308 309 308 307 305 303 301 298 296
318 315 316 321 325 325 325 327 327 326 326 329 328 326 324 322 321 321 320 321 320 319 319 317 317 316 313 311 311 311 311 310 308 307 308 308 307 306 304 302 300 297 293 291
319 321 320 322 317 323 325 326 326 328 327 325 325 325 320 320 320 319 320 319 320 319 318 317 316 315 312 311 309 308 308 307 306 307 307 307 305 304 301 299 296 292 291 291
320 321 325 321 319 320 325 325 327 326 324 327 326 326 320 322 321 318 319 320 320 319 318 317 316 314 311 310 307 306 306 305 306 307 306 304 303 300 299 297 293 291 290 290
319 321 323 325 325 323 326 326 325 327 328 327 326 324 321 322 322 320 319 319 320 319 318 316 315 313 311 309 306 304 303 305 306 306 304 303 301 299 297 294 291 290 290 290
321 322 321 321 322 324 325 325 326 327 327 327 326 324 323 322 322 321 320 319 319 318 317 316 316 314 311 308 305 302 302 305 305 304 303 302 300 297 293 290 290 290 290 290
321 322 321 322 321 321 322 322 324 325 325 324 324 325 324 322 320 321 320 319 319 318 317 316 315 314 311 307 304 301 303 305 304 304 302 300 297 294 290 289 289 290 290 290
321 322 322 324 320 321 323 322 322 322 322 322 325 324 324 319 319 319 320 319 318 317 317 316 315 314 310 306 303 300 302 304 304 302 300 297 294 291 289 289 289 289 289 289
322 322 323 325 320 327 323 318 320 321 322 322 323 322 321 320 318 318 318 318 318 317 316 315 314 312 307 304 301 299 303 303 302 300 297 294 292 289 289 289 289 289 288 288
321 322 323 323 323 323 322 316 318 321 322 321 321 320 318 318 315 314 313 315 314 314 314 313 311 308 304 303 302 303 303 302 299 297 294 292 289 289 289 288 289 289 288 287
320 321 323 322 323 325 319 316 315 319 322 321 321 320 318 316 319 317 311 311 311 311 311 310 308 306 304 300 302 303 302 299 297 295 294 290 289 288 288 289 289 288 287 286
320 321 324 325 325 325 316 315 315 319 322 315 317 318 316 317 317 313 310 309 309 309 309 309 307 303 300 302 302 302 300 297 295 295 292 289 288 288 289 289 288 287 286 285
319 322 323 324 326 326 315 314 318 318 315 315 316 316 315 312 310 309 308 308 308 308 308 306 303 301 302 302 302 300 296 295 296 293 289 288 288 289 289 288 287 286 285 285
323 321 322 323 323 314 313 314 313 316 316 315 314 313 311 310 309 308 307 307 306 306 306 303 302 302 302 302 301 296 296 296 293 289 288 288 289 289 288 287 286 285 284 284
315 312 318 315 314 314 312 311 313 315 314 313 312 311 310 309 308 307 306 306 305 305 304 302 300 301 302 301 299 297 297 293 288 288 288 289 289 288 287 286 285 284 284 284
314 313 316 315 312 312 311 312 312 311 311 310 310 310 309 308 308 306 306 305 304 304 303 302 300 300 299 300 297 296 291 288 288 288 289 289 288 286 285 285 284 284 284 284
312 315 316 318 315 316 314 312 310 310 309 309 309 308 307 306 306 306 305 305 304 303 303 302 300 299 299 297 294 290 288 288 288 288 288 287 286 285 285 284 284 284 284 284

GFSCGP_850_thetae_024.txt.gz
Theta_e
313 315 317 317 317 319 321 323 326 325 326 326 326 325 325 325 325 324 324 324 323 323 321 320 321 323 327 329 329 327 327 328 330 331 331 331 330 327 325 323 319 315 312 310
313 315 314 315 316 318 320 324 326 326 325 326 325 326 325 323 323 324 324 324 323 322 320 320 321 321 324 329 330 331 332 332 332 331 329 325 323 321 317 314 312 309 310 310
312 313 314 314 316 318 318 323 325 324 325 325 324 325 323 322 323 324 325 325 323 322 320 320 319 319 320 323 324 329 330 329 329 326 323 320 316 314 312 309 309 310 311 311
312 312 313 315 315 316 319 319 324 325 327 329 323 326 323 323 323 323 325 325 322 320 320 319 319 319 318 318 318 318 318 318 318 317 316 315 314 310 309 309 310 311 311 310
312 312 313 314 315 315 318 320 323 325 327 328 329 329 326 324 324 324 318 322 321 320 319 319 319 319 318 317 316 316 316 317 318 318 315 311 310 309 310 310 310 309 309 310
312 311 312 312 313 314 314 319 322 326 327 330 326 329 326 325 323 320 318 321 321 320 319 319 319 318 317 316 315 314 313 313 312 312 311 310 310 310 310 309 309 308 308 308
311 311 311 312 314 313 316 321 324 330 332 331 325 326 326 320 320 321 319 321 321 319 319 319 318 318 316 314 313 312 311 311 311 311 310 310 310 310 310 310 310 309 308 307
313 312 314 312 313 319 319 317 327 331 329 324 323 327 324 319 319 321 321 321 320 319 319 318 318 317 316 314 312 312 312 311 311 311 310 310 310 310 310 310 309 308 307 305
317 315 314 313 314 319 318 317 321 326 321 325 323 323 318 318 318 318 320 320 320 319 319 318 317 317 316 314 312 312 311 311 310 310 310 310 310 310 310 309 308 306 304 301
311 316 315 316 317 320 322 322 327 325 327 330 325 324 322 319 318 317 319 319 319 319 318 318 317 317 315 313 313 311 311 311 310 309 309 309 309 309 308 307 306 303 300 296
311 312 318 314 318 319 324 327 325 325 326 329 325 323 319 318 318 317 317 320 319 319 318 318 317 316 314 313 312 311 311 310 309 308 308 308 308 307 306 305 303 301 297 293
311 314 318 319 318 320 324 325 325 325 328 325 322 321 318 317 317 317 317 320 320 319 318 318 317 316 314 312 310 310 309 308 308 308 308 308 307 305 304 303 301 297 294 292
316 319 322 321 323 323 326 325 324 325 324 326 324 320 318 316 316 319 318 320 320 319 318 317 317 315 313 311 309 308 307 307 307 307 307 307 305 304 302 300 297 294 292 291
319 319 319 327 326 324 326 325 324 325 326 325 324 319 320 319 317 317 319 320 320 319 318 317 316 315 312 310 308 306 305 305 306 306 306 305 304 303 301 298 294 291 290 291
319 324 322 323 324 324 324 325 325 326 325 326 325 320 319 319 317 317 319 320 320 319 318 317 316 314 311 309 307 305 304 304 305 305 305 304 303 301 298 294 291 290 290 290
317 322 321 321 324 324 325 325 325 325 324 325 324 323 320 319 320 319 319 320 319 319 318 316 316 314 311 309 306 304 303 304 304 304 304 303 301 298 295 291 290 290 290 291
320 321 323 322 320 321 322 321 324 324 323 324 325 323 321 317 318 318 319 319 319 319 317 316 316 314 311 308 306 303 303 303 303 303 302 301 299 296 291 290 290 290 291 290
319 321 323 325 320 323 321 317 319 320 320 321 320 320 320 316 317 318 319 319 319 318 317 316 316 314 311 308 305 302 301 302 303 302 300 299 296 292 290 290 290 290 290 289
319 322 323 323 321 322 320 316 318 319 320 318 319 319 315 315 316 313 316 317 317 317 316 315 315 313 309 306 304 302 301 302 302 300 298 295 292 290 289 290 290 290 289 288
320 321 321 317 321 324 318 316 314 317 320 315 317 317 315 315 314 311 313 314 314 314 314 314 313 311 307 304 303 302 302 301 300 298 296 293 289 289 289 290 290 289 288 287
322 322 323 322 323 321 316 314 315 319 320 314 317 316 315 313 313 312 311 311 312 312 312 311 309 306 305 303 301 302 301 300 297 296 293 290 289 289 290 290 289 288 287 286
321 322 323 322 324 323 314 314 317 316 315 316 316 315 311 311 310 310 309 309 308 307 307 306 306 303 302 301 301 301 299 297 297 294 290 289 289 290 290 288 288 287 286 285
322 320 322 322 323 315 313 314 314 316 315 315 314 313 312 310 309 308 306 306 306 306 305 304 304 303 301 301 301 300 298 296 295 289 289 289 290 290 289 288 287 286 285 284
317 314 316 316 313 313 313 312 314 316 315 314 313 312 311 309 307 306 306 305 305 304 304 303 302 302 302 301 300 298 296 294 289 289 289 289 290 289 289 288 286 285 284 284
313 311 314 313 312 312 312 312 314 314 313 312 311 310 309 308 307 306 305 304 304 303 302 301 301 301 301 300 298 296 294 290 289 289 289 289 290 289 288 287 285 284 284 284
311 313 314 316 313 314 312 312 312 311 310 310 309 309 308 306 306 305 305 304 303 303 302 300 299 299 299 298 296 295 290 289 288 288 288 289 289 288 287 285 284 283 283 283

GFSCGP_850_thetae_027.txt.gz
Theta_e
313 312 313 312 315 315 315 317 319 321 322 324 324 325 324 323 324 321 324 322 320 322 321 321 320 321 325 326 325 325 325 326 329 333 335 334 334 332 330 329 325 317 312 309
312 313 311 312 313 317 316 317 318 320 322 323 325 325 324 323 322 323 323 324 321 321 321 320 320 324 328 329 329 328 329 331 332 333 334 333 331 328 324 317 311 309 310 311
311 311 311 313 313 315 316 317 317 319 321 321 323 326 324 322 322 323 323 325 321 321 320 320 321 324 329 330 331 331 331 331 330 330 330 326 323 317 313 309 309 310 311 310
312 310 311 313 314 313 316 314 315 317 322 325 324 331 322 322 321 318 320 321 321 320 320 320 320 321 326 330 330 331 331 331 330 327 322 318 314 312 309 310 311 310 311 311
312 311 311 312 313 313 314 314 315 317 320 324 325 328 323 320 321 321 320 319 319 320 320 319 319 319 321 321 325 327 325 324 321 317 315 313 310 310 310 310 310 311 310 310
311 310 312 311 311 312 313 313 315 317 320 325 324 328 324 323 322 320 318 319 318 319 319 319 319 318 318 318 318 318 317 317 317 317 314 310 310 310 311 310 309 309 309 308
311 312 310 311 312 312 313 314 316 318 321 323 322 326 326 320 316 319 316 317 317 319 319 319 319 318 317 317 317 316 316 316 315 312 310 310 310 310 310 310 309 308 308 308
310 310 311 311 312 312 313 313 314 317 321 321 325 327 322 323 316 318 318 317 318 318 319 319 318 317 316 314 314 313 312 311 311 310 310 310 310 310 310 309 309 308 307 305
313 313 312 312 311 311 313 314 312 319 319 325 325 320 317 316 315 317 317 317 317 318 319 319 318 317 315 313 312 311 311 310 310 310 310 310 310 309 309 308 308 307 305 302
311 313 311 309 312 311 315 314 315 317 322 329 323 319 318 317 316 317 317 316 317 317 318 318 317 316 314 312 312 311 310 310 310 309 309 309 309 309 308 307 307 306 303 299
310 312 313 311 316 316 316 318 316 318 318 326 324 322 315 316 316 318 317 316 317 317 318 318 317 316 314 312 312 311 310 310 309 308 308 308 309 308 307 307 306 304 300 296
311 314 315 316 317 317 318 319 318 317 324 323 319 318 314 314 314 316 316 317 317 318 318 317 317 316 314 313 312 311 309 308 308 307 308 308 307 306 306 306 303 299 296 293
312 314 320 320 319 319 319 319 319 320 325 326 321 318 315 313 313 314 316 317 317 317 317 317 317 316 314 313 312 310 308 307 306 306 307 306 306 305 305 303 299 296 292 291
312 316 317 325 325 319 319 322 324 324 326 325 321 319 317 315 315 313 317 317 317 318 317 317 316 315 314 312 311 309 307 306 306 306 305 305 305 305 303 300 296 293 291 291
317 318 320 320 318 322 323 325 324 326 326 326 319 320 317 315 314 314 317 317 317 317 317 317 316 315 314 311 309 307 306 305 304 304 304 304 304 303 301 297 293 291 290 291
316 319 320 324 324 323 324 324 324 324 324 324 324 324 315 315 315 315 317 317 317 316 316 316 316 315 313 311 308 306 305 304 303 303 304 304 302 301 298 293 291 290 291 291
317 319 324 321 322 323 324 323 323 323 322 323 325 321 315 316 315 315 316 318 317 317 317 316 316 315 313 310 308 306 304 303 302 303 303 302 300 298 293 290 290 291 291 290
317 319 322 323 318 322 319 316 320 324 322 320 322 320 316 314 313 316 317 319 318 318 317 316 316 314 312 310 307 305 303 302 302 302 301 300 298 294 290 290 290 291 290 289
316 319 322 320 319 319 319 315 316 318 319 317 320 317 313 313 315 313 316 319 319 318 317 316 316 314 311 309 306 304 302 301 301 301 299 298 295 290 290 290 291 290 289 288
318 319 320 312 318 322 317 314 313 315 318 314 314 314 313 313 315 310 314 317 317 317 317 316 315 312 310 306 305 303 301 301 301 299 298 295 290 289 290 291 290 289 288 287
320 321 322 319 321 318 316 313 314 319 317 313 314 314 313 312 312 312 314 315 316 316 315 314 312 310 308 305 303 301 302 301 298 297 295 290 289 290 291 290 290 289 287 287
320 322 322 319 322 319 314 313 316 313 314 314 312 313 310 310 310 311 312 313 313 313 311 311 309 307 304 303 302 302 301 298 297 295 290 289 290 290 290 290 289 288 286 285
319 318 322 320 319 314 313 314 315 315 315 312 312 311 313 310 310 310 310 310 309 309 308 307 306 304 301 300 300 301 299 296 295 291 289 289 290 290 290 289 288 286 285 284
316 315 317 317 315 312 312 313 315 315 315 314 313 312 312 310 309 307 306 306 306 305 305 304 303 302 300 300 300 298 297 295 291 289 289 289 290 291 290 288 286 286 284 283
313 312 314 312 311 311 312 312 314 313 313 312 311 311 310 309 307 306 305 304 304 303 303 302 302 301 301 300 299 297 295 290 288 288 289 289 290 290 289 287 286 284 283 283
309 312 315 316 312 312 312 313 313 313 312 311 310 308 307 307 306 305 304 303 303 302 301 300 300 301 300 299 296 295 290 288 288 289 289 289 289 289 287 286 286 284 283 282

GFSCGP_850_thetae_030.txt.gz
Theta_e
312 312 312 311 313 314 314 314 315 316 317 319 321 322 321 322 323 320 321 323 323 323 321 321 321 321 320 321 322 323 323 323 324 331 334 336 333 332 331 330 329 328 321 311
311 313 312 310 310 314 315 316 316 314 315 318 320 321 321 321 322 322 322 322 323 320 320 321 321 320 321 322 324 324 323 321 326 330 335 335 333 332 330 329 323 311 310 310
311 310 310 311 312 313 313 316 315 315 315 314 315 319 321 321 322 322 322 323 322 321 321 321 321 321 324 325 325 327 328 331 332 333 334 333 332 331 327 316 310 310 310 311
311 310 311 311 312 312 314 313 315 314 315 316 319 324 321 321 322 321 322 321 321 320 321 321 321 324 327 327 328 328 330 331 332 332 332 332 330 324 313 309 310 311 310 310
311 310 311 311 311 312 313 312 313 315 315 316 315 319 321 321 322 322 320 320 321 321 321 321 321 325 328 328 329 330 330 330 330 328 324 323 317 311 310 310 310 310 310 310
311 310 311 311 310 311 313 313 314 314 316 320 315 318 319 322 321 320 320 318 319 318 320 321 322 325 329 329 330 329 330 329 327 321 316 314 311 310 311 310 310 310 310 309
311 311 310 311 312 311 311 313 315 316 316 315 313 318 317 319 319 319 319 318 318 318 319 320 321 323 324 326 328 327 327 323 317 315 313 310 310 310 310 310 310 310 309 308
304 306 310 310 311 312 312 312 315 313 311 312 320 322 320 318 318 319 318 318 316 317 318 319 319 320 320 319 320 319 317 317 316 315 311 309 310 309 309 310 309 308 308 306
308 309 311 310 310 311 311 313 311 313 315 318 319 320 319 318 315 314 315 315 316 317 318 318 318 318 318 317 317 317 317 316 314 311 310 309 309 309 310 309 308 308 306 304
309 309 311 311 310 311 311 310 312 313 311 318 322 320 316 317 315 314 315 315 316 316 317 318 317 317 316 316 315 314 313 312 310 309 309 309 309 309 309 308 307 306 304 301
309 312 311 311 310 312 312 311 312 311 313 319 326 324 317 318 316 315 315 316 316 316 317 318 317 316 314 313 312 310 310 310 309 309 309 309 308 308 307 307 306 304 301 297
310 313 313 312 312 310 310 311 312 313 312 315 318 318 314 313 316 316 315 315 316 316 317 318 317 315 313 312 311 310 309 308 308 307 308 307 307 306 306 306 304 301 297 293
311 314 315 318 313 315 312 314 312 313 317 315 318 317 313 310 313 315 314 315 315 316 317 317 316 314 312 311 311 309 308 307 306 306 307 306 306 305 306 304 301 298 293 291
311 313 315 320 321 319 319 315 316 314 316 314 318 319 317 313 313 313 314 315 315 316 317 317 316 314 313 312 311 309 307 306 305 305 305 305 305 305 304 302 298 293 291 291
312 316 313 313 314 316 319 319 319 317 316 316 315 318 319 314 312 314 315 315 314 315 315 316 316 315 313 312 311 308 307 305 304 304 304 304 304 303 302 298 293 291 291 292
314 315 313 318 322 319 322 320 320 319 318 314 323 324 315 312 312 313 314 315 315 315 315 315 316 315 314 312 310 308 306 304 303 303 303 304 303 301 298 294 291 291 291 291
316 316 317 324 321 322 324 317 323 317 321 325 327 321 315 315 313 313 314 315 315 315 315 316 316 316 314 312 310 308 306 304 303 302 303 302 300 298 294 291 290 291 291 290
315 316 321 323 317 322 319 314 321 323 322 321 320 317 315 314 312 315 316 316 316 316 315 315 316 315 314 312 309 307 304 303 302 302 302 300 298 296 291 290 291 291 290 289
318 316 323 321 318 318 317 314 317 322 322 318 320 314 312 312 314 313 315 317 317 317 316 316 316 315 314 311 308 305 303 302 301 301 300 299 297 291 290 291 291 290 290 288
316 316 322 313 317 322 317 314 312 314 318 314 314 312 312 312 316 312 314 316 317 316 316 316 316 314 312 308 306 304 302 301 301 301 299 297 292 290 291 291 291 290 288 287
320 319 321 317 319 317 315 313 313 319 315 313 313 313 313 313 311 313 312 314 316 316 316 315 315 313 310 306 304 302 301 301 300 298 297 292 289 291 291 291 290 289 287 287
319 319 320 320 319 317 313 312 316 311 313 312 311 312 311 310 312 311 312 314 314 315 315 314 313 309 306 304 303 302 301 300 298 297 293 289 290 291 291 290 289 288 287 286
320 316 320 316 317 313 313 313 314 314 314 311 311 311 312 310 310 311 311 312 312 312 311 309 309 305 302 301 301 302 301 298 297 294 289 290 290 290 290 289 288 287 286 285
314 313 317 318 316 314 313 313 315 314 314 312 311 311 312 311 310 310 310 309 309 309 309 307 306 303 301 300 300 300 299 297 294 289 289 290 289 289 289 289 287 286 285 283
313 313 313 313 311 311 312 312 314 314 313 312 310 311 311 311 309 309 307 307 306 305 304 304 304 302 301 300 299 298 296 294 289 289 289 289 289 289 290 288 287 285 283 282
309 313 317 317 313 313 311 312 313 313 311 311 312 309 309 309 308 306 305 304 304 303 302 302 301 301 301 299 298 296 293 289 288 288 288 288 289 289 288 287 286 284 283 282

GFSCGP_850_thetae_033.txt.gz
Theta_e
311 311 311 311 311 313 313 313 313 314 314 314 315 317 318 318 319 320 321 323 324 323 324 324 322 321 321 321 321 325 330 333 334 333 336 337 335 333 333 332 330 328 328 325
311 312 310 309 309 312 313 314 314 313 313 313 313 314 314 312 314 318 320 321 322 324 324 322 321 321 321 320 321 322 323 326 329 331 333 335 334 332 331 329 329 328 318 310
311 310 309 310 311 311 311 312 312 313 313 313 313 313 311 313 316 318 320 321 321 321 324 322 321 321 321 320 321 322 323 323 323 328 332 334 333 331 330 328 328 316 310 310
311 310 310 310 310 311 312 311 312 313 315 313 314 315 313 314 315 317 319 321 321 322 323 322 321 321 321 322 323 324 324 322 326 331 332 334 334 332 330 327 315 310 310 310
311 310 310 311 310 311 312 311 312 314 313 312 313 312 311 314 315 317 317 320 321 322 322 322 321 321 322 324 325 327 329 331 332 333 333 333 332 331 326 313 310 310 310 310
311 310 310 310 310 310 311 312 313 314 313 314 312 313 312 311 315 317 317 319 321 322 322 321 321 322 324 326 327 329 331 331 332 331 331 330 329 324 313 310 310 310 310 310
311 311 310 310 311 310 310 313 315 315 317 314 311 313 313 310 314 316 317 318 320 321 319 320 320 325 326 328 329 329 330 330 329 327 324 322 318 311 310 310 310 310 309 309
307 306 308 309 311 311 311 311 314 315 315 312 312 314 313 311 311 312 313 316 318 316 318 319 321 324 326 327 329 329 329 329 326 320 315 312 310 310 310 310 310 309 309 308
308 307 308 308 309 310 311 313 310 312 314 316 314 312 310 312 313 313 314 316 316 316 317 318 322 324 326 327 327 327 327 326 318 314 312 309 309 309 309 309 309 308 308 306
306 306 309 310 309 310 310 309 312 313 312 314 312 315 313 311 311 310 312 312 314 315 316 317 321 323 324 325 325 323 322 318 315 313 309 309 308 308 308 308 308 308 306 302
307 310 311 311 311 312 312 312 311 309 310 312 312 314 314 313 311 310 312 313 315 315 315 316 318 320 320 320 319 318 316 315 313 309 308 308 308 308 307 307 307 306 303 299
308 311 312 310 310 310 311 311 311 311 308 310 315 314 312 310 310 312 314 314 315 314 313 315 318 317 317 316 316 315 314 312 310 308 307 307 307 307 307 307 306 303 300 295
310 312 313 314 312 311 313 312 311 310 310 310 309 309 312 310 312 313 315 315 315 314 314 315 316 315 315 314 313 312 310 308 307 307 307 307 306 306 306 305 303 300 295 292
311 313 313 315 316 313 315 313 311 311 312 312 312 311 310 310 313 312 314 315 314 315 315 316 315 314 313 311 310 308 307 306 306 305 306 306 305 305 305 303 300 296 292 291
312 313 313 313 313 314 315 313 312 312 311 313 312 313 312 312 314 314 314 313 314 314 314 315 315 313 311 310 308 307 306 305 305 304 305 305 304 304 303 301 297 293 291 291
313 314 313 314 315 315 317 315 313 314 311 313 316 315 314 312 314 312 313 314 314 314 314 315 314 313 311 310 308 307 306 304 304 304 304 303 304 302 300 297 294 291 291 292
313 313 316 320 317 319 320 319 314 315 314 313 317 316 313 313 313 313 313 314 314 314 315 315 316 314 312 310 309 307 306 304 303 302 302 303 302 300 298 295 291 291 292 292
315 316 316 321 318 323 319 317 316 317 317 316 316 316 315 316 312 314 314 314 314 315 315 315 315 314 313 311 309 307 305 303 302 301 302 301 300 299 296 291 291 292 292 291
315 317 321 323 317 318 315 317 316 316 316 315 316 316 313 311 313 312 314 315 315 316 316 316 316 315 314 312 309 307 304 303 301 301 301 300 299 297 291 290 292 292 291 290
315 317 319 318 317 321 317 313 312 312 321 316 316 315 311 312 317 315 314 315 315 316 316 316 316 315 313 310 308 306 304 301 300 300 300 299 297 292 290 291 291 291 291 289
319 318 320 316 319 316 314 312 311 317 314 312 312 313 311 314 313 312 313 315 316 316 316 315 314 315 312 310 307 304 303 301 300 300 298 297 292 290 291 291 291 291 290 288
319 316 318 319 319 316 311 311 315 311 312 311 311 312 310 308 308 310 312 313 314 314 314 314 314 312 310 307 305 303 301 300 299 298 297 293 289 290 291 291 290 289 288 287
317 315 316 316 316 312 312 312 313 313 312 311 310 310 312 308 307 308 309 311 312 313 313 312 313 310 306 304 303 302 300 300 298 296 293 289 290 290 290 290 290 289 287 285
313 311 316 317 314 313 312 313 314 313 312 310 310 310 312 310 307 307 308 309 311 311 311 310 309 306 302 301 301 301 300 298 296 294 289 289 289 289 290 290 289 287 285 284
312 312 313 313 311 311 312 312 313 313 312 310 309 309 310 311 308 309 309 309 309 309 308 308 307 305 302 299 299 298 297 296 294 289 289 289 289 289 289 289 287 286 284 283
309 313 316 317 313 313 311 312 313 313 311 310 311 309 309 312 311 310 309 309 309 308 306 305 303 302 300 299 299 297 295 292 289 288 289 288 288 289 289 288 287 284 283 282

GFSCGP_850_thetae_036.txt.gz
Theta_e
311 310 312 311 309 310 312 313 312 312 312 312 313 313 313 313 315 316 317 319 319 321 324 324 324 324 324 322 322 322 322 325 330 335 335 336 337 335 334 334 333 332 328 327
310 311 309 308 308 311 311 313 313 311 311 312 312 313 312 312 312 314 315 317 319 321 322 324 324 323 323 321 321 321 321 327 331 334 335 336 336 334 334 333 331 328 327 326
310 309 309 310 310 310 310 311 311 310 310 310 311 311 308 309 310 311 312 313 316 319 321 322 323 324 322 321 321 320 320 324 330 333 334 335 335 333 332 330 326 325 320 311
309 309 310 309 310 309 311 309 310 311 311 311 310 313 310 310 309 308 310 314 316 318 320 321 321 322 322 321 321 320 321 322 324 330 333 334 335 332 329 326 324 325 311 310
310 310 310 311 310 309 310 310 310 311 312 311 311 311 308 309 309 310 311 314 316 317 318 320 322 322 323 321 321 322 323 324 323 327 331 333 333 329 328 324 322 314 309 310
310 309 309 309 309 309 310 311 311 312 314 316 311 311 311 309 308 309 311 314 317 319 320 320 321 322 322 321 323 324 324 323 323 327 331 330 332 329 327 321 313 309 310 310
311 311 310 310 311 309 309 312 312 312 314 312 309 311 311 308 308 309 309 313 316 318 319 320 321 321 321 322 324 326 327 327 329 329 329 329 329 329 326 316 309 310 310 309
310 306 310 310 310 309 309 310 309 309 312 311 310 312 310 309 309 310 310 312 314 317 318 320 320 321 321 322 325 327 329 330 329 328 328 327 325 320 311 309 309 309 309 308
310 307 306 307 309 309 311 311 309 311 309 311 313 310 309 308 308 308 310 311 310 311 316 318 318 320 322 323 326 328 329 330 329 327 324 319 313 309 309 309 309 308 308 308
306 303 306 308 308 309 311 310 313 312 313 312 310 309 310 309 309 308 308 309 313 315 315 316 317 320 324 326 327 328 328 328 326 320 315 310 308 308 308 308 308 307 308 306
306 307 307 310 311 311 312 311 312 311 311 308 308 308 308 311 312 313 310 308 310 313 316 316 317 321 325 326 327 327 327 326 320 313 310 308 308 307 307 307 307 307 306 303
308 310 310 308 309 310 310 311 311 313 309 309 307 309 311 310 311 312 311 311 312 314 315 315 316 321 323 325 325 325 322 321 314 311 308 307 307 307 306 307 307 306 304 302
308 311 309 307 312 310 311 311 311 311 312 310 307 308 307 308 309 312 313 313 313 313 312 313 315 320 321 321 321 319 317 314 312 308 307 306 306 306 306 306 306 304 302 298
309 312 311 313 313 313 313 312 310 311 313 311 309 308 307 308 311 311 314 315 313 311 311 311 314 317 319 318 317 315 313 311 308 306 305 306 305 306 306 305 304 302 299 295
311 314 313 313 313 313 313 314 312 312 311 310 310 310 310 310 311 311 313 315 313 311 310 311 312 315 315 314 312 310 309 307 306 305 305 305 305 305 304 303 302 298 295 292
312 315 314 314 314 315 315 314 314 312 312 310 310 310 310 312 312 311 312 314 314 311 310 310 312 313 312 311 309 308 306 305 304 304 304 304 304 304 303 301 298 294 292 292
314 313 315 317 316 317 321 316 316 313 312 311 311 311 310 311 313 313 312 313 314 312 311 311 313 313 312 310 308 306 305 303 303 303 303 303 303 302 301 298 294 292 292 293
314 315 314 317 319 323 318 316 315 314 313 311 311 311 313 314 314 313 313 314 314 313 312 312 313 311 309 308 307 306 304 303 302 302 302 302 302 300 298 295 292 292 292 292
311 315 319 322 321 318 316 316 315 313 315 313 314 313 312 314 311 312 313 314 315 315 315 316 314 313 311 309 308 306 304 302 301 301 301 301 300 298 295 292 291 292 292 292
312 314 318 319 321 321 316 311 314 314 322 316 314 314 313 311 314 313 313 314 314 315 316 316 315 313 312 309 308 306 304 301 301 300 300 299 297 295 292 291 292 292 292 291
318 318 319 320 320 317 314 312 314 317 314 313 314 314 316 313 312 309 312 314 315 315 315 315 314 314 313 310 308 305 303 301 300 299 298 297 295 293 291 291 291 291 291 290
317 318 318 317 318 316 311 311 314 310 311 312 312 313 315 317 313 309 312 314 314 314 313 313 314 313 311 309 307 304 302 299 298 297 296 295 293 290 291 291 291 291 290 289
316 314 315 315 314 311 313 312 313 312 311 310 310 310 311 310 306 306 309 311 312 313 313 312 313 312 309 306 304 303 300 298 297 297 296 293 290 290 290 290 290 290 289 287
312 310 314 315 314 312 312 312 312 312 310 310 309 309 309 308 306 307 308 309 310 311 311 311 311 309 305 302 301 301 299 298 297 296 293 289 289 289 289 290 290 289 288 285
311 311 313 313 311 311 313 311 312 311 310 309 308 308 308 309 307 307 307 308 309 309 309 308 308 305 301 299 299 298 298 297 296 293 289 289 289 289 289 289 289 288 285 283
308 313 314 315 314 313 311 311 310 311 310 309 310 307 306 308 309 308 307 307 308 308 307 305 303 302 299 298 298 297 296 295 291 289 289 289 288 288 289 289 288 285 283 283

GFSCGP_850_thetae_039.txt.gz
Theta_e
310 312 313 312 310 310 311 312 313 312 311 312 312 313 313 312 312 312 313 314 315 317 319 321 324 324 324 323 324 323 322 322 323 324 330 335 335 336 336 335 333 332 332 329
310 312 310 308 309 310 310 311 312 310 310 311 311 312 311 311 311 311 311 312 313 314 316 319 321 324 324 324 323 322 322 323 323 325 329 335 335 335 335 333 332 330 329 327
310 309 309 309 310 310 310 312 311 310 310 310 310 311 310 309 309 309 310 311 311 312 313 316 318 321 323 324 323 322 322 322 322 325 331 334 335 334 332 331 330 327 326 324
310 309 309 309 310 310 311 309 310 311 311 311 309 312 310 309 309 309 308 309 310 311 311 312 316 319 321 323 322 321 321 321 323 328 332 334 335 333 331 331 329 324 319 317
309 309 310 310 310 309 310 309 310 310 312 311 311 312 312 308 309 309 309 310 310 310 311 311 313 317 320 322 322 321 321 321 322 328 332 334 334 332 331 327 325 320 316 311
309 308 309 309 308 309 309 309 311 312 313 314 312 312 312 311 310 310 309 309 310 312 314 315 313 316 319 321 321 321 321 322 323 325 330 332 333 332 328 324 320 318 311 309
312 312 311 310 311 309 310 313 312 311 313 311 309 312 312 309 308 308 308 308 310 312 312 315 318 317 319 320 321 321 322 323 323 324 328 331 332 331 326 322 319 315 309 309
311 309 310 311 311 310 311 311 311 308 310 310 309 313 311 308 309 309 309 309 310 310 312 316 317 319 319 321 321 322 323 324 323 324 327 329 329 325 322 317 310 308 309 309
310 309 305 308 308 310 310 311 310 309 309 310 310 309 309 309 309 308 308 309 309 311 313 311 318 318 319 320 322 322 323 325 324 326 328 326 324 321 315 309 307 308 309 309
309 310 304 307 308 308 309 309 311 311 313 313 310 310 310 309 308 309 311 313 312 308 310 312 313 318 319 321 323 325 326 327 327 325 324 324 320 312 308 307 308 308 309 309
307 307 306 309 309 308 310 310 312 312 313 313 312 310 306 308 309 312 312 313 313 309 309 313 314 317 318 322 324 326 327 328 326 324 322 318 311 307 307 307 308 308 308 307
308 309 307 307 307 308 309 311 310 312 313 312 312 311 310 310 311 312 313 313 314 313 310 314 315 317 318 322 325 326 326 326 324 320 315 310 307 306 307 307 307 307 306 305
308 310 310 306 309 309 311 311 310 311 311 313 312 310 307 308 307 309 312 314 313 312 312 313 314 316 318 321 324 324 324 322 318 312 308 306 306 306 306 307 307 305 304 301
308 310 307 310 310 311 312 312 310 311 313 312 312 310 308 307 308 310 310 314 312 310 310 311 311 314 318 321 322 322 319 317 312 307 306 306 305 305 306 306 305 303 301 298
309 313 311 311 311 312 313 313 312 312 311 313 311 310 309 309 310 309 311 313 312 309 307 308 309 312 316 318 319 317 315 311 308 306 305 305 305 305 305 304 302 300 298 295
311 314 314 314 314 314 315 315 314 315 312 311 311 311 310 307 311 311 311 313 313 309 307 307 309 312 316 317 315 312 310 308 306 305 304 304 304 304 303 302 300 297 294 293
313 313 315 315 315 316 321 318 315 314 312 312 313 312 309 309 310 312 313 313 314 309 307 306 309 313 314 314 314 311 308 306 304 304 304 303 303 303 301 299 297 294 293 293
313 313 315 316 317 321 318 315 316 315 314 312 311 310 310 311 312 313 313 312 314 310 309 309 311 311 312 311 309 308 306 304 303 302 302 302 302 301 299 297 295 293 292 292
311 313 318 320 320 317 316 313 316 316 317 313 312 311 310 311 314 311 312 313 314 313 312 311 311 312 310 309 307 306 303 302 301 302 301 301 300 299 297 295 293 292 292 292
311 311 315 317 321 321 316 312 312 312 321 313 311 312 313 313 315 311 311 313 313 313 314 313 312 310 309 307 305 303 301 301 301 300 300 299 298 297 295 293 292 292 292 292
316 314 315 317 320 315 314 310 313 317 318 310 313 313 313 314 310 309 311 312 313 314 314 312 311 310 308 305 303 302 301 300 300 299 299 298 297 295 295 291 291 291 291 291
318 319 318 317 318 317 312 310 313 310 312 312 312 313 315 312 311 311 311 311 311 312 311 312 312 309 306 304 303 302 300 299 299 298 298 297 297 294 291 291 291 290 290 290
315 313 313 313 314 311 313 312 312 312 310 311 310 311 312 310 309 312 312 312 312 312 312 312 311 308 305 303 303 303 300 299 298 298 297 296 293 290 290 290 290 290 289 288
311 309 313 314 313 311 314 313 311 311 310 309 309 309 310 311 309 310 307 308 309 308 309 309 309 306 303 302 301 302 300 298 298 297 296 293 290 290 289 289 289 289 287 285
310 310 312 313 312 312 312 311 310 309 307 308 307 308 309 310 307 309 308 306 306 307 307 308 308 306 303 300 299 299 298 297 297 295 292 289 289 289 289 289 289 288 285 284
308 311 314 315 313 312 310 311 310 309 307 307 308 306 306 309 308 308 306 305 306 307 306 306 305 303 299 298 298 297 296 295 295 292 289 289 288 288 288 289 288 285 284 283

GFSCGP_850_thetae_042.txt.gz
Theta_e
313 314 315 315 315 315 314 315 315 314 313 313 314 314 314 313 313 313 314 315 315 317 318 319 320 321 322 320 320 324 324 324 323 323 333 335 333 335 336 336 334 334 333 331
313 313 313 312 313 313 314 314 315 313 312 312 313 313 313 313 313 313 313 313 312 313 314 316 318 320 322 322 323 323 324 324 323 324 327 331 333 334 336 336 333 334 332 331
314 312 310 312 312 313 313 314 314 313 312 312 313 315 316 313 312 312 312 311 312 312 312 313 314 317 321 322 323 324 324 324 323 325 329 328 332 334 335 334 333 331 331 329
313 312 311 311 312 312 314 312 312 312 313 315 312 317 315 315 315 314 313 312 312 312 312 312 313 314 319 321 323 324 323 323 322 323 325 327 331 335 334 332 331 329 328 326
312 312 312 311 311 311 312 311 311 312 312 312 313 313 314 313 313 313 313 312 312 312 312 313 313 313 315 319 321 322 322 321 322 322 324 329 332 333 332 330 328 327 325 316
311 310 310 311 311 311 311 311 312 312 313 315 313 314 314 313 312 312 313 312 312 312 312 312 312 313 314 318 318 320 321 321 321 322 326 330 331 333 332 329 326 325 317 313
312 312 311 310 311 311 311 313 315 315 315 314 311 313 313 312 312 312 312 311 312 312 312 313 314 315 316 317 317 320 321 321 321 323 327 330 332 332 331 329 326 323 317 309
314 315 312 312 312 312 312 312 314 314 313 311 311 313 313 312 312 312 311 310 312 313 313 312 314 317 317 318 317 320 321 321 322 323 326 329 330 331 330 327 323 315 310 308
314 312 309 311 311 311 311 313 311 313 312 312 310 311 312 312 311 311 311 312 313 313 313 313 313 316 318 320 317 320 321 322 322 323 325 327 329 329 328 321 314 312 307 308
311 314 308 309 310 310 311 310 311 313 312 314 313 313 313 312 311 311 311 313 312 313 315 313 312 315 319 321 319 321 321 322 322 322 324 326 328 325 318 315 310 307 307 308
310 310 310 308 310 311 310 311 311 311 313 314 315 315 312 310 310 310 313 312 312 314 315 312 312 316 319 320 320 319 319 320 321 322 325 326 321 316 315 308 306 307 307 307
310 310 311 310 310 309 310 311 310 314 314 313 314 315 311 310 311 313 312 310 312 314 314 314 315 317 318 317 316 318 319 320 321 323 323 320 318 314 308 305 306 307 306 305
310 310 313 314 312 309 310 311 311 312 312 314 316 315 311 311 312 311 310 310 311 313 312 312 312 313 315 313 312 316 320 322 323 321 320 318 311 305 305 306 306 306 305 303
309 312 313 316 313 313 314 313 312 311 314 314 315 313 312 310 311 311 310 310 313 314 311 311 311 312 311 309 313 319 322 322 321 319 315 309 305 305 305 305 305 304 303 301
309 314 311 312 312 312 314 314 313 313 312 314 314 314 313 312 311 310 310 311 314 313 310 309 309 309 305 307 316 320 320 317 316 312 307 305 304 304 305 305 303 302 300 298
310 313 313 314 313 314 316 316 317 317 317 314 314 314 312 312 310 311 312 312 313 314 308 307 305 303 301 309 316 316 316 312 308 305 305 305 304 304 304 303 301 299 297 295
312 311 314 315 315 316 322 320 318 317 313 314 316 313 312 312 313 311 312 313 314 312 307 305 302 300 305 311 316 314 311 307 304 304 304 304 304 303 302 300 299 297 295 293
313 313 315 317 316 322 318 317 316 317 316 313 314 313 313 312 311 312 312 312 315 310 306 303 300 302 307 311 311 311 305 303 303 303 303 303 302 302 300 298 296 295 293 293
311 313 316 318 318 317 318 316 316 318 318 317 316 315 314 312 313 312 312 314 312 309 305 304 307 308 307 309 307 304 302 302 302 302 302 302 301 300 298 296 294 293 292 292
311 311 314 316 317 320 319 315 313 315 323 313 314 315 314 315 319 313 311 312 309 306 305 305 305 305 307 304 304 304 302 301 301 302 301 300 299 298 296 294 293 292 292 291
315 314 314 314 317 318 317 312 314 320 321 312 313 315 315 317 311 308 310 309 308 309 309 308 308 308 308 306 304 303 301 301 301 300 300 299 297 296 295 292 291 291 291 291
317 317 315 315 319 320 314 315 318 314 313 312 311 313 313 309 307 308 308 310 306 306 309 310 309 307 305 304 303 302 301 300 300 299 299 297 296 293 292 291 291 290 290 290
317 317 318 317 318 316 313 315 314 311 311 311 309 311 313 313 307 308 309 309 308 308 308 309 308 306 300 300 301 302 301 299 299 298 297 295 294 292 290 290 290 290 290 289
315 313 317 317 318 316 315 312 311 310 309 307 308 309 309 309 308 309 309 309 306 306 305 305 304 301 300 300 301 302 299 298 297 297 295 294 292 290 289 289 289 290 289 286
315 314 317 317 317 316 313 310 310 309 308 306 306 307 307 308 307 307 306 307 307 305 305 304 303 303 301 299 299 299 298 296 296 295 294 291 289 289 289 289 289 289 286 284
313 317 318 319 316 315 312 309 309 308 306 305 305 305 304 305 306 305 304 306 306 306 306 304 303 302 299 298 298 296 295 295 296 294 290 289 288 288 288 289 288 286 284 283

GFSCGP_850_thetae_045.txt.gz
Theta_e
314 315 317 317 316 317 316 317 318 318 317 316 316 316 316 316 315 316 316 316 317 318 319 320 320 322 322 322 324 325 325 325 326 329 334 337 337 336 337 336 336 332 331 331
314 316 315 315 315 316 316 317 317 316 315 314 315 315 315 316 316 315 315 315 315 315 316 317 318 320 321 322 324 323 324 325 326 329 331 336 336 335 336 336 334 331 332 332
316 315 313 314 314 315 315 316 316 316 315 314 315 316 317 318 317 316 315 315 315 315 315 315 315 317 319 321 322 323 323 325 326 329 333 335 335 335 335 334 332 333 332 331
315 313 312 313 314 314 315 314 314 314 315 318 314 319 316 316 317 316 315 315 315 314 314 314 315 315 315 318 322 323 324 326 329 331 331 331 329 330 329 331 332 332 331 330
315 313 313 313 313 313 314 312 313 313 313 313 315 316 316 315 315 315 316 315 314 314 314 314 314 314 314 315 319 323 324 326 330 329 331 328 328 325 328 331 331 331 330 329
313 312 312 313 312 312 312 312 312 312 313 317 315 316 316 314 314 314 314 314 314 313 313 313 313 313 314 314 317 323 324 327 329 329 326 325 326 325 327 331 330 329 328 326
313 312 311 311 312 312 312 313 317 318 316 316 313 314 314 314 314 313 314 313 312 312 312 313 313 314 314 314 314 322 325 326 327 325 325 325 326 325 328 331 330 328 326 323
314 317 313 312 312 313 313 313 316 318 317 315 313 313 313 314 313 313 313 313 312 312 313 314 315 314 314 315 315 321 325 325 324 323 325 327 324 325 328 330 329 326 323 316
315 315 311 313 312 312 313 314 312 313 312 313 312 312 313 313 314 313 313 312 312 312 313 315 315 315 315 318 317 320 324 323 322 323 325 323 323 326 329 328 326 322 316 310
313 316 311 311 311 312 312 312 312 313 314 315 314 315 316 315 315 314 312 312 312 313 314 314 314 315 314 317 319 322 323 322 321 322 320 318 321 327 328 327 320 316 314 309
312 312 311 310 311 313 312 312 312 312 313 315 317 316 316 314 313 312 312 312 313 312 314 315 314 314 315 318 321 322 322 320 319 317 315 316 321 325 325 319 311 310 308 306
311 312 313 312 311 310 311 312 311 313 315 314 315 316 313 313 312 312 312 312 312 311 314 314 315 315 318 321 322 322 319 317 314 311 313 318 323 320 316 309 311 307 305 305
311 312 314 316 312 311 311 311 311 312 313 315 316 316 313 313 313 311 312 311 311 310 313 314 315 317 319 321 320 318 314 311 310 311 316 319 316 313 310 312 308 305 305 304
310 312 314 318 316 313 314 313 313 312 315 315 316 315 314 314 314 313 311 311 311 311 315 314 314 315 316 317 315 313 309 307 308 310 313 313 310 311 310 304 304 305 303 303
310 313 313 313 312 312 314 315 315 315 314 314 314 315 315 315 315 313 312 311 310 313 315 313 313 313 313 313 310 305 303 303 310 312 311 310 308 305 303 304 303 303 302 301
310 313 312 313 313 314 317 316 317 318 318 317 317 316 314 314 313 313 311 311 312 312 313 310 311 310 306 303 302 300 300 304 309 311 310 305 303 302 303 304 303 302 300 299
312 312 314 315 315 316 321 320 319 318 317 317 317 316 314 313 313 313 312 312 313 313 310 308 307 303 300 302 299 298 303 309 309 308 305 303 302 303 303 302 301 299 299 297
313 313 313 315 316 322 318 318 317 318 317 318 317 316 315 315 313 313 312 315 313 309 307 304 301 299 300 299 297 299 306 307 305 304 303 301 302 303 301 301 299 298 297 295
312 314 315 316 317 316 317 318 316 318 319 315 317 318 317 315 313 312 312 313 311 307 304 301 298 299 298 299 299 299 301 301 302 301 301 301 302 301 300 299 297 298 296 293
312 312 315 315 316 317 319 316 314 317 323 316 314 317 318 318 317 313 310 309 306 302 301 300 300 300 300 299 300 303 301 303 304 301 300 300 300 300 298 297 302 295 292 292
313 313 313 312 315 315 316 315 316 321 321 314 313 313 317 315 312 311 309 306 305 303 303 302 301 303 302 301 301 300 298 296 298 300 300 300 299 297 299 300 293 292 291 291
316 315 315 317 317 317 316 317 320 317 315 313 313 312 311 310 308 307 306 303 302 301 301 300 298 298 297 297 298 297 299 300 301 300 300 299 300 302 296 293 291 291 290 290
317 317 319 316 317 316 316 316 316 314 313 313 311 312 313 310 309 308 304 308 303 302 301 299 299 298 298 300 304 304 301 300 300 300 300 299 297 294 292 291 290 290 290 290
316 315 317 318 319 318 317 317 313 310 311 309 308 309 314 311 307 304 302 303 305 304 305 304 304 304 303 302 301 302 300 300 300 299 297 296 294 292 290 290 289 290 290 287
316 316 318 318 318 318 314 312 311 308 307 305 305 306 310 312 306 304 305 303 301 302 300 298 299 301 300 299 299 300 299 297 297 297 296 294 291 290 289 289 289 289 287 285
316 317 319 319 317 317 314 310 309 307 305 303 303 304 305 305 305 302 299 300 301 299 297 298 300 300 299 299 299 297 297 296 297 296 293 290 289 289 288 289 289 288 286 285

GFSCGP_850_thetae_048.txt.gz
Theta_e
318 318 318 317 317 316 316 317 317 317 316 315 314 314 314 315 315 315 316 317 318 319 320 320 320 321 320 321 323 327 326 326 326 329 336 338 335 340 336 335 335 335 332 331
315 315 315 315 316 316 316 316 316 315 315 314 313 314 313 314 314 314 314 315 315 316 317 317 319 320 320 321 321 322 325 326 325 324 328 336 337 337 336 335 335 335 333 332
315 314 314 314 315 315 315 315 315 315 314 313 313 314 314 315 314 314 315 315 315 315 315 315 316 317 318 320 321 322 322 325 325 325 327 335 337 336 336 336 335 334 333 332
314 314 312 313 315 314 315 314 314 314 314 315 312 315 313 313 313 314 315 316 316 315 315 315 315 315 315 316 319 321 322 323 324 325 328 333 335 335 336 334 334 334 331 330
315 314 313 313 314 313 314 313 313 313 312 311 313 312 313 314 313 313 312 315 315 315 315 315 314 314 314 315 316 318 320 323 323 326 329 332 334 334 332 333 334 332 328 329
314 312 313 313 312 312 312 312 312 312 312 314 312 313 313 313 312 311 310 314 315 314 314 314 314 314 314 314 314 315 319 322 323 327 331 333 330 331 332 333 332 331 328 326
312 312 311 312 313 312 312 312 313 316 314 311 313 314 313 312 312 312 311 313 313 312 312 312 313 314 313 313 314 314 315 322 324 329 332 333 331 330 328 328 329 328 327 324
313 314 313 312 312 313 313 313 313 315 315 315 312 312 310 311 312 313 313 313 313 312 312 311 314 314 314 315 314 313 314 324 325 330 331 332 330 328 325 324 325 327 325 323
314 316 313 312 312 312 313 313 312 312 311 308 310 309 309 310 310 310 312 312 312 312 312 313 314 314 313 315 314 314 314 324 326 329 330 327 325 325 325 324 326 326 324 318
314 315 312 313 312 312 311 311 311 309 307 310 312 311 312 313 312 311 310 311 312 312 312 313 314 314 314 314 315 316 316 324 326 328 326 325 326 326 324 325 326 322 319 314
312 313 311 311 311 312 312 313 311 310 310 309 312 312 312 312 311 310 309 311 311 312 312 312 314 312 314 314 317 317 319 324 325 324 324 325 326 323 322 325 322 320 313 310
311 312 314 311 310 310 312 311 310 307 307 309 309 313 312 310 312 312 311 312 311 312 312 312 313 312 315 316 317 318 321 322 323 323 323 324 321 320 322 322 317 310 308 306
311 312 311 313 311 311 310 311 311 310 310 310 313 312 311 311 311 312 312 313 312 311 311 314 314 313 317 319 320 320 321 321 321 320 321 317 316 318 316 312 309 308 307 306
310 312 310 312 314 313 310 311 310 311 313 312 313 312 311 312 314 314 313 313 313 311 312 314 314 314 318 319 320 319 318 317 316 316 313 312 311 311 310 306 306 307 306 305
311 311 311 312 312 311 311 312 312 313 312 313 312 314 314 315 314 312 313 312 311 311 313 314 313 314 316 317 314 314 313 312 311 310 308 305 305 306 305 305 305 306 303 302
310 311 312 309 311 311 312 312 313 314 315 316 317 318 315 314 313 313 313 313 312 311 311 312 312 313 315 312 310 310 309 307 306 304 301 301 303 305 305 305 303 302 301 301
312 311 312 314 313 314 317 316 316 319 318 318 319 317 315 315 315 313 312 312 313 312 312 311 311 311 308 306 306 305 302 300 300 299 299 302 303 302 302 302 302 300 300 301
312 312 312 311 312 319 315 317 317 317 318 317 317 317 317 316 312 311 312 313 310 312 312 310 307 307 307 304 303 300 298 297 297 297 298 299 300 301 300 300 300 300 300 300
312 314 316 315 314 314 316 317 316 317 319 316 315 316 317 315 315 311 309 308 307 305 304 302 302 300 298 297 296 295 295 295 295 296 298 300 302 300 298 299 300 300 300 297
312 312 314 313 314 315 316 314 314 315 321 316 314 315 315 313 319 312 306 305 302 302 301 299 296 295 295 294 294 294 295 297 298 300 300 301 301 301 301 299 302 301 297 293
314 314 315 314 314 313 312 315 315 322 319 315 314 313 312 311 312 308 304 303 301 299 297 296 296 296 295 295 296 298 300 302 303 304 305 302 299 296 299 304 300 295 292 292
312 313 313 313 314 314 315 315 319 316 315 316 313 313 310 309 307 304 302 301 300 300 300 300 299 299 299 299 302 303 303 304 304 301 297 296 297 303 303 295 292 291 291 291
316 312 313 313 313 312 316 315 316 315 313 313 312 312 312 310 306 304 302 301 300 299 298 297 296 296 296 300 304 302 296 295 296 298 302 302 302 296 293 291 291 291 290 291
314 312 315 315 316 314 315 315 313 312 310 309 309 310 314 312 307 304 304 302 301 299 298 297 297 297 296 297 298 300 299 300 300 300 299 297 295 292 291 290 290 290 291 289
314 315 315 314 313 315 313 312 310 310 308 306 307 308 313 310 305 305 305 302 303 303 302 302 303 303 301 300 299 297 298 299 300 298 296 295 292 290 290 289 290 290 288 286
313 314 315 317 315 315 312 311 309 308 306 305 306 308 310 311 309 306 302 301 300 297 299 302 302 300 298 298 298 298 298 297 298 297 295 292 290 290 289 290 291 288 286 286

GFSCGP_850_thetae_051.txt.gz
Theta_e
319 319 317 315 314 315 315 315 315 314 314 313 313 313 312 312 314 313 314 315 316 318 320 319 319 319 319 320 320 322 326 327 335 336 338 338 337 336 335 336 334 333 332 332
316 317 316 315 315 316 315 314 315 314 313 312 311 312 312 311 312 313 313 313 314 315 317 319 319 319 319 320 320 320 322 326 329 335 334 336 335 335 333 334 334 333 333 332
314 313 313 313 314 315 314 314 314 313 312 311 310 311 311 312 311 312 313 313 313 314 314 315 316 317 318 318 320 320 321 324 326 326 327 329 333 335 332 333 334 333 333 333
314 313 313 313 314 313 314 312 313 313 312 313 310 313 309 311 310 311 312 312 313 313 314 315 315 315 315 316 317 319 320 321 322 326 326 326 330 331 334 333 335 334 333 333
313 313 313 313 313 313 313 311 311 311 310 308 310 310 309 309 312 311 310 311 314 316 316 315 315 315 315 315 315 315 317 319 320 323 325 325 327 329 330 332 333 333 333 332
312 312 311 312 311 311 311 311 311 311 309 309 309 310 309 311 311 310 309 312 313 314 314 314 314 314 314 314 314 314 314 317 318 321 324 325 325 328 330 332 330 332 332 331
312 312 311 311 311 311 311 309 305 315 313 309 310 311 309 310 310 310 309 311 313 312 312 312 312 312 313 313 312 313 313 314 318 320 322 325 326 326 327 328 328 329 331 330
308 311 311 310 311 311 311 310 305 309 309 312 310 312 310 308 310 311 312 313 312 312 312 312 311 312 313 314 314 314 314 313 313 319 321 323 327 330 329 329 328 329 329 329
310 312 311 310 311 311 312 310 309 307 308 304 308 307 306 307 308 307 310 310 311 311 312 311 312 313 313 313 312 312 314 314 313 315 324 325 327 331 330 329 330 328 327 326
313 313 312 312 311 312 310 309 308 301 303 307 309 308 309 311 309 308 307 309 312 312 311 312 313 313 313 312 310 312 315 314 314 321 326 326 327 331 329 329 327 325 324 323
311 310 312 312 312 311 312 313 309 306 305 305 309 309 307 310 310 310 309 310 311 312 312 312 312 312 312 311 311 314 315 314 316 325 326 326 327 329 328 324 322 322 322 319
311 312 310 308 308 309 309 310 309 301 302 302 308 310 308 309 308 309 311 313 313 313 312 312 312 311 311 310 310 316 317 316 320 323 325 325 326 326 324 324 321 322 318 314
310 311 310 313 311 311 310 311 309 307 305 302 307 309 308 307 309 310 313 313 312 312 311 311 313 312 312 311 312 318 318 319 321 322 323 324 324 323 322 321 320 315 313 309
310 311 305 308 310 310 308 309 308 310 308 309 308 309 310 309 311 312 313 312 312 312 313 313 314 313 312 313 315 318 319 320 321 322 321 321 320 318 318 317 312 311 307 304
309 306 309 309 310 311 310 309 309 306 309 311 311 311 310 312 313 314 314 312 313 313 312 311 313 313 314 314 316 317 317 318 319 320 319 318 314 311 311 308 306 306 305 302
308 306 310 306 309 311 311 310 310 311 311 311 311 313 313 314 315 315 312 312 313 313 312 312 312 313 315 315 315 312 312 311 314 315 314 312 308 307 305 302 302 301 302 303
310 308 308 308 311 311 311 312 312 311 312 314 317 317 317 317 315 311 311 311 311 310 312 311 311 312 311 311 309 306 305 307 308 307 306 302 301 299 298 300 301 300 301 302
311 310 309 308 310 316 314 314 314 314 315 317 318 317 316 316 312 309 306 307 305 308 310 308 307 305 304 304 302 302 302 300 300 298 297 296 296 299 300 299 300 301 301 303
310 310 314 313 314 311 315 317 316 315 317 317 317 315 316 313 313 309 303 302 302 303 302 304 304 304 303 302 299 300 297 297 295 293 294 298 299 296 298 298 299 297 297 297
311 311 312 311 311 313 316 314 314 314 321 316 315 315 313 311 318 311 303 300 299 300 300 299 299 299 298 296 297 296 295 295 295 296 298 296 299 298 297 297 300 300 295 295
313 313 314 310 311 311 310 312 315 319 316 314 314 315 311 312 310 304 302 299 298 297 296 296 296 297 296 296 296 297 299 299 299 298 300 300 301 301 300 300 296 296 294 292
311 311 312 312 314 310 311 314 317 314 315 315 314 313 309 308 304 303 301 300 300 299 297 298 296 295 295 297 298 300 299 300 300 300 299 300 300 299 296 296 293 291 291 291
313 309 311 310 310 308 312 314 314 314 313 312 312 312 311 307 303 302 300 300 301 300 299 299 299 297 298 298 300 300 300 300 300 298 294 296 298 297 292 291 291 291 291 291
311 309 312 312 314 311 312 313 312 312 310 310 309 311 311 308 304 301 299 299 300 300 300 300 300 300 299 300 301 302 299 295 296 300 300 298 293 292 290 290 290 291 290 287
312 311 312 313 312 312 312 312 311 310 309 307 308 308 313 309 306 302 299 299 298 298 298 299 300 299 298 297 298 298 298 301 301 298 294 293 292 290 290 290 290 289 287 286
311 311 314 315 314 314 313 312 311 309 307 306 307 308 311 310 307 306 303 301 299 297 297 297 297 297 296 298 301 301 299 297 296 295 293 291 289 289 289 290 288 286 286 286

GFSCGP_850_thetae_054.txt.gz
Theta_e
320 319 320 316 318 314 315 315 314 313 313 312 311 311 311 312 312 312 313 314 315 317 318 318 319 319 319 320 322 321 322 322 331 334 335 335 336 337 337 335 336 335 333 332
318 319 316 316 315 316 316 315 314 312 312 312 310 310 310 311 311 312 313 313 313 314 316 317 318 319 319 319 319 319 320 320 321 331 333 334 332 335 332 332 334 335 333 332
317 317 314 313 314 316 313 313 313 314 311 310 309 310 310 309 310 311 312 312 312 313 314 314 316 317 318 318 319 319 319 319 320 322 330 333 333 332 332 331 332 333 334 333
315 313 314 314 314 312 314 311 312 312 311 311 309 311 309 309 308 308 310 311 312 313 314 314 314 314 314 315 317 318 318 320 320 321 326 330 333 331 330 330 330 332 332 333
313 312 313 313 313 311 312 310 311 310 309 308 309 310 308 308 311 311 310 309 312 313 315 315 315 314 314 315 315 315 315 316 318 320 322 329 331 331 328 328 329 329 332 332
311 311 311 311 311 311 310 310 309 309 306 303 308 310 309 309 310 310 308 311 312 313 314 314 314 315 314 314 314 315 315 315 315 316 319 320 325 329 329 328 327 329 329 331
312 311 310 311 311 310 309 306 302 303 303 307 308 309 309 308 309 309 308 310 310 311 312 312 313 313 314 314 314 314 314 314 314 314 317 320 320 323 325 327 327 327 328 329
311 312 311 310 311 311 309 307 304 306 310 310 308 311 310 308 307 307 309 310 311 311 311 311 311 312 312 312 312 312 312 312 312 313 313 315 321 321 324 326 326 325 326 327
309 310 310 309 310 309 312 308 307 305 302 302 306 305 304 307 306 306 308 310 311 312 313 312 311 313 313 312 312 313 313 313 313 312 312 313 315 322 324 324 325 327 327 327
309 309 312 311 311 311 309 308 308 298 300 305 307 307 307 309 310 308 307 309 312 313 313 313 313 312 312 313 312 312 312 311 310 312 314 313 313 320 324 325 324 326 326 326
311 307 313 312 311 310 311 310 306 304 303 303 307 308 305 308 309 308 307 310 312 313 313 312 313 313 312 312 311 312 311 310 313 314 314 313 315 323 326 325 325 326 325 325
310 308 311 312 309 309 309 309 306 301 300 298 307 307 307 306 307 307 309 311 313 314 312 312 312 311 311 311 310 310 310 311 316 314 314 314 324 327 327 324 325 325 325 322
309 309 308 310 309 310 309 309 308 304 302 300 304 307 306 305 309 309 310 312 314 313 312 313 313 313 313 312 311 311 310 312 316 316 317 321 325 326 325 324 323 322 320 319
310 308 304 307 307 307 305 309 308 308 304 305 305 307 308 308 310 311 313 314 314 313 312 313 314 313 313 314 312 312 311 314 318 319 320 322 322 323 323 321 320 318 315 310
308 306 306 307 309 310 310 308 307 307 309 306 309 308 308 309 310 312 315 312 312 313 313 313 312 312 312 314 313 313 314 316 316 318 319 320 319 319 316 317 313 310 305 304
307 305 308 305 308 309 309 310 309 308 308 309 309 309 309 310 315 315 311 309 310 309 310 312 312 312 312 312 312 311 310 308 308 308 308 310 310 309 307 307 304 303 300 299
309 306 308 307 309 310 309 310 310 309 308 311 312 311 313 316 316 310 305 305 305 305 311 311 310 310 309 308 307 307 304 302 302 302 301 301 302 305 302 301 299 299 299 301
308 309 308 307 309 314 311 311 310 310 310 311 314 316 316 316 311 305 303 302 301 303 302 301 303 304 303 302 302 302 302 302 301 299 298 297 301 299 298 299 299 300 300 298
308 308 312 312 310 309 314 316 315 315 315 314 317 316 315 314 310 306 305 300 300 299 302 301 299 300 301 303 303 305 305 304 301 296 295 296 297 297 298 300 300 298 297 298
311 311 310 312 308 311 314 314 314 314 317 314 316 315 315 312 317 312 304 300 298 297 298 300 299 299 300 299 300 302 300 298 296 294 295 297 300 300 301 301 298 300 299 299
314 314 314 311 312 308 308 309 315 317 314 314 315 314 312 311 310 307 303 299 297 296 296 296 296 297 297 297 298 297 295 297 299 299 300 300 299 300 299 299 299 300 296 290
311 312 313 311 312 309 309 313 317 313 314 314 314 313 310 308 305 305 302 300 297 296 296 296 295 295 295 295 297 298 299 298 298 299 299 300 299 299 299 299 295 290 289 289
311 307 307 308 308 307 310 311 313 313 312 312 312 312 311 306 305 305 302 302 301 300 298 297 297 296 296 297 300 300 299 299 299 299 299 299 300 298 292 290 290 290 290 290
308 308 310 311 312 309 312 313 312 312 310 309 309 311 310 308 305 303 304 303 303 302 300 299 299 299 298 299 300 301 299 299 299 300 300 299 292 290 290 289 289 290 289 287
310 309 310 310 311 313 312 312 312 311 309 308 307 309 310 309 305 305 303 303 303 303 302 302 302 301 301 301 300 299 298 298 300 299 293 290 289 289 289 289 289 288 287 287
309 309 311 312 314 315 314 314 313 311 309 307 307 307 310 310 308 303 303 302 302 302 302 301 302 301 301 301 301 300 300 299 298 293 292 290 289 289 289 290 289 288 287 286

GFSCGP_850_thetae_057.txt.gz
Theta_e
320 319 322 321 319 314 314 315 315 313 312 312 311 310 310 311 311 311 313 316 316 317 317 317 317 318 318 318 321 322 321 320 320 326 337 336 335 336 337 336 335 334 335 333
319 320 318 318 319 317 316 316 315 313 311 311 310 309 310 310 311 312 312 313 314 314 315 317 317 318 318 318 318 320 320 320 319 320 326 333 334 334 333 334 335 335 334 333
319 317 315 315 315 316 315 314 313 313 311 308 308 309 309 309 310 311 311 312 312 313 313 314 314 315 317 318 318 318 319 319 319 319 319 326 333 334 333 332 332 332 332 333
315 313 314 313 314 313 314 311 312 311 311 312 308 310 308 308 307 307 309 311 310 311 312 314 313 313 313 314 317 317 318 317 317 318 319 320 322 328 331 332 330 331 330 331
316 313 315 315 313 311 312 310 310 309 308 308 309 310 308 306 310 309 307 308 309 310 311 313 314 314 314 314 313 314 315 315 316 316 319 319 320 326 331 330 331 329 329 329
311 311 311 311 311 311 309 308 307 306 305 304 307 309 307 308 309 307 307 307 309 310 310 312 314 314 314 314 314 314 314 315 315 315 315 316 320 322 329 331 332 331 329 328
312 311 310 310 310 310 308 307 305 304 303 306 307 309 308 308 307 308 306 308 311 312 312 312 311 313 313 314 314 314 314 314 314 314 314 314 316 320 321 323 329 331 330 327
311 314 310 309 310 311 309 307 305 305 307 309 307 310 309 306 305 306 308 310 312 313 313 313 313 312 312 312 312 313 313 313 313 313 313 313 313 314 317 321 321 326 329 328
308 308 309 309 309 309 310 306 306 305 301 302 306 304 303 307 306 306 308 310 312 313 314 313 312 312 313 312 312 313 312 312 312 312 312 312 312 312 313 317 321 324 326 327
308 310 311 310 311 309 309 307 307 299 303 306 306 305 305 308 308 307 305 308 311 313 314 313 313 313 312 313 312 312 312 312 312 312 311 310 310 312 313 313 320 323 324 324
308 308 314 312 312 311 309 307 304 304 303 305 307 305 303 306 308 307 305 309 311 313 315 314 313 313 313 312 311 312 311 311 311 311 311 311 311 313 313 313 316 324 324 325
309 308 314 313 309 308 308 308 305 302 302 298 305 305 306 306 305 307 308 311 314 315 314 314 312 313 314 314 312 311 311 310 310 310 310 313 314 314 314 315 321 324 325 324
308 306 303 311 310 309 309 308 304 302 299 297 302 305 304 303 305 308 310 312 315 313 313 314 312 313 313 313 313 313 312 311 310 311 313 316 316 316 317 320 321 322 321 321
308 306 303 306 307 306 304 308 306 308 304 304 304 305 306 306 306 308 310 314 313 312 312 312 312 313 312 312 313 312 312 311 312 315 317 318 318 319 320 319 319 318 319 320
307 306 305 307 308 309 307 308 307 306 307 304 307 307 307 308 308 309 312 312 310 309 307 310 311 312 312 312 312 312 312 312 313 313 315 315 316 315 315 314 315 314 313 312
306 305 306 304 307 308 309 309 307 308 308 308 309 309 309 309 309 315 312 308 306 305 305 310 311 311 312 310 310 310 310 309 309 310 309 309 309 308 310 310 309 308 307 302
309 305 306 304 307 309 309 309 309 308 307 309 310 310 310 312 315 314 309 304 303 302 300 303 307 306 306 308 308 307 306 305 305 307 305 302 301 303 301 301 300 299 298 298
306 307 309 308 307 314 309 308 308 309 309 308 310 311 311 315 314 310 307 303 301 299 301 301 301 302 302 302 303 305 305 305 304 302 301 300 299 299 299 298 298 298 299 299
306 307 311 313 310 307 313 314 309 310 314 310 310 312 316 314 310 309 306 303 298 298 301 300 299 302 301 301 301 302 303 304 302 303 303 302 300 299 298 299 300 300 300 300
309 310 309 311 310 310 310 312 313 312 316 313 314 315 314 312 316 311 303 299 298 298 298 299 298 299 299 298 299 300 299 299 300 298 298 298 297 299 299 300 300 300 299 300
313 314 314 310 311 307 306 307 314 315 314 314 314 314 314 312 310 305 303 300 298 296 296 296 297 297 296 297 297 297 296 296 295 295 296 297 298 298 300 300 299 299 299 295
311 312 313 312 311 308 307 313 316 312 313 313 313 314 314 311 307 304 303 301 299 297 296 296 296 296 295 295 295 297 297 296 296 297 298 298 298 298 299 299 297 291 290 290
311 307 307 307 307 306 308 312 311 311 312 311 311 311 312 309 306 305 304 302 300 299 297 296 295 297 296 297 298 297 296 297 298 298 299 298 298 297 292 290 290 290 290 289
307 307 308 309 310 308 309 312 312 311 311 310 309 309 311 310 307 306 305 303 302 301 299 298 299 298 298 298 299 299 299 299 299 299 298 297 292 290 290 289 289 289 288 287
308 307 310 310 308 311 312 314 313 313 311 309 308 308 310 309 308 306 305 305 303 301 302 302 302 301 300 300 300 300 300 299 299 297 293 291 290 289 289 289 289 289 288 287
307 307 308 309 311 311 312 313 313 312 311 309 308 308 309 310 309 307 306 306 305 303 302 302 301 301 301 300 299 299 299 299 297 293 291 290 289 289 289 290 288 287 287 286

GFSCGP_850_thetae_060.txt.gz
Theta_e
319 320 323 320 319 315 314 314 315 313 312 312 311 309 309 310 310 309 312 314 316 317 317 317 317 317 317 317 317 318 319 321 321 322 325 330 334 335 334 334 335 333 334 333
316 314 318 320 318 315 315 315 315 313 311 311 310 309 309 310 310 311 312 313 314 314 315 316 316 316 316 317 317 318 318 318 320 320 321 321 323 331 332 333 332 332 333 332
318 314 318 319 318 318 316 315 314 314 310 308 307 309 308 308 309 310 311 311 311 309 310 312 312 313 313 314 316 317 318 317 318 318 319 319 321 326 333 332 332 332 331 332
316 315 319 318 318 316 315 312 312 311 311 313 307 312 308 307 306 306 307 307 308 308 309 310 311 313 313 313 313 314 316 317 316 317 317 318 319 320 321 324 328 331 331 330
315 315 315 317 315 312 312 310 309 308 308 308 309 310 308 306 309 305 303 308 311 312 312 311 311 313 313 313 313 313 314 316 317 316 316 317 318 320 322 322 328 330 330 330
312 311 311 311 310 310 308 307 306 304 305 303 307 308 306 307 307 307 305 309 311 313 313 312 311 312 312 313 313 313 313 313 314 315 315 315 315 317 319 320 323 329 329 330
312 311 309 310 310 309 308 308 303 302 303 306 307 308 307 306 307 307 306 309 312 314 314 313 312 312 311 312 312 313 313 313 314 314 314 314 314 314 315 318 322 327 330 329
310 313 311 309 310 310 308 308 306 304 306 308 306 309 308 304 303 307 308 309 312 314 314 314 313 312 312 312 312 312 312 312 312 313 313 313 313 313 314 315 317 320 321 325
309 311 309 309 309 309 309 305 305 303 300 302 306 305 303 305 306 306 307 311 312 315 315 314 313 313 313 314 313 312 312 312 312 312 312 312 312 312 312 312 312 315 319 322
307 309 311 310 310 308 308 305 307 300 305 305 304 304 304 307 308 306 305 308 311 315 316 315 314 313 313 314 314 312 312 312 312 312 312 312 311 310 310 310 311 312 313 320
307 307 312 311 311 310 309 308 304 303 302 304 307 305 303 304 306 307 305 309 311 315 315 315 314 313 312 313 314 314 311 311 312 311 310 310 310 310 310 311 312 313 313 317
308 310 313 312 308 307 308 308 304 303 303 301 303 306 304 304 305 306 307 309 312 315 314 313 313 313 313 313 313 313 312 312 311 310 310 310 310 311 314 314 314 316 317 319
308 305 309 312 310 308 309 307 303 301 299 304 303 304 304 303 302 305 307 309 313 313 311 311 311 311 313 312 312 312 312 311 311 310 310 311 312 316 316 316 316 317 317 320
307 304 304 307 307 306 304 308 304 303 301 303 302 304 305 305 305 305 307 310 312 310 307 310 311 311 311 311 312 312 312 312 312 311 311 312 314 314 314 316 316 315 315 317
307 306 305 306 308 308 307 308 306 304 304 304 305 304 305 306 307 307 308 312 310 306 305 308 309 309 310 310 310 311 311 310 311 311 311 313 313 312 312 313 312 311 309 311
305 304 305 304 307 307 308 308 307 307 307 306 307 308 308 308 309 309 313 309 306 304 303 307 307 307 309 310 308 307 309 308 308 310 310 310 310 309 308 309 309 307 303 301
307 305 304 304 306 308 308 308 308 307 306 308 308 309 309 310 311 314 309 306 304 302 302 304 305 303 307 305 305 304 304 302 302 303 304 304 305 306 305 302 300 301 301 302
306 307 306 308 307 313 308 306 308 308 308 306 308 309 309 310 314 310 307 305 303 301 301 301 301 302 304 303 303 303 301 300 300 299 299 301 301 302 301 298 297 296 295 297
307 308 311 311 310 307 312 311 308 310 314 307 308 309 309 312 312 308 307 304 302 300 300 299 300 301 302 302 302 303 302 301 300 298 298 298 300 301 300 298 297 298 299 299
309 308 307 310 310 310 308 311 310 312 319 312 310 310 312 313 315 311 306 302 300 299 298 299 299 300 300 300 300 300 301 300 299 298 299 299 298 299 298 298 298 298 298 299
312 311 311 310 311 306 305 307 310 317 314 313 313 313 313 312 311 309 306 302 299 297 297 297 298 298 298 299 297 296 296 295 295 295 296 296 298 298 298 299 298 298 298 298
311 311 312 311 311 308 306 313 315 313 312 312 312 312 313 312 309 308 304 302 299 297 296 296 296 296 296 296 295 296 295 295 296 297 297 298 298 298 298 298 297 293 290 289
310 306 309 307 307 305 307 311 311 309 310 311 311 310 311 310 307 307 303 302 300 297 296 295 295 296 295 297 297 297 297 296 297 298 298 298 298 296 291 290 290 290 289 289
306 305 308 308 309 306 310 311 311 312 311 311 310 309 309 310 308 307 304 303 301 298 298 298 298 299 298 299 298 298 297 298 298 298 298 294 290 289 289 289 290 289 288 287
307 306 308 308 307 311 312 312 314 312 312 310 309 309 308 309 307 307 305 304 303 301 300 301 301 300 300 299 299 299 298 299 299 296 291 290 289 289 289 289 289 287 287 286
306 306 307 308 308 310 310 312 312 312 312 311 310 309 309 309 309 307 307 305 304 303 301 301 301 300 300 300 300 300 299 298 294 292 290 289 289 289 289 289 288 287 287 286

GFSCGP_850_thetae_063.txt.gz
Theta_e
316 319 320 319 318 314 315 315 316 314 312 312 312 312 311 311 310 310 312 314 315 316 316 316 317 317 316 316 317 317 318 320 324 326 328 328 331 332 332 332 332 332 333 333
316 318 316 318 318 315 315 315 315 312 310 312 310 311 311 311 311 311 311 312 312 312 313 314 315 316 316 315 316 317 317 317 318 321 322 322 325 330 330 331 331 330 331 332
316 313 315 319 319 317 315 316 313 314 310 308 308 311 309 308 307 307 307 308 308 309 309 310 311 312 313 314 315 315 316 317 317 317 319 320 322 324 323 323 327 329 329 330
314 314 315 316 316 315 319 313 312 311 313 317 308 316 311 307 306 305 307 310 311 311 310 310 311 311 312 312 312 313 315 315 317 317 317 317 319 320 320 321 321 325 326 330
314 316 316 313 312 313 315 312 310 309 309 310 310 313 311 306 306 306 306 310 312 312 312 311 311 312 312 312 312 312 312 313 315 316 316 316 317 317 318 319 320 320 322 326
312 312 314 312 314 313 308 308 306 305 306 310 307 309 308 308 307 307 307 310 312 313 313 312 312 311 312 312 312 312 312 312 312 313 314 314 315 316 317 318 319 319 321 322
311 312 310 310 310 309 308 310 309 308 310 311 306 308 308 306 306 307 308 309 312 314 314 313 313 312 312 311 312 312 312 312 312 312 313 313 314 315 316 316 317 319 320 322
314 315 311 309 311 311 308 311 310 308 310 308 306 311 308 304 303 307 307 309 312 315 315 315 314 313 313 313 313 311 311 312 312 312 312 312 312 313 313 314 315 317 319 320
310 312 309 309 308 309 309 310 304 303 301 306 307 306 304 305 306 306 307 309 311 315 315 315 315 314 314 314 314 314 313 312 312 312 312 311 311 311 312 312 312 312 313 315
307 313 311 309 309 308 308 305 309 303 306 310 305 304 307 306 307 307 306 307 310 314 315 314 314 314 312 312 313 314 314 314 312 312 312 312 311 311 311 310 310 310 310 311
306 308 312 311 311 309 309 308 304 304 304 307 308 306 302 306 307 306 306 307 311 313 314 313 312 312 313 313 313 313 313 313 311 311 311 311 310 310 310 311 311 311 311 311
307 309 313 312 307 307 307 307 304 305 306 303 305 307 303 303 304 304 305 307 311 313 312 312 312 312 312 313 312 311 312 312 311 311 310 310 310 310 310 310 310 311 312 313
307 306 311 312 309 308 309 307 304 302 302 305 306 307 302 303 303 305 305 307 311 311 311 311 312 312 311 311 311 312 311 311 312 312 311 311 311 310 310 312 314 314 315 317
306 304 306 309 308 307 305 307 304 304 307 305 304 304 305 306 305 306 307 309 311 310 308 310 311 310 310 310 310 310 309 309 309 310 311 311 311 311 311 312 313 313 314 314
306 307 305 306 308 307 307 308 305 303 304 307 306 304 305 305 305 307 308 310 310 308 307 307 308 307 307 306 306 307 308 307 307 308 310 310 310 310 310 310 310 310 310 310
305 307 305 305 307 307 308 307 307 306 307 305 305 307 308 308 308 309 312 311 308 305 304 305 303 304 304 303 305 305 307 307 305 305 307 308 308 308 307 307 306 304 304 304
306 305 304 305 306 308 309 308 307 307 306 308 309 309 308 309 310 312 310 307 305 303 303 302 301 303 303 304 303 305 304 306 306 304 304 302 302 304 305 304 302 303 301 300
305 306 306 308 306 312 307 306 307 307 307 306 307 309 309 309 311 311 308 307 304 301 301 302 300 302 302 303 303 304 304 305 304 302 300 299 299 300 300 299 299 300 298 298
307 309 310 310 309 307 313 309 307 309 313 307 307 308 308 310 312 309 308 305 302 301 301 300 300 301 302 302 302 303 304 303 303 301 299 298 298 298 298 299 298 296 297 297
309 307 306 306 307 310 307 311 309 309 319 313 308 311 310 313 316 313 307 304 301 300 299 300 300 300 299 299 299 300 301 300 300 300 299 298 298 297 297 296 296 297 297 297
311 311 309 308 306 307 304 306 308 316 316 312 312 312 312 312 311 308 306 302 300 297 298 299 298 298 297 297 297 298 297 297 297 298 298 298 297 297 297 297 297 298 298 298
310 310 311 310 307 307 305 310 315 314 311 310 310 311 312 312 309 306 303 302 300 299 298 297 298 297 296 297 297 297 298 297 297 298 297 297 297 298 297 298 296 290 290 289
310 305 308 306 307 305 307 309 310 310 309 310 310 309 309 310 308 306 304 303 301 299 297 297 297 296 298 298 297 298 296 297 297 297 298 298 298 294 290 290 290 290 289 288
306 305 307 308 308 305 308 310 310 312 311 311 309 308 308 310 308 307 305 304 302 300 298 297 298 298 299 299 298 299 298 298 298 299 298 293 290 290 290 290 289 288 287 287
305 304 306 306 306 309 311 311 312 315 312 312 310 308 308 309 308 308 307 305 303 302 301 301 300 300 300 300 300 299 299 299 298 294 290 290 289 289 290 290 289 287 287 286
304 305 306 307 308 308 309 310 310 311 312 311 310 309 309 309 309 309 307 306 304 303 302 302 302 301 301 300 300 299 299 298 293 291 290 289 289 290 290 288 287 287 287 286

GFSCGP_850_thetae_066.txt.gz
Theta_e
315 318 320 320 319 317 316 318 317 317 315 320 319 319 318 317 317 316 316 316 316 316 316 315 316 316 316 316 317 318 318 318 324 328 330 337 335 329 328 331 334 334 333 332
316 318 316 318 319 317 317 318 317 315 316 315 316 317 316 316 316 315 315 315 315 314 313 313 315 315 316 316 316 316 317 317 317 329 322 327 334 334 330 331 330 331 329 330
317 316 316 317 319 319 318 317 317 317 313 313 314 317 317 312 310 309 309 310 310 310 310 310 311 313 314 315 316 316 316 317 317 317 327 328 326 326 326 327 328 330 331 331
315 314 317 316 319 319 319 316 317 315 317 320 313 319 314 310 311 311 312 313 312 312 311 311 311 311 311 311 312 313 314 315 316 316 321 329 325 323 322 322 324 326 325 328
313 313 313 311 318 317 318 314 315 315 316 316 315 318 314 311 313 313 313 314 313 313 312 312 311 311 311 311 312 312 312 313 314 314 315 323 328 328 322 322 321 321 321 321
313 313 313 313 313 313 311 311 311 312 314 320 315 315 313 311 312 313 313 313 314 314 314 313 312 312 312 312 312 312 312 311 312 313 314 315 324 327 328 327 325 319 319 319
312 311 311 311 311 311 312 317 319 320 319 318 310 313 313 310 310 313 314 314 314 315 315 314 313 313 313 313 312 312 312 312 311 311 312 313 313 319 326 325 327 325 326 321
317 316 311 309 312 313 314 315 318 317 317 314 310 314 312 308 308 310 310 310 313 315 315 315 315 315 314 314 314 313 312 312 312 312 312 312 312 312 313 314 320 324 324 319
315 315 310 311 310 311 313 317 309 311 308 313 313 311 309 308 309 310 310 311 314 315 314 314 315 315 315 315 315 315 314 314 313 312 312 311 311 311 312 312 312 313 314 315
312 316 312 310 311 309 312 309 314 314 316 315 311 311 313 311 311 311 312 312 313 314 314 313 312 313 314 314 314 314 314 314 314 313 312 311 312 311 311 311 311 311 310 310
311 313 313 312 313 313 311 313 310 311 310 313 311 310 311 312 312 311 310 310 312 314 313 311 311 311 312 313 313 312 312 312 312 312 311 311 311 311 310 310 310 310 311 311
311 313 315 314 309 309 310 312 311 316 313 310 312 311 308 312 310 308 308 309 312 312 309 310 311 311 311 311 310 311 311 311 312 311 311 311 311 311 310 310 310 310 310 310
311 312 313 313 311 310 312 311 308 308 310 313 314 311 307 308 307 308 308 310 312 310 308 308 308 309 310 310 310 310 310 310 310 311 311 311 311 311 311 311 310 311 311 312
309 310 313 314 312 312 313 311 309 313 315 312 313 310 309 310 310 311 312 311 312 309 307 307 306 308 308 308 308 308 308 308 309 310 310 311 311 310 311 310 311 311 313 313
310 312 309 309 310 310 310 311 309 309 311 316 311 310 311 310 311 312 312 312 311 307 306 304 306 305 307 305 305 307 308 308 307 308 309 309 309 309 310 310 310 310 310 311
309 312 310 310 309 309 311 310 310 309 310 310 310 311 311 311 310 310 313 311 308 305 304 303 305 304 306 305 305 306 305 305 306 305 306 307 307 306 308 308 306 305 305 304
310 311 312 313 309 310 313 311 310 310 309 310 312 312 311 311 311 311 312 309 306 304 303 302 303 303 304 303 304 303 304 303 302 303 304 304 305 304 303 303 303 303 302 301
310 311 311 312 310 315 310 308 309 310 310 309 310 310 310 310 310 310 310 307 307 305 301 300 301 302 302 302 302 303 302 301 302 303 302 302 303 303 302 301 301 300 298 298
310 311 312 313 312 311 314 310 310 312 317 311 310 310 310 310 311 310 309 308 306 303 299 300 300 301 302 301 301 301 301 301 302 303 302 301 301 300 299 299 298 298 297 297
309 310 310 311 312 312 312 312 311 311 320 314 310 311 312 313 318 317 307 306 303 300 298 300 300 300 299 300 300 300 300 300 301 302 301 300 299 298 297 297 297 297 297 296
312 312 311 311 312 310 308 307 308 318 319 314 312 312 312 314 313 309 307 304 301 298 299 299 299 297 298 298 298 298 298 300 300 300 299 298 298 298 297 297 297 297 297 297
311 312 312 311 311 312 307 311 315 315 312 310 310 311 312 312 310 307 305 303 300 300 299 297 297 297 297 298 297 297 299 299 299 299 299 298 297 297 297 297 293 291 290 289
312 310 310 310 311 308 307 311 310 310 310 310 310 310 309 309 308 306 304 302 302 299 297 297 297 297 298 297 297 298 299 298 299 299 298 297 297 295 290 290 290 289 288 287
310 307 310 311 311 309 309 310 310 310 312 311 311 309 308 308 308 306 305 304 302 299 297 298 298 299 298 297 298 298 297 297 297 297 297 293 290 290 290 290 289 288 287 286
310 308 311 311 310 310 310 310 311 310 313 313 311 309 308 308 308 307 306 305 303 301 299 299 299 299 300 300 299 299 299 298 298 295 290 290 290 290 290 289 288 287 287 287
307 310 310 310 310 311 311 310 309 310 310 312 311 310 309 309 309 308 307 306 305 303 302 301 300 301 301 301 300 300 299 298 294 291 290 290 290 290 289 288 288 287 287 286

GFSCGP_850_thetae_069.txt.gz
Theta_e
317 318 317 319 318 318 317 318 318 318 318 319 318 318 318 317 317 317 317 317 318 317 317 317 317 318 318 319 319 321 321 322 331 336 337 331 335 334 335 337 338 337 335 334
316 318 317 318 317 317 317 317 317 317 317 317 318 318 318 318 317 317 317 316 316 316 316 316 316 315 316 317 317 318 319 320 321 328 333 330 325 328 332 333 332 332 335 333
316 315 315 317 318 319 320 318 317 317 317 316 316 317 317 317 316 316 314 314 315 315 314 314 313 313 313 314 315 316 317 318 319 319 325 332 331 335 331 327 331 332 332 335
315 315 316 317 318 318 320 317 317 317 317 316 315 316 317 317 314 312 313 314 314 314 313 313 313 313 312 312 313 315 315 316 317 317 319 324 331 333 332 331 329 330 331 329
314 317 318 319 316 315 320 317 318 317 318 318 317 318 318 314 314 314 315 315 315 314 314 314 314 314 313 311 312 312 312 313 314 315 316 319 325 329 331 331 332 331 330 325
314 313 313 314 313 315 313 317 317 317 319 322 319 318 315 314 315 315 315 315 315 315 315 314 315 315 316 312 312 311 311 311 311 312 313 314 318 326 329 329 330 331 332 331
312 312 310 310 311 312 314 318 322 323 321 321 316 316 316 312 314 314 315 315 316 317 317 316 316 315 315 314 313 313 312 312 311 311 311 312 313 318 325 328 329 329 330 329
318 316 309 309 312 313 316 317 325 323 322 319 312 317 316 312 311 313 314 315 316 317 317 317 317 316 315 315 315 314 313 313 312 311 311 311 312 313 316 322 326 328 328 329
317 316 310 310 311 313 315 317 313 314 313 316 314 313 311 309 311 313 313 313 316 317 317 316 316 316 315 315 314 314 314 314 314 313 312 312 312 311 311 312 315 321 323 326
314 317 312 312 312 312 315 312 316 318 317 317 314 314 315 310 312 312 313 314 315 316 316 315 314 314 314 313 313 313 313 313 313 313 313 312 311 311 311 311 311 312 314 315
314 315 315 313 315 315 313 315 313 313 314 317 313 313 314 312 313 314 313 312 314 315 315 314 313 313 312 311 312 311 312 312 312 311 311 311 311 311 311 311 311 310 310 311
313 315 315 315 311 311 312 315 315 318 317 314 316 312 313 313 313 311 312 312 314 315 312 313 313 311 310 309 309 310 311 310 311 311 311 311 311 311 311 311 310 310 310 310
313 315 315 314 313 312 313 313 312 311 314 316 316 312 312 313 311 310 310 312 313 314 311 311 310 309 308 307 309 309 309 309 309 309 309 310 311 310 310 310 310 310 311 311
311 313 315 316 314 314 316 313 311 311 317 315 315 311 310 312 311 311 313 313 314 313 310 310 309 307 306 308 307 307 307 308 308 308 309 310 310 310 310 310 310 310 310 310
312 313 312 312 311 312 313 313 312 311 313 319 313 313 311 312 312 312 314 314 315 312 310 308 307 306 305 304 305 306 307 307 307 307 308 308 309 309 309 309 309 310 310 310
311 314 312 312 311 311 312 312 312 311 311 312 312 312 312 311 313 313 315 315 313 310 307 305 304 304 304 303 305 305 305 305 305 305 307 307 307 307 308 308 308 308 307 306
312 313 313 315 311 312 314 313 312 312 311 312 313 312 313 312 313 312 313 312 311 307 306 304 303 303 303 302 304 303 305 304 304 305 305 304 303 304 305 303 303 303 302 301
312 312 312 314 312 316 312 310 311 312 311 311 312 312 312 312 312 311 310 311 308 305 304 303 302 302 303 301 304 304 304 304 303 302 301 302 302 303 303 301 300 300 300 299
311 312 313 314 314 313 314 311 311 313 315 311 311 311 312 312 311 312 309 308 305 305 302 301 301 301 303 301 303 303 303 302 302 301 300 300 301 300 300 299 299 299 298 297
310 311 312 313 314 314 316 314 312 313 320 314 312 313 314 314 318 318 306 308 306 302 301 299 301 301 301 301 301 301 301 302 302 300 300 299 299 299 299 299 297 297 297 297
312 312 312 312 313 312 311 309 310 318 319 313 312 313 313 315 313 310 309 307 303 300 300 300 300 300 300 299 299 300 300 301 300 299 298 298 298 299 299 298 297 297 296 295
312 312 311 311 312 313 312 312 313 316 314 313 313 313 313 312 311 309 308 305 301 299 298 299 299 299 298 298 297 298 299 299 299 298 299 298 298 298 298 297 295 291 289 289
312 311 312 311 312 311 310 313 311 311 312 312 312 311 310 311 308 307 306 303 301 300 298 299 298 297 298 297 296 298 299 299 297 298 298 298 297 294 290 290 290 289 288 288
311 310 311 311 312 311 310 311 312 310 311 312 311 310 309 310 308 305 305 304 302 299 298 297 296 297 297 297 297 299 298 298 298 297 298 295 290 290 290 290 288 288 288 287
311 311 312 312 312 312 311 311 312 310 310 312 312 312 310 309 308 307 306 305 302 300 298 298 297 298 298 298 297 297 297 297 297 297 292 290 290 290 290 289 288 288 288 287
309 310 312 312 311 311 312 312 310 310 310 310 310 310 310 309 309 306 307 306 303 300 299 299 299 299 299 298 297 298 298 298 296 291 290 290 290 290 289 289 288 288 287 287

GFSCGP_850_thetae_072.txt.gz
Theta_e
315 317 319 318 317 318 319 319 317 317 316 319 319 318 317 317 317 317 317 317 318 318 318 318 317 317 317 318 321 323 324 330 338 340 340 337 336 338 339 339 337 337 336 335
314 317 315 316 317 318 319 318 318 317 317 317 318 318 317 316 316 317 317 317 317 317 317 317 317 317 317 318 318 319 321 321 322 331 336 336 334 332 331 335 337 336 336 334
314 314 313 317 317 318 317 317 318 317 317 316 316 315 317 316 317 317 317 317 316 315 315 315 315 314 314 315 316 317 317 319 320 320 325 329 332 331 328 323 325 332 336 334
315 315 316 317 318 317 319 317 318 318 316 317 314 315 316 316 316 316 315 313 313 314 314 313 313 313 313 313 313 315 316 317 317 318 319 321 326 330 326 324 325 324 323 326
314 316 317 316 316 317 318 318 318 318 316 315 315 314 316 315 315 312 311 313 314 314 314 314 314 314 313 311 311 312 313 315 316 317 318 318 320 324 333 332 332 331 327 324
314 313 314 315 315 314 314 315 318 318 317 320 315 314 314 313 313 312 313 315 315 314 314 314 315 316 315 313 312 312 312 311 311 312 314 315 317 318 322 328 331 330 328 330
312 311 311 311 314 313 311 314 320 321 320 316 316 315 314 312 313 313 313 315 316 316 315 315 315 315 315 314 314 314 313 313 312 311 311 311 312 313 318 326 329 329 329 329
315 313 311 310 313 313 312 317 322 322 318 315 313 315 312 311 313 314 315 316 317 317 317 317 317 316 315 315 315 314 313 313 312 312 312 312 312 312 313 320 324 326 328 329
313 312 309 310 311 313 315 317 313 314 312 312 311 312 309 310 312 313 314 315 317 317 317 316 315 315 315 315 315 314 314 314 314 313 313 312 312 311 311 312 315 320 323 326
313 315 312 311 312 311 314 314 315 317 319 319 312 312 311 308 311 312 312 314 317 316 316 315 314 314 314 314 313 312 313 313 313 313 313 313 312 312 312 311 312 313 315 318
314 315 315 313 315 316 314 315 313 313 313 317 312 311 310 308 310 311 311 314 315 316 315 314 314 314 313 311 311 311 311 311 311 311 311 311 312 311 311 311 311 311 311 311
313 313 316 316 312 311 312 315 314 312 313 312 312 309 309 308 309 312 312 312 314 315 314 313 314 312 311 310 310 310 310 310 310 310 311 310 310 311 311 311 311 310 310 310
313 313 314 313 313 312 312 313 313 311 313 316 313 309 309 308 308 310 311 312 314 314 312 312 311 310 309 308 309 309 308 308 308 309 309 310 310 310 310 310 310 310 310 310
311 312 312 311 314 313 311 313 311 310 313 314 313 310 310 309 309 309 311 312 314 314 312 311 310 308 308 308 307 307 308 308 308 308 309 309 309 309 309 309 309 310 310 310
312 311 311 311 311 312 313 313 311 306 310 309 311 311 309 310 309 310 314 313 314 313 311 310 309 307 306 305 305 306 307 307 307 307 307 308 308 309 309 309 308 309 309 309
311 311 311 309 311 311 311 312 312 310 310 310 311 311 310 310 311 313 314 315 315 313 310 308 307 306 304 304 305 306 307 307 306 306 306 306 307 307 308 308 308 307 306 305
312 310 310 311 311 311 311 311 311 311 310 310 311 310 312 311 312 312 313 315 314 312 309 306 305 304 304 304 304 305 306 306 306 305 304 304 305 306 307 307 303 302 302 301
311 311 311 311 311 314 311 310 311 311 311 310 310 311 311 311 312 311 312 313 312 310 307 305 304 304 303 303 303 304 304 304 305 304 303 304 304 304 303 301 300 300 299 300
310 311 312 311 312 312 312 310 311 311 312 310 310 310 310 312 312 312 310 311 310 307 305 303 303 302 302 302 303 304 304 304 303 303 302 303 302 301 300 299 298 299 299 299
310 309 310 312 312 314 316 312 311 312 318 311 310 310 313 314 315 312 310 309 308 306 303 303 302 302 303 303 302 303 302 302 303 301 301 301 300 299 298 298 298 298 298 299
311 311 310 311 311 311 313 311 310 318 317 312 312 313 313 313 312 311 309 308 306 302 302 302 302 300 301 301 301 301 301 301 301 300 299 299 298 298 298 297 297 297 295 291
311 311 311 311 311 310 311 310 313 315 314 313 313 313 313 313 311 309 308 306 303 303 302 301 300 301 300 300 300 300 300 301 300 299 298 298 298 298 297 296 294 290 289 289
310 309 310 308 309 310 312 310 310 311 312 312 312 311 310 311 310 308 308 305 303 303 302 300 300 299 299 299 299 298 300 300 298 298 298 298 298 296 292 291 290 289 288 288
309 310 309 310 310 309 310 311 312 311 311 312 311 311 310 310 310 308 307 305 303 301 301 300 298 298 298 299 298 298 299 299 298 298 296 297 292 290 290 290 289 288 288 288
309 309 309 309 310 311 311 311 313 310 310 311 311 311 311 310 310 309 307 307 305 303 301 299 297 298 299 298 299 299 298 298 297 297 296 291 291 290 290 289 289 289 288 288
309 308 309 310 309 310 311 311 311 310 309 309 310 310 310 310 309 309 308 307 306 304 302 300 298 299 299 299 298 298 298 297 296 297 291 291 291 291 290 289 289 288 288 288

GFSCGP_850_thetae_075.txt.gz
Theta_e
311 315 318 315 314 315 315 316 317 316 315 317 316 317 317 316 316 317 318 318 318 318 318 317 318 318 318 321 323 326 332 339 340 339 337 337 339 338 337 338 336 335 335 334
309 315 314 316 314 317 317 316 315 314 316 317 316 317 316 316 315 316 316 317 317 316 316 317 317 317 317 317 318 320 323 323 330 331 337 336 337 337 337 337 336 336 335 334
310 312 315 316 316 317 318 316 316 317 315 315 314 314 315 316 316 316 316 316 317 316 316 315 315 316 317 317 318 318 319 322 321 323 325 330 333 333 334 332 332 334 334 332
307 310 315 316 316 316 319 315 317 318 316 318 312 314 311 314 316 313 315 316 317 316 315 314 314 315 315 315 316 316 317 317 319 320 320 321 323 326 327 327 328 326 327 330
309 314 314 317 316 315 316 316 318 318 319 314 314 312 310 311 315 315 312 315 314 313 314 313 313 314 314 313 313 313 313 315 316 317 318 319 319 322 329 331 332 330 329 329
313 313 314 315 314 314 313 315 317 317 318 319 313 312 309 312 315 312 310 312 314 314 314 314 314 313 312 312 312 312 312 312 314 316 317 317 318 318 319 320 329 332 332 331
313 311 311 313 314 313 314 315 319 320 320 314 312 312 311 310 311 311 311 313 314 314 314 314 315 315 314 314 313 313 313 312 311 311 312 314 315 316 316 317 321 327 329 329
314 314 312 311 313 314 313 315 320 322 315 314 312 314 313 307 310 313 314 315 315 315 315 315 315 315 315 314 314 314 313 313 312 312 312 312 311 311 312 313 315 324 327 328
311 313 309 312 312 313 315 316 313 313 312 311 311 310 308 308 310 312 314 316 316 317 317 316 316 315 315 315 315 314 314 314 314 313 313 312 311 311 312 312 313 318 323 325
309 313 312 311 312 311 314 313 316 312 317 316 311 309 310 308 311 311 312 315 316 317 316 315 314 315 315 314 314 313 313 313 313 313 313 313 313 312 313 312 312 313 315 318
311 310 314 312 314 313 314 316 314 313 314 315 309 309 306 308 310 310 310 315 316 316 315 314 314 314 314 313 312 312 312 312 311 311 312 312 312 312 312 311 311 311 311 312
312 313 315 315 313 312 314 315 314 311 313 310 308 310 307 305 307 310 311 314 316 316 314 314 314 314 312 311 311 310 310 310 310 310 310 311 311 311 311 311 311 311 311 310
311 310 312 313 312 310 311 313 313 310 310 311 312 309 307 307 307 310 311 314 315 315 314 313 313 311 311 310 309 309 308 308 309 309 309 309 310 309 309 309 309 309 309 310
310 310 307 309 311 309 308 311 309 305 305 310 308 309 309 309 308 308 311 313 314 314 313 312 311 310 309 309 308 308 307 307 308 308 308 309 309 309 309 309 309 309 309 309
309 308 309 310 311 311 311 311 309 303 309 308 311 310 309 308 307 308 310 312 313 314 312 311 310 309 308 308 307 306 306 306 307 307 307 308 308 308 308 308 308 308 309 309
308 308 308 305 310 310 310 311 310 309 309 309 309 310 307 309 309 308 310 311 313 313 312 310 309 309 308 306 306 306 306 306 306 306 306 306 307 307 307 308 307 307 306 306
309 307 306 307 310 310 309 309 310 309 308 309 309 309 310 308 309 311 313 313 314 314 312 310 309 308 307 305 305 305 305 305 305 305 305 305 305 306 306 305 304 304 304 304
309 309 308 307 309 311 308 309 310 310 310 308 309 309 309 310 311 312 313 314 314 313 312 310 308 306 305 304 304 304 304 304 304 304 304 304 305 304 304 303 302 302 302 301
307 308 309 308 308 309 311 309 309 310 310 309 308 309 310 311 312 312 311 311 312 312 310 308 306 305 304 303 303 303 303 303 303 304 304 304 303 303 302 301 301 301 300 299
308 306 307 310 309 312 315 310 310 311 316 309 308 308 309 312 312 311 311 310 310 309 308 307 305 304 303 303 303 303 303 303 303 303 302 302 301 301 300 300 300 299 298 298
309 308 306 307 307 309 312 311 311 317 314 311 311 312 312 311 311 313 311 309 308 307 305 303 302 302 302 302 302 302 302 301 302 302 301 301 300 299 299 299 298 298 294 291
308 311 311 310 311 309 309 309 312 313 312 313 313 313 313 313 312 310 309 308 306 306 305 303 302 302 302 301 301 301 301 301 302 301 300 300 300 299 299 297 293 290 289 289
309 307 308 307 307 307 310 310 312 313 313 312 312 311 311 311 310 310 309 307 306 305 304 303 302 301 301 300 300 300 300 301 301 300 299 299 299 298 295 292 290 289 289 288
308 308 307 308 309 307 311 310 311 311 311 312 311 311 310 311 310 310 308 306 304 304 304 302 301 300 300 300 299 299 299 300 299 299 299 299 298 293 290 289 289 289 289 288
307 308 308 307 307 309 309 311 312 311 311 311 312 311 311 310 310 310 309 307 306 306 304 302 301 300 300 299 299 298 299 300 299 298 298 297 292 291 291 290 289 289 288 288
307 307 308 308 308 309 309 311 310 310 310 309 309 309 309 309 309 310 309 308 307 306 304 302 301 300 300 300 299 299 299 299 299 298 298 293 291 291 290 289 289 289 288 288

GFSCGP_850_thetae_078.txt.gz
Theta_e
310 313 315 315 315 314 314 316 318 316 315 317 316 316 316 317 316 315 317 317 318 319 319 319 318 319 319 323 327 331 335 338 338 337 338 340 339 339 338 337 335 335 336 334
308 311 313 314 314 315 315 315 315 314 315 317 316 317 315 315 315 316 315 317 318 318 317 318 318 318 319 318 321 323 327 332 333 337 336 338 338 338 339 338 337 335 335 334
308 309 312 315 314 316 316 315 314 315 314 314 316 317 316 315 316 316 316 316 317 317 316 315 317 317 317 318 319 319 321 323 324 327 333 332 334 337 337 337 337 336 334 333
305 307 311 312 315 315 318 315 316 318 315 317 314 317 313 316 315 315 315 316 316 316 316 315 315 315 316 316 317 317 318 319 320 321 321 323 328 328 327 331 332 332 331 330
305 308 311 313 315 314 316 316 316 317 319 315 313 314 311 309 314 315 316 315 316 315 315 315 315 314 314 315 315 316 317 317 318 318 318 319 319 321 322 325 326 328 330 329
307 311 312 313 314 314 314 316 317 318 319 320 313 314 311 309 311 312 315 315 315 313 313 313 314 314 314 314 314 314 314 314 314 315 316 316 317 318 320 321 321 322 322 327
309 313 312 313 313 313 313 315 316 319 320 315 311 313 314 308 309 309 311 312 313 313 313 314 314 314 313 312 312 312 312 312 311 312 313 315 315 316 317 317 318 318 320 325
314 314 313 311 314 316 315 311 308 314 316 313 311 314 313 308 307 309 312 312 313 314 314 314 314 315 314 313 313 313 313 312 312 311 311 311 311 312 313 314 314 314 317 326
311 313 310 312 312 312 315 317 312 310 311 306 310 310 307 309 309 310 311 313 313 314 314 314 315 315 314 314 314 314 313 313 313 312 312 311 311 311 311 311 311 312 315 321
309 314 312 312 312 311 314 312 316 315 318 314 310 310 311 311 310 311 311 313 314 315 316 316 316 315 315 315 315 314 314 313 313 313 313 313 313 312 312 312 312 312 313 316
309 310 313 311 313 315 315 316 314 312 310 311 309 309 305 308 310 311 311 314 316 316 316 315 315 314 314 314 313 312 312 312 312 312 312 312 312 312 312 312 312 312 312 312
311 311 313 313 312 312 312 314 312 306 314 304 304 309 305 304 308 310 312 315 316 316 315 314 314 313 313 312 311 311 311 310 310 310 310 310 311 311 311 311 311 311 311 311
311 311 313 314 312 312 314 315 314 309 304 304 307 309 306 305 307 311 312 315 316 315 314 314 313 313 312 311 310 309 309 309 308 308 308 309 309 310 309 309 309 309 309 309
310 309 306 310 310 308 308 312 312 306 302 307 306 308 309 308 308 308 311 314 315 315 314 313 313 313 311 310 309 309 308 308 307 307 308 308 308 309 309 308 309 309 309 309
308 308 308 309 311 310 309 309 308 305 307 308 309 309 309 309 308 309 312 314 314 314 313 313 313 311 310 309 308 308 307 307 307 307 307 307 308 308 308 308 308 308 308 309
307 309 306 304 309 310 310 310 308 307 308 309 308 309 309 309 308 308 310 311 313 313 313 312 312 311 310 309 308 307 306 306 306 306 306 306 306 307 307 307 307 308 308 307
308 306 305 305 309 309 308 308 309 308 308 309 309 308 308 308 307 307 309 310 311 312 313 313 312 311 310 309 307 306 306 306 305 305 305 305 305 306 307 307 306 305 305 304
307 307 306 306 308 311 306 308 308 309 309 307 308 308 309 308 309 309 310 310 311 312 313 312 311 310 308 307 306 305 305 305 305 304 304 304 304 305 305 304 303 302 302 301
306 306 308 308 307 306 309 309 309 309 309 307 307 307 309 310 311 310 312 313 313 314 314 313 310 309 307 306 305 305 304 304 303 303 303 304 304 304 303 302 301 301 300 300
305 304 306 305 307 311 311 309 309 310 313 309 307 307 309 311 310 308 312 311 311 311 311 310 308 306 305 304 304 303 303 303 303 303 303 303 303 301 301 300 300 300 299 300
306 308 307 307 305 307 307 310 311 315 310 310 308 308 310 310 309 312 314 311 310 310 310 308 306 306 304 303 303 303 303 302 302 302 302 302 301 300 300 299 299 299 298 292
307 307 308 306 308 306 309 309 313 311 312 312 312 312 312 312 312 313 312 311 310 309 308 306 305 304 303 302 302 302 302 302 301 301 301 301 300 299 299 298 298 293 290 290
309 306 307 306 306 305 309 310 311 313 313 312 312 312 313 312 312 311 310 309 309 308 306 305 304 302 302 302 302 301 301 301 301 301 300 300 299 299 298 296 292 290 290 289
307 306 307 308 307 307 309 310 311 311 312 312 311 310 311 311 310 310 309 308 308 306 305 305 303 302 302 301 301 300 299 300 300 300 299 299 299 298 295 291 290 289 289 289
305 306 306 306 306 308 308 310 311 311 311 311 311 312 311 310 311 310 310 309 308 307 306 305 303 302 301 301 300 300 299 300 300 299 299 299 298 295 291 290 289 289 289 288
306 306 307 308 307 307 309 309 311 311 310 310 309 309 309 309 309 309 309 309 308 308 306 305 303 302 300 300 300 300 299 299 299 298 298 299 297 291 291 290 290 289 289 288

GFSCGP_850_thetae_081.txt.gz
Theta_e
309 313 314 313 315 312 314 314 316 315 315 317 316 316 316 315 316 316 318 320 318 319 319 318 319 321 322 326 329 335 338 339 341 340 339 338 338 337 337 336 335 335 336 335
308 312 311 312 314 314 315 315 316 314 314 315 316 316 315 315 316 316 316 317 318 319 318 319 319 318 319 322 324 327 334 337 338 339 339 339 339 338 338 338 337 336 335 334
307 308 309 314 315 316 314 315 313 315 313 314 315 316 316 316 315 316 316 316 316 316 318 318 318 318 318 318 321 322 325 328 332 332 334 335 336 338 338 339 338 335 333 334
305 307 310 311 315 316 317 313 314 316 313 315 313 315 312 316 316 314 316 316 317 315 316 315 316 316 317 317 319 319 322 324 325 324 325 330 335 335 334 335 335 334 334 332
306 306 311 311 315 314 317 316 316 316 314 314 313 314 312 308 314 315 314 316 316 317 315 315 315 315 315 316 317 317 317 318 320 320 321 321 322 322 324 326 328 330 333 333
306 306 311 312 312 314 314 316 317 317 316 316 312 314 313 310 311 312 313 315 316 317 315 314 314 314 315 315 315 315 315 316 316 316 316 317 318 318 319 320 322 324 325 325
308 311 311 312 310 314 315 315 317 319 319 316 310 313 316 310 307 308 309 312 315 316 314 314 314 314 314 314 314 314 314 313 314 314 314 313 314 315 316 316 318 319 319 320
312 313 311 309 312 316 314 311 308 313 317 315 310 314 313 308 308 310 309 310 312 313 313 313 314 314 314 313 313 312 312 312 311 311 311 311 312 312 313 314 315 315 316 316
312 313 310 311 312 313 315 311 309 308 306 305 309 308 307 306 307 308 308 310 311 312 313 314 314 314 314 313 313 313 313 313 312 312 312 311 311 311 311 311 311 311 312 313
309 315 313 312 312 312 312 311 313 315 307 312 310 308 311 309 309 308 308 310 312 313 314 315 314 314 314 314 314 314 314 313 313 313 313 313 313 312 312 311 311 311 312 313
309 311 313 313 314 314 314 315 313 310 309 310 309 309 304 306 307 308 308 311 312 313 314 314 315 314 314 314 314 314 313 313 313 313 312 312 312 312 312 312 312 312 312 312
310 311 313 314 311 311 312 313 312 306 314 308 301 308 305 303 304 309 310 312 313 314 315 315 315 315 314 314 313 312 312 311 311 311 311 310 310 311 311 311 311 311 311 311
310 310 314 313 312 311 313 313 313 307 303 303 306 309 306 305 306 311 312 314 315 315 315 314 314 314 313 313 312 311 310 310 309 309 309 309 309 309 309 309 309 310 310 310
310 308 307 309 310 312 313 312 312 312 311 307 304 309 307 307 308 309 313 314 315 315 315 314 314 313 313 312 311 310 309 309 308 308 307 308 308 308 308 308 308 308 308 309
307 308 306 308 309 308 309 309 312 312 311 309 310 307 307 306 306 308 313 314 314 314 314 314 314 313 313 311 310 309 308 308 307 307 307 307 307 308 308 308 308 308 308 308
306 307 306 305 309 309 310 309 310 311 311 308 308 308 306 308 308 308 311 314 314 314 314 314 313 313 312 311 310 309 308 307 307 307 306 306 306 306 306 306 306 306 307 307
307 306 304 303 308 308 307 307 308 309 307 309 310 309 307 307 307 308 310 312 314 314 313 313 313 313 312 310 309 308 307 306 306 306 305 305 305 306 306 305 306 306 306 305
306 305 305 306 307 307 304 307 307 309 308 306 307 307 307 307 308 309 311 311 312 312 312 312 312 312 311 309 308 307 306 306 305 305 305 304 305 305 305 305 304 304 303 303
304 305 307 307 306 305 308 308 308 308 308 307 307 307 309 308 308 309 308 309 310 310 311 312 313 312 311 309 307 306 305 305 305 304 304 304 304 304 304 304 302 301 301 301
304 303 305 303 306 309 308 309 307 308 309 309 306 306 308 309 308 307 311 312 313 313 313 313 313 311 309 307 306 305 304 304 304 303 303 303 304 303 303 302 301 301 300 300
307 308 310 307 304 306 304 309 309 313 308 309 308 308 308 309 308 310 312 312 312 311 311 311 310 309 308 306 305 304 304 304 303 303 303 303 303 302 301 301 300 299 299 296
306 305 306 307 310 305 308 309 310 309 312 311 309 308 309 311 312 312 312 312 311 311 310 309 308 307 305 304 303 303 303 303 302 302 302 302 302 301 300 299 298 298 294 290
307 305 306 304 304 304 308 309 310 312 312 312 312 312 311 311 311 311 311 311 310 309 308 307 306 305 304 303 302 302 302 302 301 301 301 301 300 299 299 298 298 292 290 290
306 305 307 307 306 305 308 309 311 312 312 312 311 312 311 311 310 310 310 310 309 308 308 306 305 305 303 302 302 302 301 301 300 301 301 300 299 299 298 297 293 290 290 289
305 305 306 305 305 307 308 309 310 310 310 311 311 311 311 312 312 313 312 310 309 308 307 306 306 305 303 301 301 301 300 300 300 300 300 299 299 298 298 294 291 290 289 289
305 306 307 307 307 307 307 308 310 310 310 311 310 309 309 309 309 309 309 309 309 308 307 307 307 305 302 301 300 300 299 299 299 300 300 299 299 298 295 291 290 289 289 289

GFSCGP_850_thetae_084.txt.gz
Theta_e
301 310 310 312 314 311 311 314 315 314 314 316 314 316 314 316 321 321 320 320 321 318 320 320 327 330 328 329 329 334 338 339 340 340 340 340 339 338 337 337 336 335 334 335
305 309 309 312 312 314 311 315 315 314 314 316 314 315 314 312 315 317 320 319 319 320 320 318 318 322 325 324 326 331 337 338 339 340 340 339 338 338 337 337 336 336 335 334
305 309 311 311 313 315 312 314 313 314 313 313 313 315 315 314 314 316 316 318 319 319 319 320 318 318 318 320 322 326 332 336 337 339 338 339 338 338 337 337 337 335 333 333
306 309 310 310 311 314 315 312 313 313 313 317 313 316 310 314 314 312 315 314 316 318 319 320 317 317 318 318 318 320 324 331 335 335 336 335 335 334 334 335 335 336 336 334
306 308 309 310 311 314 316 313 314 313 312 312 312 314 311 309 313 316 315 315 316 316 316 315 316 316 316 316 316 318 320 323 326 329 332 333 330 330 333 335 334 331 331 333
305 306 309 309 307 314 314 315 315 314 313 312 311 313 311 310 310 310 312 315 315 317 317 316 314 314 315 315 316 317 317 318 320 323 325 322 321 321 321 322 323 325 326 327
307 309 310 310 309 314 316 313 319 320 319 314 309 312 314 309 307 307 308 312 314 315 316 316 314 313 314 314 314 314 315 315 315 315 315 315 315 315 316 316 317 317 318 320
309 312 311 310 310 315 316 311 307 311 314 313 309 313 313 308 309 311 312 311 311 312 314 315 315 314 313 314 314 314 314 314 313 313 313 312 312 312 312 312 314 315 316 317
310 313 310 310 312 313 314 314 307 306 304 306 310 308 307 306 305 306 308 309 311 311 312 313 313 314 314 314 313 313 312 312 312 312 312 311 311 311 311 311 311 312 312 312
309 314 311 309 312 311 312 310 311 310 308 312 310 308 310 309 308 307 307 308 309 310 311 312 313 314 314 314 313 313 313 312 312 312 312 312 312 312 312 311 311 311 311 312
309 311 314 309 312 314 314 312 312 309 306 309 309 310 303 306 305 304 306 308 310 310 312 314 314 314 314 313 313 313 313 313 313 313 313 313 313 313 312 312 312 312 312 312
309 312 313 314 311 311 311 312 311 308 310 306 301 309 305 303 302 304 308 309 311 312 314 314 314 314 314 314 314 313 313 313 312 312 311 311 311 311 311 311 311 312 312 312
309 310 314 314 311 311 312 311 309 305 304 309 307 309 305 304 305 307 309 311 312 313 313 314 314 314 314 313 313 312 311 311 311 310 310 309 309 309 309 309 310 310 310 310
310 309 308 310 309 310 312 311 310 305 302 308 305 307 308 307 307 308 310 311 312 313 314 314 314 313 313 313 312 312 310 310 310 309 308 308 308 308 308 308 308 308 308 308
308 308 307 307 308 310 310 310 310 308 309 308 309 307 308 306 305 306 311 312 313 313 314 314 314 313 313 313 312 311 310 309 309 308 308 308 307 307 307 308 308 308 308 308
305 308 306 305 308 309 310 308 309 310 310 308 308 307 305 307 306 307 310 313 313 314 314 314 313 313 313 313 312 310 310 309 308 308 307 307 307 307 306 306 306 306 307 307
307 305 304 304 308 308 307 307 308 310 309 310 310 310 308 307 306 307 309 313 314 315 315 314 314 313 313 312 311 310 309 308 307 307 307 306 306 306 306 305 305 306 306 306
305 305 305 307 306 308 305 306 306 308 308 307 307 307 306 306 308 309 310 312 313 314 314 314 313 313 312 311 310 309 308 307 307 306 306 305 305 305 305 303 302 303 304 304
304 305 307 307 306 305 307 307 307 307 308 306 306 307 307 309 308 307 308 310 311 312 313 313 312 312 312 311 310 308 307 306 306 305 305 304 304 304 303 302 302 302 301 300
303 302 305 304 306 308 306 309 307 306 309 308 306 306 306 308 307 306 309 309 309 309 310 309 311 312 312 311 309 307 306 305 305 304 304 303 303 304 303 302 301 300 299 299
307 308 306 309 306 305 303 305 308 311 307 309 307 306 307 307 307 308 310 310 311 311 312 312 313 312 311 309 308 306 305 304 303 303 303 302 302 303 302 301 300 299 298 298
305 304 306 308 310 305 304 308 310 307 311 311 309 307 307 310 310 311 311 312 312 312 311 311 310 309 309 307 306 305 304 303 303 302 302 301 301 301 301 300 299 298 298 296
307 304 305 304 305 303 305 309 309 310 312 312 312 310 309 310 310 311 311 311 310 310 310 309 308 307 307 305 304 303 303 302 302 302 301 301 300 300 299 299 298 297 295 290
305 303 305 306 305 304 306 308 309 311 312 312 311 311 311 311 311 310 310 309 309 309 308 308 307 307 306 305 303 302 301 301 301 301 301 300 300 299 298 298 297 296 291 290
305 305 305 305 305 306 307 308 310 310 310 311 310 310 312 312 313 312 313 313 311 309 308 307 306 306 306 304 303 302 302 301 301 300 300 300 299 298 298 298 297 292 290 289
304 306 306 306 306 306 307 308 309 310 310 310 310 309 309 309 309 309 309 309 309 309 308 307 306 307 306 304 302 301 301 300 300 299 299 300 299 299 298 298 295 290 289 289

GFSCGP_850_thetae_087.txt.gz
Theta_e
301 306 311 311 310 311 313 315 316 315 314 317 317 316 315 317 319 318 320 322 322 322 321 320 319 330 330 330 330 330 331 331 332 336 338 337 338 338 338 337 336 335 334 334
304 306 309 310 311 314 313 315 316 314 314 317 316 317 315 314 319 319 320 321 322 322 322 320 319 323 329 329 326 324 324 326 322 332 334 337 338 338 337 337 337 336 335 334
304 307 309 311 311 311 313 314 313 315 314 312 315 318 316 314 314 318 320 320 321 322 322 321 320 321 319 320 324 322 324 325 328 330 335 336 338 338 336 338 337 336 333 333
306 307 310 309 312 311 313 312 313 315 317 319 312 318 313 315 315 313 316 318 319 319 322 320 320 320 319 318 318 320 321 326 329 330 334 336 336 336 337 336 335 336 336 335
306 309 311 310 310 308 315 312 313 312 313 313 313 318 314 309 316 316 313 314 317 318 318 319 319 318 318 318 317 317 319 322 326 331 332 333 336 335 333 333 333 335 334 334
305 305 308 309 308 307 307 314 314 314 312 316 312 316 314 312 312 315 316 316 317 316 316 317 319 318 316 316 316 316 317 319 322 327 331 331 331 332 330 326 325 327 332 331
308 308 311 308 309 307 307 315 318 317 317 314 308 313 315 310 309 309 310 313 316 316 317 317 318 318 317 315 315 315 316 318 321 324 326 326 326 323 320 318 318 318 318 319
307 308 310 309 308 311 315 311 312 314 315 314 310 315 314 309 309 310 309 311 310 313 314 315 317 317 317 315 314 315 315 315 315 315 315 315 315 315 315 314 314 314 314 315
310 312 309 310 308 308 315 311 306 307 304 312 312 309 308 307 307 306 307 308 310 310 311 313 314 314 314 314 314 313 313 313 313 314 314 313 312 312 311 311 311 311 312 313
309 312 310 310 311 311 312 310 313 308 310 314 310 309 312 310 309 306 306 308 310 310 311 311 313 313 313 313 313 313 313 313 312 312 312 312 311 311 311 311 311 311 311 311
309 311 312 310 310 314 314 315 310 309 309 312 312 311 305 307 306 304 303 306 309 310 310 310 311 312 313 313 313 313 313 312 312 312 312 312 312 312 312 312 312 312 312 312
308 312 313 312 311 311 311 312 310 310 312 302 305 312 305 304 303 303 304 309 309 310 310 311 313 313 313 313 313 313 313 313 313 313 313 313 312 312 312 312 312 312 312 312
309 311 314 314 311 311 313 311 307 305 306 309 312 311 304 304 306 307 309 309 310 310 312 313 314 314 313 313 313 313 313 312 311 311 311 311 311 310 310 309 310 310 310 310
311 309 308 308 308 309 312 311 308 306 308 309 308 310 310 308 307 306 308 310 311 312 313 313 313 313 313 313 313 312 311 310 310 310 309 309 309 308 308 308 308 308 308 308
309 311 307 308 308 310 310 310 309 305 307 309 308 308 309 307 306 305 307 310 311 312 313 313 313 314 313 313 312 311 310 310 310 310 310 308 308 308 308 308 308 308 307 308
305 309 306 306 308 309 310 309 308 309 309 308 307 308 305 307 307 307 308 311 311 312 313 314 314 313 313 312 312 311 310 310 309 309 309 308 308 307 307 307 307 307 307 307
307 307 306 306 307 307 306 306 308 309 307 309 311 310 306 307 306 308 308 311 312 313 314 314 314 314 313 313 312 312 310 309 309 308 307 307 307 306 306 306 306 306 306 305
305 305 306 308 306 307 304 305 306 308 308 308 308 307 307 308 309 308 309 309 312 314 314 315 315 314 313 313 312 310 309 309 308 307 307 306 306 305 305 305 304 303 303 304
303 305 307 308 307 305 307 307 307 308 308 306 308 308 306 307 308 308 310 309 311 314 314 314 314 314 313 312 312 310 309 308 307 306 306 305 304 304 304 304 302 302 302 302
302 302 306 305 307 308 306 308 306 306 310 307 306 305 304 307 308 307 308 308 309 310 311 311 312 312 312 312 311 310 309 308 307 306 305 304 304 304 304 303 301 300 298 298
305 308 307 307 307 305 303 303 306 310 308 308 308 306 305 306 306 308 309 308 308 309 310 311 309 310 311 311 311 310 308 307 306 304 304 303 303 303 302 301 300 298 297 296
305 304 306 308 308 305 303 307 310 307 311 311 310 307 306 308 309 310 310 309 310 310 311 311 311 311 311 310 309 308 307 305 304 303 303 302 302 301 301 300 299 297 296 296
306 303 304 304 305 303 304 308 309 309 311 311 312 310 308 309 309 310 310 310 310 310 310 310 310 309 309 308 307 306 305 304 303 303 302 302 301 301 300 299 298 296 296 297
304 302 304 305 305 303 306 306 307 310 311 311 311 311 311 311 311 312 311 311 310 309 308 308 308 308 307 306 306 304 303 302 302 302 302 301 301 300 300 298 297 297 297 295
304 304 304 304 304 306 307 307 308 310 310 310 310 310 310 311 311 311 311 312 312 312 309 308 307 307 306 305 304 303 302 302 302 301 301 300 300 299 299 298 298 297 296 291
303 304 305 306 305 305 306 308 308 309 309 310 310 309 308 308 308 308 308 308 308 308 308 308 307 307 306 307 305 303 302 301 301 300 300 300 300 299 298 297 297 296 292 289

GFSCGP_850_thetae_090.txt.gz
Theta_e
303 310 311 312 311 311 313 314 314 316 318 320 319 319 319 318 319 320 320 321 322 323 324 323 327 329 331 332 330 332 331 335 337 336 335 336 337 337 337 337 337 336 333 333
305 309 309 310 310 312 314 313 316 314 318 319 319 319 319 319 319 319 319 319 320 322 324 323 323 324 331 331 330 330 330 330 331 332 333 335 335 335 335 337 337 337 336 335
307 309 308 310 312 311 314 313 315 317 318 318 319 319 318 318 318 318 319 320 320 322 323 322 321 321 321 327 331 329 326 325 323 325 325 328 330 331 332 334 335 335 334 334
306 308 309 311 311 310 315 313 315 316 317 318 318 317 318 318 319 319 318 320 321 323 323 323 320 320 320 319 318 324 324 325 324 326 323 326 329 328 327 330 335 336 336 335
308 311 311 312 311 309 315 314 314 316 317 317 319 320 318 316 319 319 318 319 319 321 321 321 321 320 320 320 322 320 318 324 324 322 320 326 327 326 329 329 330 333 333 334
306 307 310 311 310 310 308 313 315 316 317 319 316 318 316 316 317 318 318 318 318 318 318 319 319 319 319 319 319 321 320 317 321 323 322 325 325 328 325 325 329 330 328 330
307 308 310 309 310 308 307 315 318 318 318 316 313 318 316 315 315 315 317 317 318 318 318 318 318 319 321 319 318 316 318 319 319 320 322 321 323 324 325 330 328 322 321 321
309 309 310 309 310 311 310 314 316 314 315 313 313 317 314 315 315 315 313 313 313 317 318 318 318 318 318 319 318 317 316 315 316 317 322 326 327 326 324 321 318 316 316 315
312 312 310 309 307 309 314 317 311 314 312 314 314 314 314 313 314 312 312 312 312 312 313 316 317 316 317 317 319 317 316 315 315 316 316 316 316 315 315 314 313 313 312 312
311 313 309 310 309 307 308 312 317 317 318 315 315 314 312 314 314 312 312 312 313 312 311 311 313 314 315 315 315 314 314 313 313 313 313 313 313 313 312 311 311 311 311 311
308 312 312 310 311 312 313 316 314 315 316 316 316 315 312 311 311 311 310 309 310 311 311 311 312 312 312 313 313 313 312 313 313 313 312 312 312 311 311 311 311 311 311 311
307 312 312 314 312 312 312 315 314 318 316 311 315 315 309 311 310 310 311 311 311 311 311 312 311 311 312 312 312 313 313 313 312 312 312 312 312 312 312 313 313 313 313 312
311 314 315 315 313 312 312 313 312 312 314 316 316 315 309 308 310 310 311 312 311 311 312 311 311 311 312 313 313 313 313 312 312 312 312 312 312 311 311 311 311 311 311 311
312 312 312 314 313 313 314 315 313 315 318 315 316 314 313 311 312 311 310 312 312 312 312 312 311 311 312 313 313 313 313 312 312 311 311 311 310 310 310 309 308 308 309 309
311 314 311 311 311 312 313 314 312 313 314 317 314 313 313 313 312 311 310 311 312 312 312 312 312 312 313 313 313 313 312 311 311 310 310 310 309 309 309 308 308 308 308 308
310 312 310 310 311 311 313 312 313 313 313 312 311 312 310 310 311 310 311 311 312 312 312 312 312 313 313 314 313 313 312 311 310 310 309 309 309 309 308 307 307 307 307 307
310 311 312 313 309 310 311 310 312 312 311 312 314 313 311 310 310 310 311 310 312 312 313 312 313 314 314 314 313 312 312 311 310 309 309 308 308 307 307 307 306 306 306 305
309 309 310 311 309 310 307 307 308 310 310 311 311 311 311 311 311 310 309 309 311 313 313 313 314 314 314 313 313 312 311 310 310 309 308 308 307 307 306 306 305 305 304 303
307 309 310 311 310 309 311 310 310 310 311 309 310 310 310 310 309 310 309 309 309 312 313 313 314 315 314 314 313 312 311 310 309 308 308 307 306 306 305 305 305 303 302 302
306 307 310 310 311 309 311 309 307 308 315 310 309 310 309 308 311 311 308 308 308 309 312 314 314 314 314 313 313 312 311 310 310 308 307 306 305 305 304 304 303 301 301 300
310 310 312 310 310 308 307 307 307 313 314 310 310 308 307 309 309 308 308 308 307 308 309 310 311 311 312 312 312 311 311 310 309 307 306 305 304 304 303 302 302 300 300 299
309 309 310 310 309 309 305 309 311 311 310 312 310 307 307 308 308 309 308 308 308 309 310 311 311 310 310 310 310 310 310 309 307 305 304 304 303 302 302 302 301 299 298 297
309 308 309 309 308 306 305 309 309 308 310 311 311 308 308 308 309 310 309 309 310 310 310 311 311 310 310 310 310 309 308 307 305 304 303 303 302 302 301 301 300 299 297 296
307 304 308 308 307 307 307 306 306 308 311 310 311 310 310 309 310 310 311 311 310 310 309 309 309 309 309 308 308 307 306 305 304 303 302 302 302 301 301 300 299 298 297 296
307 306 308 308 308 308 307 307 307 309 310 309 310 310 311 311 310 310 309 310 310 311 310 310 308 308 307 307 307 306 305 304 303 302 302 301 301 301 300 300 299 298 297 297
306 308 309 309 306 307 307 307 307 309 309 309 310 309 308 308 308 307 308 308 308 308 308 308 308 309 306 305 305 306 304 303 302 302 301 301 301 300 300 299 298 297 296 296

GFSCGP_850_thetae_093.txt.gz
Theta_e
304 308 312 312 311 313 315 315 314 313 317 318 319 319 319 320 320 321 320 321 321 323 324 324 323 326 328 332 338 340 336 335 335 337 337 340 338 338 338 337 338 338 338 336
306 308 309 310 312 313 313 316 315 313 318 318 319 319 319 319 320 320 320 320 320 321 323 325 323 325 327 329 331 333 337 334 335 337 336 336 335 337 337 335 336 337 336 335
307 309 309 310 312 312 313 316 316 314 318 318 318 319 319 319 319 319 319 319 319 320 322 324 323 322 329 329 331 330 333 336 332 331 331 335 334 334 335 335 335 335 335 334
307 307 310 311 312 311 315 315 315 315 318 317 317 320 318 318 318 318 319 318 319 320 321 324 323 322 325 330 331 331 330 331 329 328 328 327 328 328 328 327 327 328 332 332
309 309 310 312 312 311 315 314 314 316 316 316 318 317 317 317 318 319 319 318 318 320 322 323 323 322 324 323 327 327 326 325 323 323 324 323 324 325 325 325 326 327 324 325
308 308 311 311 311 311 309 315 316 316 317 320 317 316 315 318 318 319 318 318 318 319 322 324 322 320 320 319 318 320 320 321 325 327 321 322 322 324 324 325 328 322 321 322
309 311 310 311 310 308 309 316 320 318 319 316 315 317 317 316 316 317 319 318 318 319 321 322 323 320 319 320 318 319 319 320 318 319 323 322 323 322 321 321 321 322 324 325
311 311 311 310 311 313 311 314 318 318 318 316 314 316 316 315 315 315 315 317 318 319 319 320 320 321 319 319 319 319 317 316 317 319 320 320 323 323 321 321 324 325 325 323
311 312 310 309 309 310 313 314 314 316 314 316 315 313 314 315 314 314 315 315 315 316 318 319 319 319 320 319 318 319 320 317 315 316 317 320 320 320 320 322 320 322 317 315
311 312 310 309 308 308 309 309 316 318 316 316 315 313 315 314 315 315 315 315 315 315 314 315 317 319 318 317 316 317 320 320 317 315 315 316 319 320 318 316 314 313 313 312
309 312 312 309 310 312 312 315 316 316 318 316 316 314 314 314 313 313 313 312 313 314 314 314 313 316 316 316 316 315 318 321 318 315 314 313 313 313 312 312 311 311 311 311
308 312 314 314 312 311 313 314 315 319 318 316 318 315 313 313 313 313 314 314 313 313 314 313 313 314 315 314 314 313 314 313 313 313 313 312 312 312 312 312 312 312 312 312
311 315 316 315 314 312 313 314 316 314 317 319 319 315 312 312 312 312 313 314 314 314 314 314 314 314 313 313 313 312 312 312 313 312 312 312 312 312 312 312 312 312 312 312
312 314 314 316 315 314 314 315 315 315 319 316 316 314 313 312 313 313 312 313 314 314 314 314 313 313 313 313 312 312 312 313 312 312 312 312 312 311 311 311 310 310 309 309
312 316 313 312 313 313 314 316 315 314 316 319 315 315 314 314 314 312 312 313 314 315 314 314 314 313 313 312 312 312 313 313 312 312 311 311 311 310 310 310 310 309 308 308
312 314 312 313 313 313 314 314 315 314 314 314 314 314 313 313 312 312 312 312 313 314 314 314 314 313 312 312 312 312 313 312 312 311 311 311 310 310 310 310 309 309 308 307
312 313 314 315 311 312 314 314 314 314 313 314 315 314 313 313 312 312 312 312 312 313 314 314 314 313 313 312 311 312 312 312 311 310 310 310 310 309 309 309 308 308 307 307
311 311 311 312 310 312 310 309 310 312 312 312 312 312 312 311 312 312 311 311 311 313 314 314 314 313 313 312 312 312 312 312 311 310 310 310 309 309 308 308 307 307 306 306
310 311 312 313 311 310 312 311 311 312 313 312 312 312 311 311 311 310 311 310 310 311 314 314 314 314 313 313 313 313 313 312 312 311 310 309 308 308 307 307 306 305 305 305
309 310 312 312 312 310 312 310 309 310 315 313 312 312 311 310 313 312 309 308 308 308 313 314 315 314 314 313 313 313 312 312 312 311 310 309 308 307 306 306 305 304 304 303
310 311 312 312 312 310 309 309 309 314 316 313 312 310 309 311 310 309 308 307 307 308 310 313 313 313 313 312 313 312 312 312 311 310 309 308 307 306 305 304 304 303 303 302
310 310 310 311 311 310 308 310 312 312 312 313 313 309 309 310 309 308 308 308 308 308 309 309 310 310 310 311 312 311 311 311 310 309 308 307 305 304 304 303 302 302 301 301
310 309 310 310 310 308 307 308 309 309 310 313 313 309 309 309 309 309 308 308 309 309 310 310 310 310 310 310 309 309 310 310 309 308 307 305 304 304 303 302 302 302 301 299
309 307 309 309 309 309 309 308 308 307 311 310 311 311 311 310 310 309 309 309 310 309 309 309 309 309 309 309 309 308 309 308 307 306 305 304 303 303 302 302 302 301 301 299
309 308 309 309 309 309 309 309 308 310 310 309 309 310 311 311 310 309 309 309 308 309 309 310 309 308 308 308 307 307 307 306 305 304 303 303 302 302 302 301 301 301 300 299
308 309 310 310 307 307 308 307 308 309 310 309 309 308 308 308 307 307 307 307 307 307 307 307 307 307 308 309 309 307 306 306 304 304 303 302 302 301 301 301 300 300 299 297

GFSCGP_850_thetae_096.txt.gz
Theta_e
304 307 309 308 308 312 313 314 314 314 315 315 318 318 318 318 319 320 321 322 322 323 324 325 324 325 338 339 340 337 338 338 339 339 338 337 339 338 337 337 336 335 336 336
304 305 306 308 308 312 312 316 314 315 315 316 318 319 317 317 320 320 320 320 321 321 323 324 324 324 336 336 336 336 334 337 336 335 335 338 338 338 337 337 337 336 336 336
306 307 307 309 310 312 311 313 316 316 316 317 317 318 318 317 319 320 320 320 320 320 322 323 324 324 333 336 337 336 335 335 334 334 335 335 335 337 337 336 334 334 335 335
305 306 309 310 312 312 313 312 312 316 317 321 318 320 319 318 318 317 319 319 319 320 320 322 324 323 331 335 334 333 335 336 333 332 333 332 333 333 333 334 334 333 332 333
307 308 309 312 313 311 313 312 315 316 317 316 318 318 317 317 316 316 317 319 319 319 319 321 323 323 325 332 332 330 331 336 335 332 330 329 328 328 328 328 327 328 327 326
306 307 311 311 311 311 310 314 316 316 317 318 317 315 312 314 316 315 316 317 318 318 319 321 323 323 323 325 330 330 329 330 331 328 327 326 327 327 325 325 325 325 325 326
311 311 310 310 310 309 310 314 318 319 318 319 316 316 313 314 315 315 316 317 318 318 319 321 323 322 322 324 321 325 327 330 326 326 325 322 322 323 323 324 323 323 325 324
310 309 310 309 311 311 311 313 317 315 314 313 315 319 313 313 314 315 315 318 318 318 319 322 322 321 321 322 319 320 320 320 320 322 323 323 322 323 322 321 323 322 322 320
311 311 309 310 310 310 312 314 312 316 314 314 312 312 312 312 312 314 315 315 315 318 319 321 321 322 321 321 321 319 318 318 316 317 318 323 326 325 324 324 325 326 325 324
310 311 310 309 308 308 309 308 316 316 318 320 313 311 313 313 312 312 313 314 314 315 317 318 319 320 320 320 319 317 317 318 318 316 316 317 318 320 321 320 320 320 320 317
309 311 311 310 310 310 309 310 314 316 316 315 313 312 312 311 312 311 311 313 314 315 315 315 317 318 319 318 318 316 316 317 318 318 318 317 315 316 318 318 316 314 313 312
309 312 311 311 311 311 311 311 314 317 317 315 316 312 310 310 311 312 314 313 313 313 314 314 313 315 317 317 317 316 315 316 317 318 319 319 317 314 313 312 312 312 311 311
310 313 315 314 312 312 313 313 315 315 314 318 320 312 310 311 311 312 312 314 314 313 314 314 313 314 315 316 315 315 314 315 316 317 319 318 314 312 312 312 312 312 312 312
311 313 313 316 315 312 311 312 314 313 316 315 316 312 311 310 311 311 312 314 314 314 314 314 314 314 314 313 313 313 313 312 312 312 313 312 312 312 312 312 312 311 311 311
311 314 312 313 313 313 313 314 314 312 314 315 315 314 312 311 311 311 312 313 314 315 314 314 313 313 313 313 313 312 312 312 312 312 312 312 312 312 311 311 310 310 310 310
310 314 312 311 313 313 314 315 314 314 314 313 313 313 312 311 311 312 312 312 313 314 314 314 314 313 313 313 312 312 312 312 312 312 312 311 311 310 310 310 310 310 310 309
312 314 312 315 311 312 313 313 314 314 313 314 314 313 311 311 311 312 312 312 312 313 314 314 314 313 312 312 312 312 312 312 312 311 311 311 310 310 310 310 309 309 309 308
309 310 310 310 310 312 309 308 309 313 312 311 311 310 310 311 311 311 311 311 311 313 314 314 314 313 313 312 312 312 312 312 312 311 311 310 310 310 309 309 309 308 308 307
308 309 311 311 310 309 310 310 310 311 312 311 311 311 311 311 311 310 311 310 310 310 313 314 314 314 313 313 312 312 312 312 312 312 311 310 310 310 309 309 308 308 307 306
308 308 310 309 311 311 311 309 309 310 313 312 312 311 309 310 309 308 308 309 309 308 313 314 314 314 314 313 313 312 312 312 312 311 311 310 310 309 309 308 307 306 306 305
309 309 309 310 310 309 308 309 309 313 314 313 312 309 309 308 308 308 308 307 307 308 312 314 314 314 314 313 313 312 312 312 311 311 310 309 309 308 308 307 306 305 304 304
309 308 309 310 310 309 309 309 312 311 313 313 313 309 309 310 309 309 308 308 307 308 308 311 313 313 313 313 312 312 312 311 311 310 309 308 308 307 307 306 305 304 303 303
309 307 308 308 309 307 307 307 307 308 308 312 312 310 309 310 309 308 308 308 307 308 308 309 309 309 309 309 309 309 310 309 309 309 308 307 306 306 305 304 303 303 302 302
309 307 306 308 308 308 309 308 308 308 311 311 311 311 311 310 310 309 309 309 310 309 309 308 308 308 309 309 309 309 309 309 309 308 307 306 305 305 304 303 303 302 301 301
307 307 308 308 307 309 308 307 308 309 310 310 310 311 311 311 309 310 308 308 308 308 308 308 308 308 308 307 307 307 307 308 307 306 305 305 304 303 303 302 302 301 301 300
307 306 307 310 305 305 306 306 307 309 310 309 309 309 308 308 308 307 307 306 306 306 306 306 307 307 307 307 307 307 307 306 305 304 304 304 304 303 302 302 301 301 300 300

GFSCGP_850_thetae_099.txt.gz
Theta_e
303 304 304 309 307 308 311 312 313 313 314 319 320 319 317 319 320 320 320 322 322 326 325 325 324 326 334 337 340 340 339 339 339 340 340 338 337 337 337 336 336 336 335 335
301 303 304 308 308 308 311 313 312 312 313 314 316 318 317 315 316 318 319 321 321 323 325 325 324 325 333 335 337 337 336 338 339 338 338 338 338 338 336 336 336 336 335 335
302 305 305 307 309 309 310 314 313 313 315 315 315 317 318 317 316 319 319 320 321 321 321 324 324 324 325 335 335 333 331 335 335 338 337 337 337 336 337 337 337 337 335 334
303 305 306 308 310 310 314 312 312 316 316 318 316 319 317 317 316 316 318 319 320 320 320 322 324 324 324 325 335 335 334 331 333 334 334 334 334 335 335 338 336 335 333 333
304 306 307 312 311 310 313 312 315 314 316 315 318 319 316 316 317 316 315 319 319 319 319 321 323 324 325 325 329 334 335 334 335 334 334 334 334 333 334 334 332 331 330 330
305 305 309 310 310 311 310 315 316 315 317 315 317 317 311 317 317 315 314 318 319 319 318 319 322 324 324 330 330 334 337 336 335 333 332 333 330 330 328 328 326 326 325 326
308 310 310 310 310 309 310 314 317 318 319 315 316 315 312 312 314 314 313 316 319 318 318 318 322 323 323 326 330 331 332 333 333 331 331 329 328 327 327 327 326 326 326 326
303 310 311 310 310 309 311 312 312 318 317 312 315 315 313 310 311 314 315 317 317 318 318 318 320 322 323 323 324 329 328 331 331 330 325 324 323 323 323 322 322 322 322 323
306 310 310 309 310 310 312 312 312 315 314 310 314 311 309 310 311 311 313 315 316 317 318 318 320 323 323 323 323 325 327 328 328 326 325 324 322 322 322 322 322 322 320 321
309 311 309 309 308 307 310 308 314 312 316 316 310 311 309 311 311 311 311 313 314 316 317 319 321 322 322 321 321 320 320 322 320 320 320 320 320 321 322 323 323 322 323 325
308 307 310 308 309 307 307 308 313 314 311 314 311 309 309 310 309 310 310 312 314 315 316 318 321 321 321 321 320 320 319 318 318 317 316 316 319 321 322 323 322 321 321 320
308 309 308 308 311 309 308 310 314 310 315 308 305 309 309 309 309 311 312 312 313 314 314 315 315 318 320 319 319 318 317 317 317 316 315 316 316 317 317 316 314 314 312 312
309 312 310 311 312 311 312 312 314 314 310 313 315 310 309 309 308 312 313 313 313 313 314 313 313 316 318 318 318 317 316 316 316 316 315 316 315 315 317 317 317 314 312 312
310 311 311 309 309 309 310 311 312 309 309 316 315 312 310 310 310 310 312 314 314 313 313 313 314 315 316 316 316 316 315 315 315 315 315 315 314 314 316 315 313 312 312 311
311 313 311 311 312 312 311 311 313 312 313 315 315 312 312 310 309 310 311 314 314 314 314 314 314 314 314 314 314 314 314 313 313 313 312 312 312 312 312 312 312 311 310 310
307 310 311 307 312 312 313 313 313 313 313 313 312 313 309 310 311 311 311 312 314 314 314 313 313 313 313 313 313 312 312 311 311 311 311 311 311 312 312 311 310 310 310 310
310 311 310 310 310 311 312 312 313 313 312 313 313 311 309 310 310 310 311 311 312 314 314 314 313 313 313 313 313 312 312 311 311 311 311 311 311 311 310 310 310 310 309 309
308 307 307 307 308 311 308 307 309 312 311 310 310 309 310 310 311 310 310 311 310 312 314 314 314 313 313 312 312 312 311 311 312 311 311 310 310 310 310 310 309 309 309 309
306 307 308 309 307 308 310 309 309 310 312 310 310 310 309 310 310 309 309 310 310 310 311 314 314 313 313 312 312 312 312 311 311 311 310 310 310 310 310 309 309 309 308 308
306 306 307 306 308 310 310 308 309 308 311 311 311 308 308 309 309 307 308 308 309 309 310 313 314 314 313 313 312 312 311 311 311 311 311 310 310 309 309 309 308 307 307 306
307 306 307 308 308 307 308 308 309 309 311 312 310 308 309 307 307 308 307 307 307 308 311 314 314 314 313 313 313 312 311 311 311 311 310 310 309 309 308 308 307 306 305 305
306 305 306 305 308 307 309 309 311 309 311 312 311 308 309 309 309 308 308 308 308 308 308 313 314 314 314 313 312 312 311 310 310 310 309 309 308 308 308 307 306 305 304 304
307 305 308 306 307 305 307 306 307 307 308 312 311 309 309 309 308 308 308 308 308 308 308 309 310 312 313 312 312 311 310 310 310 309 309 308 308 308 307 306 305 304 303 303
307 306 305 306 307 306 308 308 308 309 310 311 311 311 310 309 309 309 309 309 309 309 308 308 308 308 309 309 309 308 308 308 308 308 308 308 307 306 305 304 303 303 302 302
305 306 306 307 305 306 306 306 306 308 310 309 310 311 311 310 309 308 307 307 307 307 307 307 307 307 307 307 307 307 307 307 307 307 306 305 305 305 304 303 303 302 302 301
303 304 306 306 304 305 305 305 306 308 309 309 309 308 309 308 307 307 306 306 306 305 305 305 306 306 306 306 306 306 306 305 305 305 305 305 304 304 303 303 302 302 301 300

GFSCGP_850_thetae_102.txt.gz
Theta_e
302 299 301 308 307 308 309 312 314 313 316 319 319 318 321 322 321 320 320 320 321 323 325 328 335 337 337 337 337 338 339 339 339 338 339 338 336 337 337 336 336 335 334 334
299 301 305 305 307 308 310 311 313 313 314 318 318 318 318 321 320 319 319 319 320 322 325 326 326 330 337 337 336 337 337 338 337 336 338 339 338 337 336 335 336 335 335 334
301 303 304 305 309 308 310 311 312 314 315 314 316 318 318 317 318 318 318 318 319 320 324 326 325 325 329 333 336 338 337 338 338 337 338 337 338 337 336 335 335 335 336 335
301 304 306 307 310 309 310 311 312 312 315 318 315 318 316 315 316 315 317 318 319 318 321 325 324 325 327 326 329 334 334 335 338 338 337 336 335 336 336 336 336 336 336 336
300 305 307 309 309 309 312 313 312 313 314 315 318 317 315 314 316 315 315 316 317 318 318 319 324 324 324 325 325 329 333 332 333 335 336 334 335 335 335 336 335 334 335 335
304 304 306 310 310 310 310 314 315 315 315 314 317 317 314 316 315 315 314 315 318 319 318 319 320 324 324 325 326 328 329 332 334 333 333 334 334 333 334 333 334 336 334 331
306 308 310 310 310 308 310 314 317 318 318 313 315 319 316 312 314 315 314 316 317 319 318 318 320 324 325 325 325 326 326 331 330 332 332 333 333 333 333 331 330 329 327 327
308 310 311 309 309 307 311 311 315 318 313 316 316 317 313 310 310 315 315 316 318 318 318 318 318 322 325 326 325 324 326 328 329 330 331 332 332 331 328 327 326 326 325 325
307 311 310 310 309 309 311 312 312 312 310 311 314 311 308 309 309 309 313 315 317 318 318 318 318 318 322 324 324 325 324 325 326 327 330 331 329 327 327 326 324 322 322 321
308 310 309 309 308 306 309 309 310 309 315 313 311 309 310 311 311 310 310 312 315 316 317 317 317 318 320 322 323 323 324 326 326 328 329 327 323 322 322 322 322 322 322 321
307 306 308 308 308 309 309 310 312 313 308 310 309 308 307 307 309 310 309 312 313 315 316 316 317 318 321 322 322 322 323 323 327 328 327 325 325 323 322 322 322 322 323 322
308 307 306 306 310 308 307 309 312 305 312 304 301 309 307 305 308 309 311 312 312 313 315 317 317 318 322 322 321 320 319 319 319 320 319 319 320 320 321 323 322 318 318 316
308 309 308 306 311 309 310 311 312 309 305 309 304 308 307 306 307 311 312 312 313 313 313 314 318 321 321 321 320 319 319 317 317 317 316 316 316 317 316 316 315 315 314 315
310 311 306 303 307 308 308 311 312 306 304 311 307 312 310 308 309 309 312 313 313 313 313 314 314 316 319 320 319 318 316 316 316 316 316 315 315 315 315 314 314 313 313 313
310 311 311 311 310 310 309 310 311 306 312 315 314 313 311 308 308 309 311 313 313 313 313 313 315 316 317 317 317 316 316 316 315 315 315 315 315 315 315 314 312 311 311 311
306 309 308 307 310 311 312 311 312 313 312 313 313 312 309 309 310 309 310 312 313 313 313 313 314 314 314 315 315 315 314 314 314 314 314 314 314 313 311 311 311 310 310 310
310 308 308 308 308 310 309 312 311 312 312 311 312 310 309 310 310 309 310 310 312 313 313 313 313 313 313 313 313 312 312 312 312 311 311 311 311 311 311 310 310 310 310 310
307 306 306 305 305 309 308 306 310 311 310 309 309 309 309 309 309 309 309 309 309 311 313 314 313 313 313 313 312 312 311 311 311 311 311 311 311 310 310 310 309 309 310 310
304 306 307 307 306 306 309 309 309 310 311 309 310 309 308 309 309 308 308 308 309 309 310 313 314 313 313 312 312 312 311 311 311 311 311 310 310 309 309 309 309 309 309 309
304 304 306 305 307 310 309 307 308 308 312 311 310 308 308 308 308 307 308 308 308 308 309 311 314 314 313 313 312 312 311 311 311 311 310 310 310 309 309 309 309 309 308 307
305 305 306 307 308 306 307 307 308 308 309 312 309 308 308 307 307 308 308 307 307 307 309 312 313 314 313 313 312 312 312 311 311 310 310 310 309 309 308 308 308 308 307 306
305 304 305 304 307 307 308 308 311 308 310 312 310 308 309 309 308 308 308 307 307 307 309 312 313 313 313 313 312 312 311 310 310 310 310 309 309 308 308 308 308 307 306 306
306 304 306 305 305 304 306 306 307 307 307 311 311 309 309 309 308 308 308 308 307 307 308 310 312 312 313 312 311 310 310 310 309 309 309 308 308 308 308 307 307 306 304 304
306 304 303 305 305 305 306 306 307 309 310 310 310 310 310 309 309 309 308 308 308 308 308 307 307 308 309 309 310 310 309 309 308 308 307 307 307 307 306 306 305 304 304 303
303 303 304 305 305 304 305 304 306 308 309 309 310 310 309 309 309 308 307 307 306 306 307 307 307 307 307 307 307 307 307 306 306 307 306 306 306 305 304 304 303 303 303 302
302 302 304 305 304 305 306 306 306 307 308 308 308 309 309 308 308 307 306 305 305 305 305 304 305 305 305 305 305 306 306 305 305 305 305 304 304 303 303 303 303 303 303 303

GFSCGP_850_thetae_105.txt.gz
Theta_e
302 299 300 303 307 307 308 311 312 313 317 318 316 316 315 315 315 321 320 320 321 325 328 332 334 333 335 336 337 337 337 339 340 338 337 337 336 336 336 336 335 335 334 332
298 299 304 304 307 308 308 311 312 313 314 318 317 317 317 316 315 319 319 318 320 322 326 329 332 335 332 334 336 337 338 337 337 338 338 337 337 336 336 335 335 335 335 333
300 302 303 304 308 309 309 311 311 314 316 316 318 319 319 318 317 317 318 317 319 320 321 325 328 333 334 335 337 337 337 336 337 336 336 336 336 336 336 336 336 335 335 334
300 303 306 306 310 308 310 310 312 313 317 319 316 320 318 317 318 318 317 317 320 320 320 320 323 329 333 332 334 335 336 337 336 335 335 335 335 335 328 335 335 335 335 335
298 304 306 309 309 308 312 311 311 312 316 317 317 316 315 316 318 317 316 317 320 320 320 320 321 326 325 329 333 333 334 336 336 335 336 335 335 335 333 334 336 336 335 335
302 304 305 309 309 309 308 313 313 314 315 313 316 315 314 316 315 314 315 317 319 320 319 319 319 324 324 326 327 329 331 333 334 335 336 335 335 334 334 336 337 335 334 334
306 307 306 310 310 307 307 313 316 316 315 313 316 317 313 313 313 313 313 314 318 318 316 316 317 320 324 325 325 326 327 329 331 331 333 333 335 334 333 333 332 332 331 330
308 310 311 309 308 309 310 312 306 315 314 316 316 316 314 311 310 312 314 314 314 315 316 317 318 319 321 324 326 325 325 326 328 329 329 329 331 332 332 332 331 329 328 327
307 308 310 308 308 308 310 312 311 308 308 312 314 311 308 308 309 309 313 315 315 316 317 317 318 318 321 323 325 324 324 325 325 327 328 329 329 330 330 330 328 327 326 325
306 307 308 309 307 306 310 309 314 304 307 315 313 309 309 308 308 309 310 312 315 316 317 317 318 318 318 322 324 325 324 324 324 324 325 325 328 330 330 328 326 326 324 322
306 303 305 306 307 307 308 307 312 312 306 310 311 309 307 307 306 308 307 311 313 314 315 317 317 317 317 319 323 324 325 325 323 326 326 328 330 329 325 324 324 323 321 321
307 303 301 305 307 308 307 308 310 308 311 305 301 310 305 305 307 309 310 311 312 313 314 315 315 316 317 319 323 324 323 322 323 323 325 328 327 324 323 322 322 322 322 323
308 307 301 303 308 308 309 310 311 307 303 311 302 309 306 306 307 310 311 311 312 312 313 316 315 316 317 319 321 321 321 321 321 321 323 326 325 325 325 323 321 323 323 319
310 311 304 302 306 307 308 310 311 301 302 311 305 310 308 307 308 308 311 312 312 312 313 314 317 317 318 320 321 321 320 319 319 318 318 317 317 317 318 319 319 317 314 313
310 311 312 311 310 309 309 310 311 303 309 305 312 312 309 307 306 308 309 312 312 313 312 313 314 316 319 320 319 319 319 318 317 315 315 315 315 315 315 314 313 314 314 313
307 309 307 306 309 310 311 310 310 312 311 312 311 312 309 309 309 309 310 312 312 313 313 313 314 315 316 317 317 316 316 315 315 315 315 315 314 314 314 314 314 313 311 311
308 306 304 306 305 310 308 308 310 311 311 311 313 311 309 309 308 308 309 309 310 311 313 313 313 313 314 315 315 315 315 315 314 314 314 314 314 314 313 311 311 310 310 309
305 305 305 305 304 308 306 306 309 310 309 309 309 309 308 308 308 308 308 309 309 310 312 313 313 313 313 313 313 312 312 312 312 311 311 311 311 310 310 310 310 309 309 309
302 304 307 306 305 306 309 308 309 310 311 309 310 309 308 308 308 308 308 308 308 309 309 311 313 313 313 313 312 312 311 311 311 311 311 310 310 310 310 309 309 309 309 309
303 303 304 305 306 310 308 306 306 307 312 310 309 307 307 308 307 306 308 307 307 307 309 310 311 313 313 313 312 312 311 311 311 311 310 310 310 309 309 309 308 308 308 308
304 304 305 306 305 305 304 306 307 308 306 311 309 308 308 306 306 308 308 307 307 307 308 309 311 313 313 312 312 312 311 311 310 310 310 310 309 309 309 308 308 308 308 308
305 303 305 303 307 306 304 307 310 306 309 311 310 308 308 308 308 308 307 307 307 307 309 312 312 313 313 312 312 312 311 310 310 310 310 309 309 309 308 308 308 307 307 307
305 303 305 303 304 303 306 306 307 308 307 310 310 309 309 308 308 307 308 308 307 307 307 310 311 312 312 312 311 311 310 310 310 309 309 309 309 308 308 307 307 307 306 306
304 303 302 304 304 303 304 305 306 309 309 310 310 310 309 308 308 308 308 307 307 307 307 307 308 310 311 311 311 310 310 310 310 309 308 308 307 307 307 307 306 306 305 305
301 302 303 303 303 303 304 305 306 308 308 309 309 310 309 309 309 308 308 306 306 306 306 306 307 307 307 307 307 307 307 307 307 307 307 307 307 306 306 305 305 304 304 303
301 301 303 307 303 304 305 305 306 305 306 307 308 308 309 309 309 308 306 305 305 305 304 304 304 305 305 305 306 306 306 306 306 305 305 305 305 305 304 304 303 304 304 303

GFSCGP_850_thetae_108.txt.gz
Theta_e
301 299 297 300 304 307 307 307 309 312 315 315 316 315 314 314 310 313 318 319 319 323 327 332 333 334 335 335 335 336 336 337 338 338 337 337 335 333 333 333 333 333 331 329
298 299 301 304 304 307 308 308 312 312 313 316 316 316 316 312 312 313 317 317 318 320 321 330 333 333 333 335 337 338 339 338 339 338 337 335 335 334 336 334 335 335 334 333
300 301 302 304 305 308 309 310 312 314 317 317 317 319 318 315 315 316 315 316 317 320 321 324 331 332 332 333 334 336 337 336 337 336 337 336 335 335 336 335 335 333 333 335
300 301 304 306 306 308 308 309 313 316 316 320 314 320 319 317 317 317 317 316 317 319 320 321 324 331 331 329 333 331 333 335 336 336 336 333 332 334 334 333 333 331 332 333
297 303 305 308 309 308 311 311 312 313 313 318 316 315 317 317 318 317 315 315 317 320 320 320 321 326 332 332 331 331 332 336 336 335 334 328 327 332 331 331 329 331 333 334
301 303 304 306 309 307 307 312 313 313 313 313 316 314 315 318 317 316 315 316 318 319 320 320 320 321 328 331 330 328 332 331 335 335 335 334 333 333 332 331 331 332 329 334
306 306 305 306 309 307 306 307 311 310 310 315 313 315 313 315 314 315 315 315 317 319 319 320 319 321 323 328 332 331 332 332 332 333 332 333 332 332 332 332 332 332 332 331
307 309 310 309 309 309 309 307 307 314 316 316 315 316 313 310 312 314 315 315 317 319 319 318 318 318 321 324 325 327 327 328 329 330 330 329 329 330 331 332 331 331 330 330
308 309 309 308 307 308 311 312 310 309 308 308 312 310 308 307 307 308 311 313 315 318 316 318 317 318 319 320 324 325 325 326 326 327 327 327 327 330 329 330 330 328 327 326
306 300 306 309 307 307 310 310 310 307 311 316 313 309 309 308 307 306 309 312 313 315 315 316 316 317 319 321 323 325 323 325 325 326 326 326 328 328 329 330 329 327 326 325
305 302 304 304 308 308 310 310 311 309 307 312 312 310 307 306 305 307 307 309 311 313 314 315 316 317 317 319 323 324 324 323 323 324 323 325 325 326 328 329 327 326 325 323
306 302 304 308 307 308 307 308 310 306 311 304 304 311 305 304 307 308 309 310 310 311 314 315 315 316 317 317 320 324 324 324 324 323 324 323 326 328 328 328 325 324 323 321
308 304 296 301 304 307 308 309 310 305 304 311 308 311 306 305 306 309 310 311 312 312 313 315 314 314 315 317 319 323 323 324 324 323 322 322 327 328 327 324 322 322 322 321
309 310 303 304 308 306 306 309 308 300 304 309 306 310 307 305 305 306 310 312 312 312 313 313 316 314 315 316 319 322 322 321 321 321 321 322 325 325 324 324 324 322 321 322
308 308 310 311 310 309 309 309 310 302 307 304 310 310 308 307 306 306 309 312 312 312 312 312 314 316 317 317 318 320 320 319 318 318 318 318 318 319 319 318 318 318 314 313
307 307 306 306 306 310 309 308 310 310 311 311 310 311 308 308 308 308 308 309 310 312 312 312 313 314 316 317 317 317 317 317 316 316 315 315 315 315 314 313 313 313 314 314
308 304 303 305 304 309 306 306 310 311 310 310 312 310 308 307 307 307 308 308 308 310 312 313 313 313 314 315 316 316 315 315 315 315 314 314 314 314 313 313 314 314 312 310
305 304 304 305 304 308 305 306 307 309 308 307 308 308 308 308 307 307 307 308 308 308 310 312 313 313 312 313 313 313 314 314 314 314 314 313 313 313 313 312 311 310 310 309
302 303 306 306 304 305 309 307 311 310 310 309 309 308 307 307 307 307 307 307 308 308 308 309 311 313 313 312 312 312 312 312 312 311 311 311 310 310 310 310 309 309 309 309
302 301 303 304 305 309 307 305 305 307 311 310 308 307 307 307 306 304 307 307 307 307 307 308 309 312 313 312 312 312 311 311 310 310 310 310 309 309 309 309 308 308 308 309
303 303 304 305 304 305 303 305 306 307 304 310 308 307 307 305 306 307 306 307 307 307 308 310 310 312 312 312 312 311 311 310 310 309 309 309 309 309 308 308 308 309 309 309
304 302 304 303 306 305 303 305 308 304 307 310 309 308 308 308 307 307 307 307 307 307 309 311 311 311 312 312 312 311 311 310 310 309 309 308 308 308 308 308 308 308 308 308
304 301 303 303 303 302 305 305 307 308 307 309 309 309 308 308 308 307 308 308 307 307 307 308 310 311 311 311 311 311 310 310 310 309 309 309 309 308 308 308 308 308 308 308
303 301 301 303 303 302 304 305 307 308 308 308 309 309 309 308 308 308 308 307 307 307 307 306 306 309 310 310 310 310 310 310 309 309 309 308 308 308 308 308 308 307 307 306
301 302 301 301 302 302 304 305 305 307 308 308 308 309 309 308 308 308 308 306 306 305 306 306 306 306 307 307 307 308 308 308 308 308 308 307 307 306 306 306 306 306 306 305
299 300 302 303 303 303 304 304 305 305 304 306 307 308 308 308 308 308 307 305 304 304 304 303 303 303 303 304 304 305 305 306 306 305 305 305 306 306 306 306 305 305 304 303

GFSCGP_850_thetae_111.txt.gz
Theta_e
300 302 302 301 301 303 304 306 306 306 307 311 311 310 313 314 312 309 309 311 313 318 327 331 332 335 334 334 334 331 329 338 337 335 336 334 330 322 326 323 320 320 323 325
299 301 301 301 303 304 304 308 308 308 309 311 312 312 314 312 310 310 311 313 314 316 322 331 332 334 334 332 332 329 333 338 338 337 336 334 334 327 327 323 325 327 327 326
301 301 301 303 305 306 305 308 309 312 313 313 314 316 317 313 312 312 313 314 314 316 321 329 332 332 332 334 331 332 337 339 338 336 336 336 336 335 332 331 332 333 332 332
300 300 303 306 307 306 309 309 311 314 316 318 314 320 318 316 314 314 315 313 315 317 321 326 332 333 332 329 332 336 337 338 336 337 335 336 336 335 333 333 333 334 333 332
299 301 304 304 309 308 311 306 312 315 317 316 317 317 318 316 316 316 316 315 316 317 320 324 330 332 332 331 330 334 334 329 331 336 335 335 334 332 333 334 333 332 331 330
301 301 304 305 307 306 307 311 312 313 314 317 316 315 317 318 316 316 315 315 317 318 319 319 324 330 331 331 331 331 333 328 326 327 334 334 332 329 331 332 330 328 327 330
305 306 305 305 308 307 308 306 310 314 314 317 315 316 314 314 315 316 315 315 317 318 318 317 320 325 327 331 331 330 330 330 329 329 327 327 328 328 328 331 327 327 327 329
302 306 310 308 309 309 309 307 311 313 315 317 314 316 311 307 307 313 314 314 315 318 318 316 315 318 324 330 330 330 329 330 328 327 327 332 330 327 328 329 328 331 330 330
307 304 308 307 306 306 311 310 311 310 308 314 312 309 308 308 307 307 310 315 315 316 317 316 316 316 320 327 327 325 326 328 328 328 328 327 326 325 327 329 330 331 330 330
306 304 304 307 306 308 309 310 311 309 312 317 311 310 311 308 308 307 310 312 316 318 318 317 315 316 318 320 327 328 327 327 327 328 327 328 328 328 329 329 328 328 327 326
305 301 305 305 309 310 309 311 310 309 307 314 314 314 307 306 306 308 308 308 315 316 315 317 316 316 317 322 325 327 325 326 325 326 326 325 326 326 327 328 328 326 326 325
306 302 305 308 306 308 307 308 309 309 312 304 310 313 305 305 307 308 308 309 310 314 314 315 316 315 317 320 324 326 325 325 323 324 324 324 324 326 327 328 327 326 325 324
309 305 301 304 306 306 307 308 309 304 306 309 310 312 306 304 306 308 309 310 311 312 314 314 315 318 315 317 322 325 325 324 324 324 324 324 323 326 327 328 327 325 324 322
309 310 304 311 310 307 308 309 307 301 310 310 308 309 307 306 306 306 309 311 311 311 312 314 314 313 315 315 318 324 324 323 324 324 323 322 323 326 327 326 323 322 322 322
307 308 310 309 310 309 308 309 309 307 307 308 310 309 307 306 305 305 307 309 311 312 312 313 314 316 315 316 318 322 323 323 322 322 323 321 323 324 324 324 324 323 322 320
305 305 305 305 308 307 308 308 309 310 310 309 309 310 307 306 308 307 307 307 309 310 312 312 313 314 316 317 317 318 319 318 318 318 318 319 319 319 319 319 318 318 317 315
305 304 303 305 304 308 306 306 309 310 308 309 311 309 306 306 306 306 307 307 307 308 310 311 312 312 314 315 316 316 317 316 316 316 315 315 315 315 315 314 314 313 312 312
304 303 304 304 303 307 304 305 306 309 308 306 307 307 306 306 306 307 307 307 307 308 308 309 311 312 312 313 314 314 314 314 314 314 314 314 314 314 313 312 312 312 312 310
301 302 305 305 304 305 308 306 310 311 311 308 308 305 306 307 306 306 307 307 306 307 307 308 309 311 312 312 312 312 312 313 313 313 313 313 313 313 313 313 312 310 309 309
302 299 303 304 305 309 307 304 305 307 311 308 307 306 306 306 306 304 307 307 307 307 307 308 309 310 313 312 312 312 311 311 311 310 310 310 310 310 309 309 309 308 308 308
302 302 303 306 304 304 303 303 305 306 306 309 307 307 307 305 305 307 307 307 307 307 308 310 310 310 312 312 312 311 311 310 310 309 309 309 308 308 308 308 308 308 308 308
303 302 304 302 305 306 303 304 307 303 306 309 308 307 307 307 307 307 308 308 308 307 308 310 310 311 311 311 311 311 310 310 310 310 310 309 309 308 308 308 307 307 307 307
304 301 303 302 303 301 305 305 306 307 307 308 309 308 308 308 307 307 308 307 307 308 307 308 309 310 311 311 311 310 310 310 309 309 309 308 308 308 308 307 307 308 308 308
302 300 301 303 303 303 304 305 307 307 308 308 309 309 308 308 308 308 308 307 306 306 307 307 306 307 309 309 309 309 309 309 309 309 308 308 308 308 308 308 307 307 306 306
300 300 299 300 301 303 304 304 306 306 307 307 308 308 309 308 308 308 307 306 305 305 305 305 305 306 306 305 306 307 308 308 307 307 307 307 306 306 306 306 306 306 306 306
299 299 301 302 302 302 303 305 305 305 304 304 306 307 307 308 308 308 307 305 305 304 303 302 302 302 302 303 303 303 304 304 305 304 305 305 305 304 306 306 305 305 304 304

GFSCGP_850_thetae_114.txt.gz
Theta_e
304 305 305 304 304 305 304 305 306 305 306 308 311 312 312 315 316 316 317 315 314 315 315 318 327 326 329 329 333 337 338 337 337 334 334 333 332 331 333 331 329 324 322 322
304 305 303 303 303 304 305 305 306 306 308 309 311 313 312 313 315 315 315 314 314 315 315 317 325 330 323 332 333 331 336 338 336 336 335 335 335 332 327 328 328 327 327 328
304 303 303 303 304 306 306 307 307 308 310 310 313 313 313 314 313 313 314 314 314 314 316 317 323 331 326 331 333 335 336 335 337 337 334 335 335 331 324 324 323 323 321 323
304 303 303 304 306 306 308 308 310 312 311 316 313 316 314 313 314 315 315 316 316 316 316 318 321 332 331 332 335 336 337 339 337 337 336 334 335 332 322 325 322 322 326 327
305 302 304 305 305 307 311 307 309 313 313 316 315 319 316 315 317 316 316 317 317 316 316 318 320 331 329 332 332 335 335 335 339 334 336 335 336 333 330 328 326 330 331 331
305 304 304 305 306 306 307 310 312 312 314 320 317 318 320 319 317 318 316 316 316 318 317 318 324 334 331 331 326 330 333 336 335 336 335 335 335 335 334 331 331 333 332 331
307 308 306 305 307 309 308 313 316 318 320 320 318 315 313 312 315 316 317 315 317 317 318 317 322 330 332 330 327 326 327 327 327 331 333 333 334 332 330 331 330 332 332 330
309 311 309 308 309 310 309 312 316 317 320 320 316 317 312 310 309 311 316 314 315 316 316 315 321 328 330 330 330 328 328 327 326 326 327 328 329 330 330 329 329 329 330 327
309 310 307 307 305 307 311 314 312 315 312 317 316 313 313 311 312 311 315 313 315 317 314 314 318 326 328 331 331 331 330 329 329 328 328 327 327 327 328 326 326 325 328 327
308 310 306 308 307 309 311 310 316 315 318 320 315 317 314 312 311 311 315 313 315 316 313 314 317 319 328 328 328 325 328 330 329 329 328 324 324 326 326 327 324 326 323 324
307 307 311 309 311 312 312 313 313 312 312 318 318 317 309 311 311 311 313 314 314 315 314 313 314 320 321 327 326 325 327 328 328 327 326 326 325 325 324 325 328 324 327 327
308 308 312 311 308 309 310 312 312 317 315 312 316 315 309 310 311 311 310 312 313 314 315 314 314 315 324 325 326 326 326 326 326 326 327 327 326 327 327 327 327 327 327 326
310 311 312 311 309 310 311 312 311 309 313 313 317 315 310 311 312 312 311 312 313 314 315 315 315 316 316 325 327 325 326 325 326 325 326 326 326 326 326 327 327 326 325 324
310 310 311 313 312 311 313 313 311 310 317 314 314 313 312 310 311 309 310 311 311 312 313 315 315 316 316 317 324 325 325 324 324 324 324 323 322 324 325 327 326 325 325 324
310 312 311 311 311 311 312 313 312 312 311 316 313 313 311 310 310 309 308 310 310 309 310 313 314 314 315 315 320 324 324 323 323 323 323 323 322 323 324 326 326 324 323 322
308 312 310 311 309 311 312 311 313 313 312 313 313 312 310 310 310 310 309 308 308 308 308 310 312 314 315 316 317 319 321 322 323 323 323 322 323 324 325 324 323 322 322 321
309 310 310 312 308 310 313 311 312 312 311 313 315 311 311 311 309 308 308 308 307 307 307 309 311 312 314 315 315 316 316 317 319 321 322 323 323 323 323 323 322 321 320 318
309 309 309 310 308 312 309 309 309 312 311 311 311 310 309 309 308 308 307 307 306 306 307 308 309 312 312 313 314 315 315 315 314 315 316 316 317 317 316 316 316 315 313 312
306 308 309 311 310 309 309 309 311 312 313 310 309 309 308 308 308 309 307 306 305 306 307 308 309 310 312 312 312 313 314 314 314 314 313 313 313 313 313 312 312 311 311 311
305 305 309 310 310 311 309 307 307 309 314 310 309 309 309 308 311 311 306 307 307 307 309 309 309 310 311 312 312 312 312 311 312 312 313 313 312 311 311 311 311 311 309 308
308 308 310 310 310 309 306 306 306 310 313 310 308 308 309 310 308 306 307 307 306 307 309 310 310 310 311 311 311 311 310 310 310 310 310 310 310 310 309 309 308 308 307 307
308 308 309 309 310 310 305 306 309 309 308 309 308 307 308 307 306 307 307 307 307 307 308 310 310 309 310 310 310 310 309 309 309 309 309 309 309 309 308 308 307 307 307 307
308 306 308 307 308 305 305 307 306 306 309 309 309 308 307 307 307 308 307 307 306 306 306 307 308 309 309 309 309 309 309 308 308 308 307 307 307 307 307 307 307 307 307 307
305 302 306 307 305 306 305 305 306 307 307 308 309 308 308 307 308 307 307 307 307 306 306 305 305 306 308 309 309 309 309 308 308 307 307 306 306 306 305 305 305 305 305 306
305 304 305 305 304 304 304 304 306 307 307 307 307 308 308 308 307 307 308 306 305 304 304 304 303 304 304 305 305 305 306 307 307 307 308 307 307 306 305 305 304 304 304 304
303 306 307 308 306 306 306 304 305 304 304 305 306 307 308 307 307 308 307 306 305 304 303 303 302 302 302 302 302 302 302 302 302 304 305 305 305 305 305 304 304 304 305 304

GFSCGP_850_thetae_117.txt.gz
Theta_e
305 306 306 306 305 305 305 305 305 305 305 305 306 308 311 312 313 313 313 314 315 318 316 317 317 318 321 326 325 333 333 336 334 333 336 331 329 327 326 325 326 326 327 326
305 306 305 305 304 304 304 304 304 305 306 306 308 309 310 312 314 315 315 315 317 317 317 317 318 319 326 326 324 329 328 336 335 333 334 335 332 331 327 323 324 320 324 322
305 305 304 304 304 304 305 305 306 306 307 309 311 312 310 312 313 314 315 316 317 317 317 317 318 319 328 326 325 326 331 337 336 335 337 336 335 334 332 331 330 328 328 326
305 305 304 304 304 305 308 307 308 308 309 312 311 316 314 312 313 315 314 315 316 316 317 317 317 319 329 326 326 328 327 336 336 336 334 334 334 333 332 332 332 332 330 330
307 305 305 306 307 308 308 308 310 311 312 312 314 315 316 314 315 315 315 317 317 318 317 318 319 321 330 325 326 327 330 332 336 336 335 335 335 333 330 328 328 326 325 323
306 305 306 307 307 308 308 310 311 310 313 316 316 315 317 316 316 316 317 317 318 319 319 318 319 322 330 325 325 330 330 332 334 333 334 335 336 335 331 328 331 327 324 322
309 309 308 306 309 310 310 313 319 319 317 319 317 317 316 312 312 316 316 315 317 317 318 319 321 326 332 327 324 327 329 335 331 327 334 335 335 335 334 326 326 326 326 328
310 313 310 309 310 310 309 313 317 319 321 319 315 318 316 312 313 314 313 314 317 315 314 315 322 331 330 329 325 324 323 326 330 331 330 333 334 334 334 332 329 330 332 332
310 312 309 308 307 308 312 316 313 315 316 318 318 316 314 313 316 313 312 315 315 313 313 317 321 329 330 329 328 327 326 326 326 326 325 326 329 329 329 330 329 328 329 329
308 310 309 309 309 310 312 312 317 318 321 321 319 316 313 314 315 313 313 315 315 314 313 319 325 330 331 329 329 327 327 326 325 326 325 326 325 323 324 324 325 328 327 328
307 310 314 312 312 313 314 314 313 314 313 320 319 316 313 314 312 315 313 314 314 313 313 315 324 330 330 330 330 329 329 330 329 329 328 325 324 325 324 324 324 328 327 326
309 310 314 312 310 310 311 314 313 320 317 317 315 315 313 314 313 313 313 314 314 313 313 314 321 327 328 325 325 326 328 328 328 327 328 327 326 325 324 327 325 324 324 324
311 312 316 316 312 312 313 313 312 312 317 317 316 317 312 311 312 312 313 312 313 313 313 313 314 322 325 325 325 325 326 325 325 325 325 325 324 326 324 323 324 324 324 323
310 310 313 315 313 312 315 313 313 315 318 316 316 314 313 312 311 312 312 312 311 311 313 313 313 315 323 325 325 326 325 324 324 324 326 326 325 325 325 324 325 326 326 326
311 311 311 312 312 313 313 314 314 315 315 316 314 314 312 312 311 310 310 310 309 310 310 315 314 313 315 320 324 325 324 324 324 323 324 324 325 325 325 326 326 326 326 326
311 313 311 311 312 313 313 313 313 314 314 314 314 314 312 311 310 310 309 309 309 309 309 310 312 315 314 316 319 322 323 323 323 324 324 323 324 325 324 325 325 325 325 324
311 312 313 313 311 311 313 312 313 313 313 314 315 313 312 311 310 309 309 309 308 308 308 309 310 311 313 314 316 318 321 323 323 323 324 324 323 323 324 325 324 324 323 322
311 311 311 312 311 313 311 311 312 313 313 312 311 311 310 310 309 308 308 308 307 308 308 309 309 310 311 312 313 314 315 318 321 321 322 322 322 322 323 323 322 322 321 321
309 310 311 313 312 311 311 311 313 314 313 310 311 310 309 309 311 309 307 307 307 307 308 308 308 310 311 312 312 313 313 314 314 315 317 319 321 321 321 321 321 320 319 317
308 308 312 311 312 313 311 309 309 310 314 311 310 310 310 311 312 309 307 306 306 307 307 308 308 309 310 311 311 311 311 312 312 312 312 313 313 313 314 314 314 313 312 311
309 309 312 311 312 310 308 308 308 312 314 311 310 310 310 310 309 307 307 306 305 306 309 307 309 310 310 310 309 309 309 310 310 310 311 311 311 311 311 311 310 310 310 310
309 309 309 310 311 312 308 309 311 312 312 311 310 310 309 309 308 308 307 307 307 307 307 308 309 310 310 310 310 310 309 308 308 308 308 308 308 309 309 309 309 309 308 307
309 308 310 309 310 307 307 309 308 309 310 310 310 309 309 309 308 308 307 307 306 306 307 306 306 308 309 310 310 310 310 309 308 307 307 307 307 307 307 306 306 306 306 306
307 305 308 308 307 308 308 308 308 309 309 309 309 309 309 309 308 307 307 306 306 305 305 304 305 305 305 306 307 308 308 309 309 308 308 306 306 306 306 306 305 304 304 304
307 306 308 308 307 307 307 308 308 307 307 307 308 309 308 308 308 307 307 306 305 304 304 303 303 302 302 302 303 303 304 305 306 307 307 306 306 306 305 304 304 304 304 304
306 308 308 308 308 308 308 307 307 307 306 306 307 307 307 308 308 307 307 306 305 305 305 303 303 304 303 303 303 303 302 301 301 302 303 303 304 304 304 304 303 302 301 301